<?xml version='1.0' encoding='UTF-8'?><gpx version="1.1" creator="JPX - https://github.com/jenetics/jpx" xmlns="http://www.topografix.com/GPX/1/1"><trk><trkseg><trkpt lat="44.62540829649177" lon="6.17958594689559"><ele>1299.0</ele><time>2026-04-26T07:59:51Z</time></trkpt><trkpt lat="44.62549793913415" lon="6.179550518350366"><ele>1299.0</ele><time>2026-04-26T08:00:04.001Z</time></trkpt><trkpt lat="44.625578382504706" lon="6.179550612285946"><ele>1299.0</ele><time>2026-04-26T08:00:09.001Z</time></trkpt><trkpt lat="44.625658122353364" lon="6.179591990043901"><ele>1299.0</ele><time>2026-04-26T08:00:13.001Z</time></trkpt><trkpt lat="44.625726805483964" lon="6.179644022682561"><ele>1299.0</ele><time>2026-04-26T08:00:16.001Z</time></trkpt><trkpt lat="44.625792691523294" lon="6.179673609332571"><ele>1299.0</ele><time>2026-04-26T08:00:20.001Z</time></trkpt><trkpt lat="44.625854678893695" lon="6.179710930196201"><ele>1299.0000000000002</ele><time>2026-04-26T08:00:24.001Z</time></trkpt><trkpt lat="44.62592823760507" lon="6.179767054601545"><ele>1299.0</ele><time>2026-04-26T08:00:27.001Z</time></trkpt><trkpt lat="44.62600725999809" lon="6.179816244947829"><ele>1299.0</ele><time>2026-04-26T08:00:30.001Z</time></trkpt><trkpt lat="44.62608783365035" lon="6.179864904108603"><ele>1299.0</ele><time>2026-04-26T08:00:33.001Z</time></trkpt><trkpt lat="44.62614548480811" lon="6.179900928272666"><ele>1299.0</ele><time>2026-04-26T08:00:35Z</time></trkpt><trkpt lat="44.62620692510759" lon="6.179922333572519"><ele>1299.0000000000002</ele><time>2026-04-26T08:00:37Z</time></trkpt><trkpt lat="44.62626840708" lon="6.179945218025384"><ele>1299.0</ele><time>2026-04-26T08:00:39Z</time></trkpt><trkpt lat="44.6263277524058" lon="6.179977900672153"><ele>1299.0</ele><time>2026-04-26T08:00:41Z</time></trkpt><trkpt lat="44.626386548683364" lon="6.18001522899364"><ele>1299.0</ele><time>2026-04-26T08:00:43Z</time></trkpt><trkpt lat="44.626446050357224" lon="6.180048795501761"><ele>1299.0</ele><time>2026-04-26T08:00:45Z</time></trkpt><trkpt lat="44.626522849928975" lon="6.180117901051949"><ele>1299.0</ele><time>2026-04-26T08:00:48Z</time></trkpt><trkpt lat="44.62660084717336" lon="6.180183904172175"><ele>1299.0</ele><time>2026-04-26T08:00:51Z</time></trkpt><trkpt lat="44.62661445807958" lon="6.180275049756068"><ele>1299.0</ele><time>2026-04-26T08:00:53Z</time></trkpt><trkpt lat="44.62659133329084" lon="6.1803845256896635"><ele>1299.0</ele><time>2026-04-26T08:00:55Z</time></trkpt><trkpt lat="44.62656159691178" lon="6.180507762094509"><ele>1299.0</ele><time>2026-04-26T08:00:57Z</time></trkpt><trkpt lat="44.62652629875623" lon="6.18064645640941"><ele>1299.0</ele><time>2026-04-26T08:00:59Z</time></trkpt><trkpt lat="44.62648237011804" lon="6.180790119966055"><ele>1299.0</ele><time>2026-04-26T08:01:01Z</time></trkpt><trkpt lat="44.6264322243146" lon="6.18093036403332"><ele>1299.0</ele><time>2026-04-26T08:01:03Z</time></trkpt><trkpt lat="44.62638381103965" lon="6.181071642316053"><ele>1299.0</ele><time>2026-04-26T08:01:05Z</time></trkpt><trkpt lat="44.62633266016107" lon="6.181216645235645"><ele>1299.0</ele><time>2026-04-26T08:01:07Z</time></trkpt><trkpt lat="44.62628332436325" lon="6.181360506516803"><ele>1299.0</ele><time>2026-04-26T08:01:09Z</time></trkpt><trkpt lat="44.62623359995782" lon="6.181510180708094"><ele>1299.0</ele><time>2026-04-26T08:01:11Z</time></trkpt><trkpt lat="44.62618414912987" lon="6.181652849173134"><ele>1299.0</ele><time>2026-04-26T08:01:13Z</time></trkpt><trkpt lat="44.62613525655066" lon="6.181788256690256"><ele>1299.0</ele><time>2026-04-26T08:01:15Z</time></trkpt><trkpt lat="44.62609214801081" lon="6.181913035923071"><ele>1299.0</ele><time>2026-04-26T08:01:17Z</time></trkpt><trkpt lat="44.626048926750975" lon="6.182028972579905"><ele>1299.0</ele><time>2026-04-26T08:01:19Z</time></trkpt><trkpt lat="44.62600795478225" lon="6.182142752860019"><ele>1299.0</ele><time>2026-04-26T08:01:21Z</time></trkpt><trkpt lat="44.625968994416475" lon="6.182249734555364"><ele>1299.0</ele><time>2026-04-26T08:01:23Z</time></trkpt><trkpt lat="44.62593502521577" lon="6.182348925764024"><ele>1299.0</ele><time>2026-04-26T08:01:25Z</time></trkpt><trkpt lat="44.62590483056962" lon="6.182435962394031"><ele>1299.0</ele><time>2026-04-26T08:01:27Z</time></trkpt><trkpt lat="44.62586725677692" lon="6.182534997053672"><ele>1299.0</ele><time>2026-04-26T08:01:30Z</time></trkpt><trkpt lat="44.62582940919904" lon="6.182636631065001"><ele>1299.0</ele><time>2026-04-26T08:01:34Z</time></trkpt><trkpt lat="44.62580120411347" lon="6.182728246072505"><ele>1299.0</ele><time>2026-04-26T08:01:38Z</time></trkpt><trkpt lat="44.62576494150017" lon="6.18282471293235"><ele>1299.0</ele><time>2026-04-26T08:01:42Z</time></trkpt><trkpt lat="44.62573299311337" lon="6.182904101090586"><ele>1299.0</ele><time>2026-04-26T08:01:45Z</time></trkpt><trkpt lat="44.62570663721289" lon="6.182989285702263"><ele>1299.0</ele><time>2026-04-26T08:01:48Z</time></trkpt><trkpt lat="44.62567899818015" lon="6.183077968659682"><ele>1299.0</ele><time>2026-04-26T08:01:51Z</time></trkpt><trkpt lat="44.62564550204375" lon="6.183171586513"><ele>1299.0</ele><time>2026-04-26T08:01:54Z</time></trkpt><trkpt lat="44.6256079655303" lon="6.183279381453934"><ele>1299.0</ele><time>2026-04-26T08:01:57Z</time></trkpt><trkpt lat="44.62557071224294" lon="6.183394045928494"><ele>1299.1666666666667</ele><time>2026-04-26T08:02:00Z</time></trkpt><trkpt lat="44.625526497339436" lon="6.183517368552902"><ele>1299.3333333333333</ele><time>2026-04-26T08:02:03Z</time></trkpt><trkpt lat="44.625497280790206" lon="6.183602256789251"><ele>1299.5</ele><time>2026-04-26T08:02:05Z</time></trkpt><trkpt lat="44.625468119622774" lon="6.183701320682075"><ele>1299.6666666666665</ele><time>2026-04-26T08:02:07Z</time></trkpt><trkpt lat="44.62543806730083" lon="6.183801682561948"><ele>1299.8333333333333</ele><time>2026-04-26T08:02:09Z</time></trkpt><trkpt lat="44.62539999350486" lon="6.183904007865947"><ele>1300.0</ele><time>2026-04-26T08:02:11Z</time></trkpt><trkpt lat="44.625358005116695" lon="6.1840473593058976"><ele>1300.4</ele><time>2026-04-26T08:02:13Z</time></trkpt><trkpt lat="44.62531935285963" lon="6.184173256723544"><ele>1300.8</ele><time>2026-04-26T08:02:15Z</time></trkpt><trkpt lat="44.62528856214241" lon="6.184283688674651"><ele>1301.1999999999998</ele><time>2026-04-26T08:02:17Z</time></trkpt><trkpt lat="44.62525242969579" lon="6.184405558373123"><ele>1301.6</ele><time>2026-04-26T08:02:19Z</time></trkpt><trkpt lat="44.625214219433374" lon="6.184522014846131"><ele>1302.0</ele><time>2026-04-26T08:02:21Z</time></trkpt><trkpt lat="44.62518088802304" lon="6.184642286779857"><ele>1302.1999999999998</ele><time>2026-04-26T08:02:23Z</time></trkpt><trkpt lat="44.625138631632765" lon="6.184768679053222"><ele>1302.4</ele><time>2026-04-26T08:02:25Z</time></trkpt><trkpt lat="44.62510064116288" lon="6.1849000240136665"><ele>1302.6</ele><time>2026-04-26T08:02:27Z</time></trkpt><trkpt lat="44.625062183778795" lon="6.1850324128983045"><ele>1302.8000000000002</ele><time>2026-04-26T08:02:29Z</time></trkpt><trkpt lat="44.62502256481113" lon="6.185169638299298"><ele>1303.0</ele><time>2026-04-26T08:02:31Z</time></trkpt><trkpt lat="44.624991310630335" lon="6.185318917495279"><ele>1303.0</ele><time>2026-04-26T08:02:33Z</time></trkpt><trkpt lat="44.62495755701978" lon="6.1854645455098"><ele>1303.0</ele><time>2026-04-26T08:02:35Z</time></trkpt><trkpt lat="44.6249300021489" lon="6.185612748428544"><ele>1303.0</ele><time>2026-04-26T08:02:37Z</time></trkpt><trkpt lat="44.62490639846911" lon="6.185766093261485"><ele>1303.0</ele><time>2026-04-26T08:02:39Z</time></trkpt><trkpt lat="44.624887019644405" lon="6.185922166867231"><ele>1303.0</ele><time>2026-04-26T08:02:41Z</time></trkpt><trkpt lat="44.62486774048056" lon="6.186072818346377"><ele>1302.8000000000002</ele><time>2026-04-26T08:02:43Z</time></trkpt><trkpt lat="44.62485040363318" lon="6.186221178654099"><ele>1302.6</ele><time>2026-04-26T08:02:45Z</time></trkpt><trkpt lat="44.62482553581072" lon="6.186369187270528"><ele>1302.4</ele><time>2026-04-26T08:02:47Z</time></trkpt><trkpt lat="44.624795794795524" lon="6.186517804775943"><ele>1302.1999999999998</ele><time>2026-04-26T08:02:49Z</time></trkpt><trkpt lat="44.62475383823006" lon="6.186660731758221"><ele>1302.0</ele><time>2026-04-26T08:02:51Z</time></trkpt><trkpt lat="44.6247108845144" lon="6.186801545109389"><ele>1302.3999999999999</ele><time>2026-04-26T08:02:53Z</time></trkpt><trkpt lat="44.624664376553135" lon="6.186938936803152"><ele>1302.8</ele><time>2026-04-26T08:02:55Z</time></trkpt><trkpt lat="44.62461601268857" lon="6.187074955543339"><ele>1303.2</ele><time>2026-04-26T08:02:57Z</time></trkpt><trkpt lat="44.62457003642051" lon="6.187210318177327"><ele>1303.6</ele><time>2026-04-26T08:02:59Z</time></trkpt><trkpt lat="44.624519232218844" lon="6.187352628294206"><ele>1304.0</ele><time>2026-04-26T08:03:01Z</time></trkpt><trkpt lat="44.6244758858181" lon="6.187491360730384"><ele>1304.5</ele><time>2026-04-26T08:03:03Z</time></trkpt><trkpt lat="44.62442553090941" lon="6.187633806559202"><ele>1305.0</ele><time>2026-04-26T08:03:05Z</time></trkpt><trkpt lat="44.624375269712296" lon="6.187777084157231"><ele>1305.5</ele><time>2026-04-26T08:03:07Z</time></trkpt><trkpt lat="44.62432855047835" lon="6.1879209775433806"><ele>1306.0</ele><time>2026-04-26T08:03:09Z</time></trkpt><trkpt lat="44.62427544539265" lon="6.188059276185694"><ele>1306.4</ele><time>2026-04-26T08:03:11Z</time></trkpt><trkpt lat="44.62422696054786" lon="6.188198795002568"><ele>1306.8</ele><time>2026-04-26T08:03:13Z</time></trkpt><trkpt lat="44.62418070142999" lon="6.188337197530965"><ele>1307.2</ele><time>2026-04-26T08:03:15Z</time></trkpt><trkpt lat="44.62413120346861" lon="6.188472064660611"><ele>1307.6000000000001</ele><time>2026-04-26T08:03:17Z</time></trkpt><trkpt lat="44.62408453553874" lon="6.18860898942548"><ele>1308.0</ele><time>2026-04-26T08:03:19Z</time></trkpt><trkpt lat="44.62403678009751" lon="6.188742639516104"><ele>1308.0</ele><time>2026-04-26T08:03:21Z</time></trkpt><trkpt lat="44.62399253537594" lon="6.1888788918176765"><ele>1308.0</ele><time>2026-04-26T08:03:23Z</time></trkpt><trkpt lat="44.62394542292226" lon="6.189014235594766"><ele>1308.0</ele><time>2026-04-26T08:03:25Z</time></trkpt><trkpt lat="44.62389806383653" lon="6.189148760491301"><ele>1308.0</ele><time>2026-04-26T08:03:27Z</time></trkpt><trkpt lat="44.62385243084703" lon="6.1892836020136075"><ele>1308.0</ele><time>2026-04-26T08:03:29Z</time></trkpt><trkpt lat="44.62380389231529" lon="6.1894223353941795"><ele>1308.0</ele><time>2026-04-26T08:03:31Z</time></trkpt><trkpt lat="44.62375413946317" lon="6.189562116397791"><ele>1308.0</ele><time>2026-04-26T08:03:33Z</time></trkpt><trkpt lat="44.62370729434352" lon="6.189701992586646"><ele>1308.0</ele><time>2026-04-26T08:03:35Z</time></trkpt><trkpt lat="44.62366017714132" lon="6.189839712298793"><ele>1308.0</ele><time>2026-04-26T08:03:37Z</time></trkpt><trkpt lat="44.62361131964142" lon="6.189977692778503"><ele>1308.0</ele><time>2026-04-26T08:03:39Z</time></trkpt><trkpt lat="44.623562401224504" lon="6.190115700971523"><ele>1308.4</ele><time>2026-04-26T08:03:41Z</time></trkpt><trkpt lat="44.62351626965706" lon="6.190256131136249"><ele>1308.8000000000002</ele><time>2026-04-26T08:03:43Z</time></trkpt><trkpt lat="44.62346811247455" lon="6.190396787855845"><ele>1309.2</ele><time>2026-04-26T08:03:45Z</time></trkpt><trkpt lat="44.62341955981737" lon="6.190537833954927"><ele>1309.6</ele><time>2026-04-26T08:03:47Z</time></trkpt><trkpt lat="44.62336996650521" lon="6.190677337977655"><ele>1310.0</ele><time>2026-04-26T08:03:49Z</time></trkpt><trkpt lat="44.62332139005599" lon="6.190816849556875"><ele>1310.2</ele><time>2026-04-26T08:03:51Z</time></trkpt><trkpt lat="44.62327194736458" lon="6.190957609073117"><ele>1310.4</ele><time>2026-04-26T08:03:53Z</time></trkpt><trkpt lat="44.623224538207936" lon="6.19109986476071"><ele>1310.6</ele><time>2026-04-26T08:03:55Z</time></trkpt><trkpt lat="44.62317836840908" lon="6.191244057643781"><ele>1310.8</ele><time>2026-04-26T08:03:57Z</time></trkpt><trkpt lat="44.623131712061" lon="6.191387220385103"><ele>1311.0</ele><time>2026-04-26T08:03:59Z</time></trkpt><trkpt lat="44.623091685331275" lon="6.191532969525441"><ele>1311.0</ele><time>2026-04-26T08:04:01Z</time></trkpt><trkpt lat="44.62305150602284" lon="6.191677859814189"><ele>1311.0</ele><time>2026-04-26T08:04:03Z</time></trkpt><trkpt lat="44.623011078020895" lon="6.191820932529503"><ele>1311.0</ele><time>2026-04-26T08:04:05Z</time></trkpt><trkpt lat="44.62297028037493" lon="6.191961711266763"><ele>1311.0</ele><time>2026-04-26T08:04:07Z</time></trkpt><trkpt lat="44.62292717084431" lon="6.192105319475418"><ele>1311.0</ele><time>2026-04-26T08:04:09Z</time></trkpt><trkpt lat="44.62289018591562" lon="6.192255009972154"><ele>1311.5</ele><time>2026-04-26T08:04:11Z</time></trkpt><trkpt lat="44.622850900398426" lon="6.192405707524677"><ele>1312.0</ele><time>2026-04-26T08:04:13Z</time></trkpt><trkpt lat="44.62280927497259" lon="6.192553401076092"><ele>1312.5</ele><time>2026-04-26T08:04:15Z</time></trkpt><trkpt lat="44.622770801723156" lon="6.192701752355583"><ele>1313.0</ele><time>2026-04-26T08:04:17Z</time></trkpt><trkpt lat="44.62273385083438" lon="6.192849317931763"><ele>1313.2</ele><time>2026-04-26T08:04:19Z</time></trkpt><trkpt lat="44.62270191697943" lon="6.193000246623856"><ele>1313.4</ele><time>2026-04-26T08:04:21Z</time></trkpt><trkpt lat="44.62266970344251" lon="6.1931473371493855"><ele>1313.6000000000001</ele><time>2026-04-26T08:04:23Z</time></trkpt><trkpt lat="44.62264350802955" lon="6.19329889775559"><ele>1313.8000000000002</ele><time>2026-04-26T08:04:25Z</time></trkpt><trkpt lat="44.622615625773626" lon="6.193448773604544"><ele>1314.0</ele><time>2026-04-26T08:04:27Z</time></trkpt><trkpt lat="44.62259380909301" lon="6.1935970906260565"><ele>1314.0</ele><time>2026-04-26T08:04:29Z</time></trkpt><trkpt lat="44.622571961157064" lon="6.193749534801682"><ele>1314.0</ele><time>2026-04-26T08:04:31Z</time></trkpt><trkpt lat="44.622553932106705" lon="6.193901289973433"><ele>1314.0</ele><time>2026-04-26T08:04:33Z</time></trkpt><trkpt lat="44.62253335847225" lon="6.194051980715607"><ele>1314.0</ele><time>2026-04-26T08:04:35Z</time></trkpt><trkpt lat="44.62251096876951" lon="6.1941994977421535"><ele>1314.0</ele><time>2026-04-26T08:04:37Z</time></trkpt><trkpt lat="44.62249117143485" lon="6.194346287027827"><ele>1314.0</ele><time>2026-04-26T08:04:39Z</time></trkpt><trkpt lat="44.6224708662077" lon="6.19449268540875"><ele>1314.0</ele><time>2026-04-26T08:04:41Z</time></trkpt><trkpt lat="44.62245098014603" lon="6.194641819977668"><ele>1314.0</ele><time>2026-04-26T08:04:43Z</time></trkpt><trkpt lat="44.62242803142888" lon="6.194791055700506"><ele>1314.0</ele><time>2026-04-26T08:04:45Z</time></trkpt><trkpt lat="44.62240491875584" lon="6.194939147590182"><ele>1314.0</ele><time>2026-04-26T08:04:47Z</time></trkpt><trkpt lat="44.62237864194156" lon="6.195087914980909"><ele>1314.0</ele><time>2026-04-26T08:04:49Z</time></trkpt><trkpt lat="44.62234525280863" lon="6.195234264713234"><ele>1314.0</ele><time>2026-04-26T08:04:51Z</time></trkpt><trkpt lat="44.62231551893876" lon="6.195386990021805"><ele>1314.0</ele><time>2026-04-26T08:04:53Z</time></trkpt><trkpt lat="44.62228402586284" lon="6.195537012941826"><ele>1314.0</ele><time>2026-04-26T08:04:55Z</time></trkpt><trkpt lat="44.6222522063597" lon="6.1956850566327555"><ele>1314.0</ele><time>2026-04-26T08:04:57Z</time></trkpt><trkpt lat="44.62221860788688" lon="6.195833899110805"><ele>1314.4</ele><time>2026-04-26T08:04:59Z</time></trkpt><trkpt lat="44.62218644547653" lon="6.195985773483366"><ele>1314.8000000000002</ele><time>2026-04-26T08:05:01Z</time></trkpt><trkpt lat="44.62215464820829" lon="6.196135376135189"><ele>1315.1999999999998</ele><time>2026-04-26T08:05:03Z</time></trkpt><trkpt lat="44.62212570230471" lon="6.196285978429363"><ele>1315.6</ele><time>2026-04-26T08:05:05Z</time></trkpt><trkpt lat="44.62209570051032" lon="6.196436325134827"><ele>1316.0</ele><time>2026-04-26T08:05:07Z</time></trkpt><trkpt lat="44.62206235793646" lon="6.196586037715999"><ele>1316.5</ele><time>2026-04-26T08:05:09Z</time></trkpt><trkpt lat="44.62203090320065" lon="6.19673838170313"><ele>1317.0</ele><time>2026-04-26T08:05:11Z</time></trkpt><trkpt lat="44.62199876232639" lon="6.196893891366621"><ele>1317.5</ele><time>2026-04-26T08:05:13Z</time></trkpt><trkpt lat="44.6219657525862" lon="6.19704756453975"><ele>1318.0</ele><time>2026-04-26T08:05:15Z</time></trkpt><trkpt lat="44.621938115848835" lon="6.197201429456962"><ele>1319.0</ele><time>2026-04-26T08:05:17Z</time></trkpt><trkpt lat="44.621904444766024" lon="6.197350451026198"><ele>1320.0</ele><time>2026-04-26T08:05:19Z</time></trkpt><trkpt lat="44.62187488836672" lon="6.197500214443715"><ele>1321.0</ele><time>2026-04-26T08:05:21Z</time></trkpt><trkpt lat="44.62184634226781" lon="6.197648851939862"><ele>1322.0</ele><time>2026-04-26T08:05:23Z</time></trkpt><trkpt lat="44.621821364923235" lon="6.1977980157929125"><ele>1323.0</ele><time>2026-04-26T08:05:25Z</time></trkpt><trkpt lat="44.62179845754758" lon="6.1979487279063985"><ele>1323.0</ele><time>2026-04-26T08:05:27Z</time></trkpt><trkpt lat="44.62177357311491" lon="6.198099469049908"><ele>1323.0</ele><time>2026-04-26T08:05:29Z</time></trkpt><trkpt lat="44.621753682590004" lon="6.198253262872996"><ele>1323.0</ele><time>2026-04-26T08:05:31Z</time></trkpt><trkpt lat="44.621734555541686" lon="6.198403906172206"><ele>1323.0</ele><time>2026-04-26T08:05:33Z</time></trkpt><trkpt lat="44.62171469671078" lon="6.198554178335429"><ele>1323.0</ele><time>2026-04-26T08:05:35Z</time></trkpt><trkpt lat="44.62168909124681" lon="6.1987065909958305"><ele>1323.25</ele><time>2026-04-26T08:05:37Z</time></trkpt><trkpt lat="44.62165898877789" lon="6.198855517223117"><ele>1323.5</ele><time>2026-04-26T08:05:39Z</time></trkpt><trkpt lat="44.62161691511017" lon="6.199007417315496"><ele>1323.75</ele><time>2026-04-26T08:05:41Z</time></trkpt><trkpt lat="44.621572382162924" lon="6.199154932234212"><ele>1324.0</ele><time>2026-04-26T08:05:43Z</time></trkpt><trkpt lat="44.62152964293152" lon="6.199303939281964"><ele>1324.5</ele><time>2026-04-26T08:05:45Z</time></trkpt><trkpt lat="44.62147947894543" lon="6.19945159483835"><ele>1325.0</ele><time>2026-04-26T08:05:47Z</time></trkpt><trkpt lat="44.62143438202378" lon="6.199597523023966"><ele>1325.5</ele><time>2026-04-26T08:05:49Z</time></trkpt><trkpt lat="44.62139889546397" lon="6.199749291729499"><ele>1326.0</ele><time>2026-04-26T08:05:51Z</time></trkpt><trkpt lat="44.621366846994505" lon="6.199904316693347"><ele>1326.25</ele><time>2026-04-26T08:05:53Z</time></trkpt><trkpt lat="44.621352629677574" lon="6.200062486340668"><ele>1326.5</ele><time>2026-04-26T08:05:55Z</time></trkpt><trkpt lat="44.6213596191823" lon="6.2002253382554"><ele>1326.75</ele><time>2026-04-26T08:05:57Z</time></trkpt><trkpt lat="44.62138288676678" lon="6.200386509686797"><ele>1327.0</ele><time>2026-04-26T08:05:59Z</time></trkpt><trkpt lat="44.62141550069386" lon="6.200545409274241"><ele>1326.75</ele><time>2026-04-26T08:06:01Z</time></trkpt><trkpt lat="44.621451988864024" lon="6.200702851111783"><ele>1326.5</ele><time>2026-04-26T08:06:03Z</time></trkpt><trkpt lat="44.62148534100292" lon="6.200857830032598"><ele>1326.25</ele><time>2026-04-26T08:06:05Z</time></trkpt><trkpt lat="44.6215247192141" lon="6.201010913895783"><ele>1326.0</ele><time>2026-04-26T08:06:07Z</time></trkpt><trkpt lat="44.62157260935149" lon="6.201158742399978"><ele>1326.0</ele><time>2026-04-26T08:06:09Z</time></trkpt><trkpt lat="44.62163507149707" lon="6.201294207987327"><ele>1326.0</ele><time>2026-04-26T08:06:11Z</time></trkpt><trkpt lat="44.621704321137074" lon="6.201447126862958"><ele>1326.0</ele><time>2026-04-26T08:06:13Z</time></trkpt><trkpt lat="44.621743865116144" lon="6.2015778265454715"><ele>1326.0</ele><time>2026-04-26T08:06:15Z</time></trkpt><trkpt lat="44.62177072388149" lon="6.20171114852927"><ele>1326.0</ele><time>2026-04-26T08:06:17Z</time></trkpt><trkpt lat="44.621787018536175" lon="6.201851932843349"><ele>1326.4</ele><time>2026-04-26T08:06:19Z</time></trkpt><trkpt lat="44.62181580866829" lon="6.201987987288282"><ele>1326.8</ele><time>2026-04-26T08:06:21Z</time></trkpt><trkpt lat="44.62186843804433" lon="6.202116598718281"><ele>1327.2</ele><time>2026-04-26T08:06:23Z</time></trkpt><trkpt lat="44.621957876826166" lon="6.202217271505755"><ele>1327.6000000000001</ele><time>2026-04-26T08:06:25Z</time></trkpt><trkpt lat="44.62203526852082" lon="6.202323404430139"><ele>1328.0</ele><time>2026-04-26T08:06:27Z</time></trkpt><trkpt lat="44.62211262422148" lon="6.202435613025068"><ele>1329.0</ele><time>2026-04-26T08:06:29Z</time></trkpt><trkpt lat="44.62218612863621" lon="6.202547246447073"><ele>1330.0</ele><time>2026-04-26T08:06:31Z</time></trkpt><trkpt lat="44.62225659747722" lon="6.202662926744933"><ele>1331.0</ele><time>2026-04-26T08:06:33Z</time></trkpt><trkpt lat="44.62231966717566" lon="6.202783751162191"><ele>1332.0</ele><time>2026-04-26T08:06:35Z</time></trkpt><trkpt lat="44.62238362462401" lon="6.20290114864928"><ele>1333.0</ele><time>2026-04-26T08:06:37Z</time></trkpt><trkpt lat="44.622452956495145" lon="6.203014471475075"><ele>1333.0</ele><time>2026-04-26T08:06:39Z</time></trkpt><trkpt lat="44.62251015387045" lon="6.203137246123482"><ele>1333.0</ele><time>2026-04-26T08:06:41Z</time></trkpt><trkpt lat="44.622558854889775" lon="6.203270840119141"><ele>1333.0</ele><time>2026-04-26T08:06:43Z</time></trkpt><trkpt lat="44.62260048798883" lon="6.203407300221281"><ele>1333.0</ele><time>2026-04-26T08:06:45Z</time></trkpt><trkpt lat="44.622628510485995" lon="6.203554550593082"><ele>1333.0</ele><time>2026-04-26T08:06:47Z</time></trkpt><trkpt lat="44.622658483799704" lon="6.203692160129424"><ele>1333.8000000000002</ele><time>2026-04-26T08:06:49Z</time></trkpt><trkpt lat="44.62264897569792" lon="6.203839732756697"><ele>1334.6</ele><time>2026-04-26T08:06:51Z</time></trkpt><trkpt lat="44.62261227338592" lon="6.203976633523546"><ele>1335.4</ele><time>2026-04-26T08:06:53Z</time></trkpt><trkpt lat="44.62260450577195" lon="6.204127382304182"><ele>1336.1999999999998</ele><time>2026-04-26T08:06:55Z</time></trkpt><trkpt lat="44.62264551497426" lon="6.204275252387809"><ele>1337.0</ele><time>2026-04-26T08:06:57Z</time></trkpt><trkpt lat="44.62269261180204" lon="6.204419244451864"><ele>1338.0</ele><time>2026-04-26T08:06:59Z</time></trkpt><trkpt lat="44.62266519101227" lon="6.2045283641147195"><ele>1339.0</ele><time>2026-04-26T08:07:01Z</time></trkpt><trkpt lat="44.622600309032684" lon="6.204661367730212"><ele>1340.0</ele><time>2026-04-26T08:07:03Z</time></trkpt><trkpt lat="44.62254647282656" lon="6.204784529869532"><ele>1341.0</ele><time>2026-04-26T08:07:05Z</time></trkpt><trkpt lat="44.62253030148239" lon="6.2048803462879585"><ele>1342.0</ele><time>2026-04-26T08:07:06Z</time></trkpt><trkpt lat="44.62253473787986" lon="6.205047514215827"><ele>1342.0</ele><time>2026-04-26T08:07:08Z</time></trkpt><trkpt lat="44.62255511774655" lon="6.205220888694338"><ele>1342.0</ele><time>2026-04-26T08:07:10Z</time></trkpt><trkpt lat="44.62257008812818" lon="6.205320408990335"><ele>1342.0</ele><time>2026-04-26T08:07:11Z</time></trkpt><trkpt lat="44.62258910847507" lon="6.205422700311885"><ele>1342.0</ele><time>2026-04-26T08:07:12Z</time></trkpt><trkpt lat="44.62261249758843" lon="6.205568314085848"><ele>1342.0</ele><time>2026-04-26T08:07:14Z</time></trkpt><trkpt lat="44.622647833401864" lon="6.20571480583086"><ele>1342.0</ele><time>2026-04-26T08:07:16Z</time></trkpt><trkpt lat="44.62266802148632" lon="6.205856313533889"><ele>1342.0</ele><time>2026-04-26T08:07:18Z</time></trkpt><trkpt lat="44.62267639270473" lon="6.2059976480718335"><ele>1342.0</ele><time>2026-04-26T08:07:20Z</time></trkpt><trkpt lat="44.62263172837274" lon="6.206155201416402"><ele>1342.0</ele><time>2026-04-26T08:07:22Z</time></trkpt><trkpt lat="44.62262905549936" lon="6.206243697697257"><ele>1342.0</ele><time>2026-04-26T08:07:23Z</time></trkpt><trkpt lat="44.622639346966736" lon="6.20633121846074"><ele>1342.0</ele><time>2026-04-26T08:07:24Z</time></trkpt><trkpt lat="44.6226731619711" lon="6.2064863363645335"><ele>1342.0</ele><time>2026-04-26T08:07:26Z</time></trkpt><trkpt lat="44.62272505386908" lon="6.206613133221283"><ele>1342.0</ele><time>2026-04-26T08:07:28Z</time></trkpt><trkpt lat="44.62275266745502" lon="6.206748968634426"><ele>1342.0</ele><time>2026-04-26T08:07:30Z</time></trkpt><trkpt lat="44.622781706876744" lon="6.206901743116618"><ele>1342.0</ele><time>2026-04-26T08:07:32Z</time></trkpt><trkpt lat="44.622828369852705" lon="6.207046850470147"><ele>1343.3999999999999</ele><time>2026-04-26T08:07:34Z</time></trkpt><trkpt lat="44.62288313337375" lon="6.207174295828769"><ele>1344.8</ele><time>2026-04-26T08:07:36Z</time></trkpt><trkpt lat="44.622953909916504" lon="6.207265089076304"><ele>1346.2</ele><time>2026-04-26T08:07:38Z</time></trkpt><trkpt lat="44.62303080141105" lon="6.207325071810132"><ele>1347.6</ele><time>2026-04-26T08:07:40Z</time></trkpt><trkpt lat="44.6230623087146" lon="6.20742314572778"><ele>1349.0</ele><time>2026-04-26T08:07:42Z</time></trkpt><trkpt lat="44.62307036309796" lon="6.2075751196314695"><ele>1349.2</ele><time>2026-04-26T08:07:44Z</time></trkpt><trkpt lat="44.6231040096344" lon="6.207727624606248"><ele>1349.4</ele><time>2026-04-26T08:07:46Z</time></trkpt><trkpt lat="44.623123368216184" lon="6.2078154628323325"><ele>1349.6</ele><time>2026-04-26T08:07:47Z</time></trkpt><trkpt lat="44.623160411555666" lon="6.2079591645566365"><ele>1349.8</ele><time>2026-04-26T08:07:49Z</time></trkpt><trkpt lat="44.623167265690334" lon="6.208129548547148"><ele>1350.0</ele><time>2026-04-26T08:07:51Z</time></trkpt><trkpt lat="44.62316571644622" lon="6.208223970940371"><ele>1349.6666666666667</ele><time>2026-04-26T08:07:52Z</time></trkpt><trkpt lat="44.62316290518035" lon="6.208395309917667"><ele>1349.3333333333333</ele><time>2026-04-26T08:07:54Z</time></trkpt><trkpt lat="44.62316608301837" lon="6.2084837677994935"><ele>1349.0</ele><time>2026-04-26T08:07:55Z</time></trkpt><trkpt lat="44.62317280323201" lon="6.2085742199204805"><ele>1348.6666666666665</ele><time>2026-04-26T08:07:56Z</time></trkpt><trkpt lat="44.62317494075764" lon="6.208666856748043"><ele>1348.3333333333333</ele><time>2026-04-26T08:07:57Z</time></trkpt><trkpt lat="44.62316296736354" lon="6.208841581858314"><ele>1348.0</ele><time>2026-04-26T08:07:59Z</time></trkpt><trkpt lat="44.62314133745263" lon="6.2090056014815085"><ele>1347.6000000000001</ele><time>2026-04-26T08:08:01Z</time></trkpt><trkpt lat="44.62312955220375" lon="6.209167619415954"><ele>1347.2</ele><time>2026-04-26T08:08:03Z</time></trkpt><trkpt lat="44.62308586774216" lon="6.209306330468556"><ele>1346.8</ele><time>2026-04-26T08:08:05Z</time></trkpt><trkpt lat="44.62305766350839" lon="6.209416944093547"><ele>1346.4</ele><time>2026-04-26T08:08:07Z</time></trkpt><trkpt lat="44.62302585926759" lon="6.209520595600741"><ele>1346.0</ele><time>2026-04-26T08:08:09Z</time></trkpt><trkpt lat="44.62308473076052" lon="6.209708531999592"><ele>1345.75</ele><time>2026-04-26T08:08:11Z</time></trkpt><trkpt lat="44.62303946675885" lon="6.209855512475331"><ele>1345.5</ele><time>2026-04-26T08:08:13Z</time></trkpt><trkpt lat="44.62298606468625" lon="6.2099999290327315"><ele>1345.25</ele><time>2026-04-26T08:08:15Z</time></trkpt><trkpt lat="44.62293607650679" lon="6.2101524086723785"><ele>1345.0</ele><time>2026-04-26T08:08:17Z</time></trkpt><trkpt lat="44.62290499450494" lon="6.210310835798149"><ele>1345.0</ele><time>2026-04-26T08:08:19Z</time></trkpt><trkpt lat="44.622884383288884" lon="6.21047207621121"><ele>1345.0</ele><time>2026-04-26T08:08:21Z</time></trkpt><trkpt lat="44.622882016248404" lon="6.210638327144308"><ele>1345.0</ele><time>2026-04-26T08:08:23Z</time></trkpt><trkpt lat="44.6229042063138" lon="6.210794006006374"><ele>1345.0</ele><time>2026-04-26T08:08:25Z</time></trkpt><trkpt lat="44.62294374496018" lon="6.210940679687776"><ele>1345.6</ele><time>2026-04-26T08:08:27Z</time></trkpt><trkpt lat="44.62300375774309" lon="6.211065107215834"><ele>1346.2</ele><time>2026-04-26T08:08:29Z</time></trkpt><trkpt lat="44.6230787184686" lon="6.211163113153171"><ele>1346.8000000000002</ele><time>2026-04-26T08:08:31Z</time></trkpt><trkpt lat="44.62317320863475" lon="6.211169215320786"><ele>1347.4</ele><time>2026-04-26T08:08:33Z</time></trkpt><trkpt lat="44.62321399975073" lon="6.2112953044939045"><ele>1348.0</ele><time>2026-04-26T08:08:35Z</time></trkpt><trkpt lat="44.623194191422655" lon="6.21146051718199"><ele>1347.75</ele><time>2026-04-26T08:08:37Z</time></trkpt><trkpt lat="44.62318139949939" lon="6.211628971312798"><ele>1347.5</ele><time>2026-04-26T08:08:39Z</time></trkpt><trkpt lat="44.62317681459091" lon="6.211787569192984"><ele>1347.25</ele><time>2026-04-26T08:08:41Z</time></trkpt><trkpt lat="44.62317559815173" lon="6.211942824571298"><ele>1347.0</ele><time>2026-04-26T08:08:43Z</time></trkpt><trkpt lat="44.6231732347202" lon="6.212095705568849"><ele>1347.0</ele><time>2026-04-26T08:08:45Z</time></trkpt><trkpt lat="44.62317412239272" lon="6.212250820479679"><ele>1347.0</ele><time>2026-04-26T08:08:47Z</time></trkpt><trkpt lat="44.62317467364447" lon="6.212402675367673"><ele>1347.0</ele><time>2026-04-26T08:08:49Z</time></trkpt><trkpt lat="44.62316338617727" lon="6.21255618885923"><ele>1347.0</ele><time>2026-04-26T08:08:51Z</time></trkpt><trkpt lat="44.62315850738098" lon="6.212717998569085"><ele>1347.0</ele><time>2026-04-26T08:08:53Z</time></trkpt><trkpt lat="44.623146012530135" lon="6.21286963796138"><ele>1347.6</ele><time>2026-04-26T08:08:55Z</time></trkpt><trkpt lat="44.623140572564544" lon="6.213025773400036"><ele>1348.1999999999998</ele><time>2026-04-26T08:08:57Z</time></trkpt><trkpt lat="44.62310776503874" lon="6.213169118773668"><ele>1348.8</ele><time>2026-04-26T08:08:59Z</time></trkpt><trkpt lat="44.62301920722241" lon="6.21327220262819"><ele>1349.4</ele><time>2026-04-26T08:09:01Z</time></trkpt><trkpt lat="44.6229342070664" lon="6.213375500538149"><ele>1350.0</ele><time>2026-04-26T08:09:03Z</time></trkpt><trkpt lat="44.622906975361126" lon="6.2135227912916955"><ele>1350.2</ele><time>2026-04-26T08:09:05Z</time></trkpt><trkpt lat="44.62292841195219" lon="6.213669109166722"><ele>1350.4</ele><time>2026-04-26T08:09:07Z</time></trkpt><trkpt lat="44.622957418378974" lon="6.213823771148787"><ele>1350.6</ele><time>2026-04-26T08:09:09Z</time></trkpt><trkpt lat="44.622965157031985" lon="6.2139812003511645"><ele>1350.8</ele><time>2026-04-26T08:09:11Z</time></trkpt><trkpt lat="44.62298700640924" lon="6.214132375401821"><ele>1351.0</ele><time>2026-04-26T08:09:13Z</time></trkpt><trkpt lat="44.62301448645669" lon="6.214278438392192"><ele>1351.6</ele><time>2026-04-26T08:09:15Z</time></trkpt><trkpt lat="44.622993689667894" lon="6.214428611667275"><ele>1352.1999999999998</ele><time>2026-04-26T08:09:17Z</time></trkpt><trkpt lat="44.622981447191655" lon="6.2145770226569175"><ele>1352.8000000000002</ele><time>2026-04-26T08:09:19Z</time></trkpt><trkpt lat="44.62296998824095" lon="6.214724073461023"><ele>1353.4</ele><time>2026-04-26T08:09:21Z</time></trkpt><trkpt lat="44.62296255355834" lon="6.214873933199162"><ele>1354.0</ele><time>2026-04-26T08:09:23Z</time></trkpt><trkpt lat="44.62295503533705" lon="6.215022226968403"><ele>1355.0</ele><time>2026-04-26T08:09:25Z</time></trkpt><trkpt lat="44.62294394241593" lon="6.215171811125642"><ele>1356.0</ele><time>2026-04-26T08:09:27Z</time></trkpt><trkpt lat="44.62294168197018" lon="6.215327890282369"><ele>1357.0</ele><time>2026-04-26T08:09:29Z</time></trkpt><trkpt lat="44.62290959794227" lon="6.215475500839658"><ele>1358.0</ele><time>2026-04-26T08:09:31Z</time></trkpt><trkpt lat="44.62290776049272" lon="6.215622409503439"><ele>1359.0</ele><time>2026-04-26T08:09:33Z</time></trkpt><trkpt lat="44.62291447226193" lon="6.2157755419604985"><ele>1359.4</ele><time>2026-04-26T08:09:35Z</time></trkpt><trkpt lat="44.62292414209365" lon="6.215923577365018"><ele>1359.8000000000002</ele><time>2026-04-26T08:09:37Z</time></trkpt><trkpt lat="44.62293928445036" lon="6.216065840669814"><ele>1360.1999999999998</ele><time>2026-04-26T08:09:39Z</time></trkpt><trkpt lat="44.622964231661676" lon="6.216204827160269"><ele>1360.6</ele><time>2026-04-26T08:09:41Z</time></trkpt><trkpt lat="44.62296971663259" lon="6.216347519030714"><ele>1361.0</ele><time>2026-04-26T08:09:43Z</time></trkpt><trkpt lat="44.6229539084179" lon="6.2164880934173095"><ele>1361.1999999999998</ele><time>2026-04-26T08:09:45Z</time></trkpt><trkpt lat="44.622946734755644" lon="6.216624962390413"><ele>1361.3999999999999</ele><time>2026-04-26T08:09:47Z</time></trkpt><trkpt lat="44.622938342401454" lon="6.216764135677318"><ele>1361.6</ele><time>2026-04-26T08:09:49Z</time></trkpt><trkpt lat="44.622925701683855" lon="6.216901707486755"><ele>1361.8</ele><time>2026-04-26T08:09:51Z</time></trkpt><trkpt lat="44.62291262788411" lon="6.217044591126191"><ele>1362.0</ele><time>2026-04-26T08:09:53Z</time></trkpt><trkpt lat="44.62291269090578" lon="6.217187721907626"><ele>1362.3999999999999</ele><time>2026-04-26T08:09:55Z</time></trkpt><trkpt lat="44.62289354755357" lon="6.217327725133806"><ele>1362.8</ele><time>2026-04-26T08:09:57Z</time></trkpt><trkpt lat="44.62287275680473" lon="6.2174707075648605"><ele>1363.2</ele><time>2026-04-26T08:09:59Z</time></trkpt><trkpt lat="44.62283253532298" lon="6.217605667062772"><ele>1363.6</ele><time>2026-04-26T08:10:01Z</time></trkpt><trkpt lat="44.62278602251878" lon="6.21773473501707"><ele>1364.0</ele><time>2026-04-26T08:10:03Z</time></trkpt><trkpt lat="44.62274302183991" lon="6.2178628119385255"><ele>1364.0</ele><time>2026-04-26T08:10:05Z</time></trkpt><trkpt lat="44.62267956838617" lon="6.217976264272299"><ele>1364.0</ele><time>2026-04-26T08:10:07Z</time></trkpt><trkpt lat="44.62264855699224" lon="6.218123053264508"><ele>1364.0</ele><time>2026-04-26T08:10:09Z</time></trkpt><trkpt lat="44.62263325433653" lon="6.218262023810941"><ele>1364.0</ele><time>2026-04-26T08:10:11Z</time></trkpt><trkpt lat="44.62260741632502" lon="6.218399562856149"><ele>1364.0</ele><time>2026-04-26T08:10:13Z</time></trkpt><trkpt lat="44.622575740364844" lon="6.2185341874168065"><ele>1364.6</ele><time>2026-04-26T08:10:15Z</time></trkpt><trkpt lat="44.62254294583121" lon="6.2186710432813"><ele>1365.2</ele><time>2026-04-26T08:10:17Z</time></trkpt><trkpt lat="44.622511909103274" lon="6.218813659557043"><ele>1365.8</ele><time>2026-04-26T08:10:19Z</time></trkpt><trkpt lat="44.622489965086466" lon="6.218966853954911"><ele>1366.3999999999999</ele><time>2026-04-26T08:10:21Z</time></trkpt><trkpt lat="44.62246448369146" lon="6.219108157362781"><ele>1367.0</ele><time>2026-04-26T08:10:23Z</time></trkpt><trkpt lat="44.62243885439855" lon="6.219243699641502"><ele>1367.6</ele><time>2026-04-26T08:10:25Z</time></trkpt><trkpt lat="44.62241377938121" lon="6.219381155097973"><ele>1368.1999999999998</ele><time>2026-04-26T08:10:27Z</time></trkpt><trkpt lat="44.62238372662744" lon="6.21951979767382"><ele>1368.8</ele><time>2026-04-26T08:10:29Z</time></trkpt><trkpt lat="44.62235520538331" lon="6.21965753671547"><ele>1369.4</ele><time>2026-04-26T08:10:31Z</time></trkpt><trkpt lat="44.62232893081194" lon="6.2197942446858905"><ele>1370.0</ele><time>2026-04-26T08:10:33Z</time></trkpt><trkpt lat="44.62229898231846" lon="6.219931436965104"><ele>1370.0</ele><time>2026-04-26T08:10:35Z</time></trkpt><trkpt lat="44.622273641555665" lon="6.220067513130267"><ele>1370.0</ele><time>2026-04-26T08:10:37Z</time></trkpt><trkpt lat="44.622254254598" lon="6.220202746963885"><ele>1370.0</ele><time>2026-04-26T08:10:39Z</time></trkpt><trkpt lat="44.62223611793673" lon="6.220337676471862"><ele>1370.0</ele><time>2026-04-26T08:10:41Z</time></trkpt><trkpt lat="44.62221534771258" lon="6.22047168780966"><ele>1370.0</ele><time>2026-04-26T08:10:43Z</time></trkpt><trkpt lat="44.6221975377667" lon="6.220613299865457"><ele>1370.4</ele><time>2026-04-26T08:10:45Z</time></trkpt><trkpt lat="44.6221847788871" lon="6.220757739743229"><ele>1370.8</ele><time>2026-04-26T08:10:47Z</time></trkpt><trkpt lat="44.622180756381724" lon="6.220906654198466"><ele>1371.1999999999998</ele><time>2026-04-26T08:10:49Z</time></trkpt><trkpt lat="44.62217982194778" lon="6.221052809389886"><ele>1371.6</ele><time>2026-04-26T08:10:51Z</time></trkpt><trkpt lat="44.62217657821559" lon="6.221201359376339"><ele>1372.0</ele><time>2026-04-26T08:10:53Z</time></trkpt><trkpt lat="44.622163495255826" lon="6.221348800642256"><ele>1372.6</ele><time>2026-04-26T08:10:55Z</time></trkpt><trkpt lat="44.62217595168246" lon="6.221493386834321"><ele>1373.1999999999998</ele><time>2026-04-26T08:10:57Z</time></trkpt><trkpt lat="44.62217642933652" lon="6.221641068822983"><ele>1373.8</ele><time>2026-04-26T08:10:59Z</time></trkpt><trkpt lat="44.622176054830106" lon="6.221783233973747"><ele>1374.4</ele><time>2026-04-26T08:11:01Z</time></trkpt><trkpt lat="44.622173155721505" lon="6.22192776328775"><ele>1375.0</ele><time>2026-04-26T08:11:03Z</time></trkpt><trkpt lat="44.62217434993837" lon="6.222068863476039"><ele>1375.0</ele><time>2026-04-26T08:11:05Z</time></trkpt><trkpt lat="44.62217304373921" lon="6.222209312665512"><ele>1375.0</ele><time>2026-04-26T08:11:07Z</time></trkpt><trkpt lat="44.6221676987165" lon="6.222353344878168"><ele>1375.0</ele><time>2026-04-26T08:11:09Z</time></trkpt><trkpt lat="44.62214985914339" lon="6.222500144805245"><ele>1375.0</ele><time>2026-04-26T08:11:11Z</time></trkpt><trkpt lat="44.62214423146238" lon="6.222649449285144"><ele>1375.0</ele><time>2026-04-26T08:11:13Z</time></trkpt><trkpt lat="44.622138742908064" lon="6.222795062865823"><ele>1375.8</ele><time>2026-04-26T08:11:15Z</time></trkpt><trkpt lat="44.62213057798319" lon="6.222941075357576"><ele>1376.6</ele><time>2026-04-26T08:11:17Z</time></trkpt><trkpt lat="44.62213223136566" lon="6.223086748310799"><ele>1377.4</ele><time>2026-04-26T08:11:19Z</time></trkpt><trkpt lat="44.62211174615767" lon="6.223234883901418"><ele>1378.2</ele><time>2026-04-26T08:11:21Z</time></trkpt><trkpt lat="44.62209221212475" lon="6.223387614395365"><ele>1379.0</ele><time>2026-04-26T08:11:23Z</time></trkpt><trkpt lat="44.62208283286696" lon="6.223534074266216"><ele>1380.2</ele><time>2026-04-26T08:11:25Z</time></trkpt><trkpt lat="44.62205562363951" lon="6.223679528378541"><ele>1381.4</ele><time>2026-04-26T08:11:27Z</time></trkpt><trkpt lat="44.62204445776036" lon="6.223826906345065"><ele>1382.6</ele><time>2026-04-26T08:11:29Z</time></trkpt><trkpt lat="44.62204637515593" lon="6.2239763918550794"><ele>1383.8</ele><time>2026-04-26T08:11:31Z</time></trkpt><trkpt lat="44.622038901128796" lon="6.224125680609405"><ele>1385.0</ele><time>2026-04-26T08:11:33Z</time></trkpt><trkpt lat="44.62204190735228" lon="6.224276336602847"><ele>1385.4</ele><time>2026-04-26T08:11:35Z</time></trkpt><trkpt lat="44.62203181638636" lon="6.224427814335778"><ele>1385.8</ele><time>2026-04-26T08:11:37Z</time></trkpt><trkpt lat="44.622047671756825" lon="6.224580486884193"><ele>1386.1999999999998</ele><time>2026-04-26T08:11:39Z</time></trkpt><trkpt lat="44.62207203921446" lon="6.2247261683541355"><ele>1386.6</ele><time>2026-04-26T08:11:41Z</time></trkpt><trkpt lat="44.62208538686707" lon="6.224877285309835"><ele>1387.0</ele><time>2026-04-26T08:11:43Z</time></trkpt><trkpt lat="44.62208521180598" lon="6.225025265823546"><ele>1387.6666666666665</ele><time>2026-04-26T08:11:45Z</time></trkpt><trkpt lat="44.62207369743004" lon="6.225162451740151"><ele>1388.3333333333333</ele><time>2026-04-26T08:11:47Z</time></trkpt><trkpt lat="44.622061515272996" lon="6.22529280244381"><ele>1389.0</ele><time>2026-04-26T08:11:49Z</time></trkpt><trkpt lat="44.62205943175772" lon="6.225398220993865"><ele>1389.6666666666667</ele><time>2026-04-26T08:11:51Z</time></trkpt><trkpt lat="44.62203846145979" lon="6.2254913939691905"><ele>1390.3333333333335</ele><time>2026-04-26T08:11:53Z</time></trkpt><trkpt lat="44.622030672149734" lon="6.225605174851515"><ele>1391.0</ele><time>2026-04-26T08:11:55Z</time></trkpt><trkpt lat="44.62202794108043" lon="6.225736641451281"><ele>1392.1999999999998</ele><time>2026-04-26T08:11:57Z</time></trkpt><trkpt lat="44.62204367182664" lon="6.225873040005642"><ele>1393.3999999999999</ele><time>2026-04-26T08:11:59Z</time></trkpt><trkpt lat="44.622046635709495" lon="6.2260085128187495"><ele>1394.6</ele><time>2026-04-26T08:12:01Z</time></trkpt><trkpt lat="44.62205389085791" lon="6.226143389223085"><ele>1395.8</ele><time>2026-04-26T08:12:03Z</time></trkpt><trkpt lat="44.62205260063133" lon="6.2262789899900985"><ele>1397.0</ele><time>2026-04-26T08:12:05Z</time></trkpt><trkpt lat="44.62207608514813" lon="6.22640655253285"><ele>1398.1999999999998</ele><time>2026-04-26T08:12:07Z</time></trkpt><trkpt lat="44.622066377728665" lon="6.22653601113356"><ele>1399.4</ele><time>2026-04-26T08:12:09Z</time></trkpt><trkpt lat="44.62206902191938" lon="6.226676437210794"><ele>1400.6</ele><time>2026-04-26T08:12:11Z</time></trkpt><trkpt lat="44.62207513818695" lon="6.226787577008909"><ele>1401.8000000000002</ele><time>2026-04-26T08:12:13Z</time></trkpt><trkpt lat="44.62208824664787" lon="6.226920880653944"><ele>1403.0</ele><time>2026-04-26T08:12:15Z</time></trkpt><trkpt lat="44.62210739896999" lon="6.227063733107382"><ele>1403.0</ele><time>2026-04-26T08:12:17Z</time></trkpt><trkpt lat="44.62212853344782" lon="6.227200435581188"><ele>1403.0</ele><time>2026-04-26T08:12:19Z</time></trkpt><trkpt lat="44.62215334485158" lon="6.2273289013358495"><ele>1403.0</ele><time>2026-04-26T08:12:21Z</time></trkpt><trkpt lat="44.62217937015937" lon="6.227456893539875"><ele>1403.0</ele><time>2026-04-26T08:12:23Z</time></trkpt><trkpt lat="44.62220291735828" lon="6.227585524814562"><ele>1403.0</ele><time>2026-04-26T08:12:25Z</time></trkpt><trkpt lat="44.622235417797995" lon="6.227709611147032"><ele>1403.0</ele><time>2026-04-26T08:12:27Z</time></trkpt><trkpt lat="44.622257870697794" lon="6.227842609981438"><ele>1403.0</ele><time>2026-04-26T08:12:29Z</time></trkpt><trkpt lat="44.622303723230914" lon="6.227953019732335"><ele>1403.0</ele><time>2026-04-26T08:12:31Z</time></trkpt><trkpt lat="44.62236402334083" lon="6.228041064704943"><ele>1403.0</ele><time>2026-04-26T08:12:33Z</time></trkpt><trkpt lat="44.6224479888331" lon="6.228077628098688"><ele>1403.0</ele><time>2026-04-26T08:12:35Z</time></trkpt><trkpt lat="44.622544252741484" lon="6.228069450310159"><ele>1403.0</ele><time>2026-04-26T08:12:37Z</time></trkpt><trkpt lat="44.622626212043556" lon="6.2280143354353195"><ele>1403.0</ele><time>2026-04-26T08:12:39Z</time></trkpt><trkpt lat="44.62269256764049" lon="6.2279408590683145"><ele>1403.0</ele><time>2026-04-26T08:12:41Z</time></trkpt><trkpt lat="44.622773463531765" lon="6.227892170759619"><ele>1403.0</ele><time>2026-04-26T08:12:43Z</time></trkpt><trkpt lat="44.62284626372683" lon="6.227838774587875"><ele>1403.0</ele><time>2026-04-26T08:12:45Z</time></trkpt><trkpt lat="44.62291595221384" lon="6.227788985478693"><ele>1403.0</ele><time>2026-04-26T08:12:47Z</time></trkpt><trkpt lat="44.62298758075725" lon="6.227732931933672"><ele>1405.1666666666667</ele><time>2026-04-26T08:12:49Z</time></trkpt><trkpt lat="44.62305733805347" lon="6.227680228329903"><ele>1407.3333333333335</ele><time>2026-04-26T08:12:51Z</time></trkpt><trkpt lat="44.623139447462044" lon="6.227655180219189"><ele>1409.5</ele><time>2026-04-26T08:12:53Z</time></trkpt><trkpt lat="44.623219605697116" lon="6.227648421558284"><ele>1411.6666666666667</ele><time>2026-04-26T08:12:55Z</time></trkpt><trkpt lat="44.62330190152153" lon="6.2276486864117775"><ele>1413.8333333333333</ele><time>2026-04-26T08:12:57Z</time></trkpt><trkpt lat="44.62338375625885" lon="6.227657466489899"><ele>1416.0</ele><time>2026-04-26T08:12:59Z</time></trkpt><trkpt lat="44.62344688265579" lon="6.227722486187448"><ele>1416.0</ele><time>2026-04-26T08:13:01Z</time></trkpt><trkpt lat="44.62353222453123" lon="6.227762472530972"><ele>1416.0</ele><time>2026-04-26T08:13:03Z</time></trkpt><trkpt lat="44.623604315374045" lon="6.227806121543344"><ele>1416.0</ele><time>2026-04-26T08:13:05Z</time></trkpt><trkpt lat="44.62367742237984" lon="6.2278713345553305"><ele>1416.0</ele><time>2026-04-26T08:13:07Z</time></trkpt><trkpt lat="44.62374545936731" lon="6.2279388106488405"><ele>1416.0</ele><time>2026-04-26T08:13:09Z</time></trkpt><trkpt lat="44.62380006132864" lon="6.228018327918645"><ele>1416.0</ele><time>2026-04-26T08:13:11Z</time></trkpt><trkpt lat="44.62385267392972" lon="6.22811007019732"><ele>1419.5</ele><time>2026-04-26T08:13:13Z</time></trkpt><trkpt lat="44.62389041322322" lon="6.228224013900526"><ele>1423.0</ele><time>2026-04-26T08:13:15Z</time></trkpt><trkpt lat="44.623920285712984" lon="6.228333903625773"><ele>1426.5</ele><time>2026-04-26T08:13:17Z</time></trkpt><trkpt lat="44.62393960590474" lon="6.228447295482388"><ele>1430.0</ele><time>2026-04-26T08:13:19Z</time></trkpt><trkpt lat="44.623930937602985" lon="6.228559809057852"><ele>1433.5</ele><time>2026-04-26T08:13:21Z</time></trkpt><trkpt lat="44.62392256003971" lon="6.228674281122941"><ele>1437.0</ele><time>2026-04-26T08:13:23Z</time></trkpt><trkpt lat="44.62390509292324" lon="6.228785892625971"><ele>1437.0</ele><time>2026-04-26T08:13:25Z</time></trkpt><trkpt lat="44.623877994113734" lon="6.228890618982669"><ele>1437.0</ele><time>2026-04-26T08:13:27Z</time></trkpt><trkpt lat="44.623856265343456" lon="6.228995184010186"><ele>1437.0</ele><time>2026-04-26T08:13:29Z</time></trkpt><trkpt lat="44.62381494710211" lon="6.2290879247445865"><ele>1437.0</ele><time>2026-04-26T08:13:31Z</time></trkpt><trkpt lat="44.62377078364679" lon="6.229193256095598"><ele>1437.0</ele><time>2026-04-26T08:13:33Z</time></trkpt><trkpt lat="44.62370011979907" lon="6.2292778689073005"><ele>1437.0</ele><time>2026-04-26T08:13:35Z</time></trkpt><trkpt lat="44.62365152513513" lon="6.229385567126165"><ele>1436.6666666666667</ele><time>2026-04-26T08:13:37Z</time></trkpt><trkpt lat="44.623581715593325" lon="6.229459001935982"><ele>1436.3333333333333</ele><time>2026-04-26T08:13:39Z</time></trkpt><trkpt lat="44.62352425507197" lon="6.2295527199703455"><ele>1436.0</ele><time>2026-04-26T08:13:41Z</time></trkpt><trkpt lat="44.62347446475109" lon="6.229636280240115"><ele>1435.6666666666665</ele><time>2026-04-26T08:13:43Z</time></trkpt><trkpt lat="44.6234066888228" lon="6.2297086971171645"><ele>1435.3333333333333</ele><time>2026-04-26T08:13:45Z</time></trkpt><trkpt lat="44.62334072572695" lon="6.229785890443994"><ele>1435.0</ele><time>2026-04-26T08:13:47Z</time></trkpt><trkpt lat="44.623266133151475" lon="6.2298532311350305"><ele>1435.0</ele><time>2026-04-26T08:13:49Z</time></trkpt><trkpt lat="44.62319806064431" lon="6.229932184695696"><ele>1435.0</ele><time>2026-04-26T08:13:51Z</time></trkpt><trkpt lat="44.62314892378962" lon="6.230028447206942"><ele>1435.0</ele><time>2026-04-26T08:13:53Z</time></trkpt><trkpt lat="44.6231065057473" lon="6.230127690144833"><ele>1435.0</ele><time>2026-04-26T08:13:55Z</time></trkpt><trkpt lat="44.6230595500902" lon="6.2302254701274284"><ele>1435.0</ele><time>2026-04-26T08:13:57Z</time></trkpt><trkpt lat="44.62301579997611" lon="6.2303253746981655"><ele>1435.0</ele><time>2026-04-26T08:13:59Z</time></trkpt><trkpt lat="44.62297256755786" lon="6.230433574326674"><ele>1435.0</ele><time>2026-04-26T08:14:01Z</time></trkpt><trkpt lat="44.62290918550034" lon="6.230512536451715"><ele>1435.0</ele><time>2026-04-26T08:14:03Z</time></trkpt><trkpt lat="44.622848628135586" lon="6.230597879389731"><ele>1435.0</ele><time>2026-04-26T08:14:05Z</time></trkpt><trkpt lat="44.62280235361564" lon="6.2306938147610875"><ele>1435.0</ele><time>2026-04-26T08:14:07Z</time></trkpt><trkpt lat="44.62276370804241" lon="6.230799121249028"><ele>1435.0</ele><time>2026-04-26T08:14:09Z</time></trkpt><trkpt lat="44.62273675766181" lon="6.230902157724193"><ele>1435.0</ele><time>2026-04-26T08:14:11Z</time></trkpt><trkpt lat="44.62272557511591" lon="6.231015408563412"><ele>1434.6666666666665</ele><time>2026-04-26T08:14:13Z</time></trkpt><trkpt lat="44.62271500158086" lon="6.231127490429362"><ele>1434.3333333333333</ele><time>2026-04-26T08:14:15Z</time></trkpt><trkpt lat="44.62267088113958" lon="6.2312412682452285"><ele>1434.0</ele><time>2026-04-26T08:14:17Z</time></trkpt><trkpt lat="44.622607152832146" lon="6.2313299343002315"><ele>1433.6666666666667</ele><time>2026-04-26T08:14:19Z</time></trkpt><trkpt lat="44.62254865650822" lon="6.231417073179641"><ele>1433.3333333333335</ele><time>2026-04-26T08:14:21Z</time></trkpt><trkpt lat="44.62251585504675" lon="6.231533458076682"><ele>1433.0</ele><time>2026-04-26T08:14:23Z</time></trkpt><trkpt lat="44.62249895223319" lon="6.231653313771892"><ele>1435.6000000000001</ele><time>2026-04-26T08:14:25Z</time></trkpt><trkpt lat="44.622475124376514" lon="6.231771836340129"><ele>1438.2</ele><time>2026-04-26T08:14:27Z</time></trkpt><trkpt lat="44.6224555920074" lon="6.231897173106375"><ele>1440.8</ele><time>2026-04-26T08:14:29Z</time></trkpt><trkpt lat="44.62241838102132" lon="6.2320138381882995"><ele>1443.4</ele><time>2026-04-26T08:14:31Z</time></trkpt><trkpt lat="44.622408257477446" lon="6.232143561140501"><ele>1446.0</ele><time>2026-04-26T08:14:33Z</time></trkpt><trkpt lat="44.622392049192406" lon="6.232263776451731"><ele>1447.0</ele><time>2026-04-26T08:14:35Z</time></trkpt><trkpt lat="44.622372345899194" lon="6.2323872231823145"><ele>1448.0</ele><time>2026-04-26T08:14:37Z</time></trkpt><trkpt lat="44.62235153551987" lon="6.232507792416377"><ele>1449.0</ele><time>2026-04-26T08:14:39Z</time></trkpt><trkpt lat="44.62233333786489" lon="6.232626786450583"><ele>1450.0</ele><time>2026-04-26T08:14:41Z</time></trkpt><trkpt lat="44.622343188804386" lon="6.232745725275134"><ele>1451.0</ele><time>2026-04-26T08:14:43Z</time></trkpt><trkpt lat="44.62236462790278" lon="6.232864766015833"><ele>1452.0</ele><time>2026-04-26T08:14:45Z</time></trkpt><trkpt lat="44.62239695133333" lon="6.232972949508022"><ele>1452.0</ele><time>2026-04-26T08:14:47Z</time></trkpt><trkpt lat="44.62243546678013" lon="6.233077639394216"><ele>1452.0</ele><time>2026-04-26T08:14:49Z</time></trkpt><trkpt lat="44.62245675042447" lon="6.23318010451744"><ele>1452.0</ele><time>2026-04-26T08:14:51Z</time></trkpt><trkpt lat="44.62248389085408" lon="6.233298847827817"><ele>1452.0</ele><time>2026-04-26T08:14:53Z</time></trkpt><trkpt lat="44.62249466845879" lon="6.2334101964337965"><ele>1452.0</ele><time>2026-04-26T08:14:55Z</time></trkpt><trkpt lat="44.62249350007828" lon="6.233533672196635"><ele>1452.0</ele><time>2026-04-26T08:14:57Z</time></trkpt><trkpt lat="44.6224780692338" lon="6.233652102052134"><ele>1452.6666666666667</ele><time>2026-04-26T08:14:59Z</time></trkpt><trkpt lat="44.62246938823231" lon="6.233776425613213"><ele>1453.3333333333333</ele><time>2026-04-26T08:15:01Z</time></trkpt><trkpt lat="44.6224468223618" lon="6.233899224297637"><ele>1454.0</ele><time>2026-04-26T08:15:03Z</time></trkpt><trkpt lat="44.622420508318584" lon="6.234018580676496"><ele>1454.6666666666665</ele><time>2026-04-26T08:15:05Z</time></trkpt><trkpt lat="44.622400629245625" lon="6.23413369858486"><ele>1455.3333333333333</ele><time>2026-04-26T08:15:07Z</time></trkpt><trkpt lat="44.622406904752104" lon="6.234257725125666"><ele>1456.0</ele><time>2026-04-26T08:15:09Z</time></trkpt><trkpt lat="44.622430477295154" lon="6.234363189578921"><ele>1455.8333333333333</ele><time>2026-04-26T08:15:11Z</time></trkpt><trkpt lat="44.62246808958998" lon="6.234465945380109"><ele>1455.6666666666665</ele><time>2026-04-26T08:15:13Z</time></trkpt><trkpt lat="44.62250704125519" lon="6.234571696125964"><ele>1455.5</ele><time>2026-04-26T08:15:15Z</time></trkpt><trkpt lat="44.622543337363005" lon="6.234666153235912"><ele>1455.3333333333333</ele><time>2026-04-26T08:15:17Z</time></trkpt><trkpt lat="44.622583961228166" lon="6.234751286860275"><ele>1455.1666666666667</ele><time>2026-04-26T08:15:19Z</time></trkpt><trkpt lat="44.62263635332076" lon="6.2348375229059485"><ele>1455.0</ele><time>2026-04-26T08:15:21Z</time></trkpt><trkpt lat="44.62268299598873" lon="6.234936154276528"><ele>1455.0</ele><time>2026-04-26T08:15:23Z</time></trkpt><trkpt lat="44.62273793020923" lon="6.235039474148431"><ele>1455.0</ele><time>2026-04-26T08:15:25Z</time></trkpt><trkpt lat="44.62277769047267" lon="6.235135226063811"><ele>1455.0</ele><time>2026-04-26T08:15:27Z</time></trkpt><trkpt lat="44.62282467528909" lon="6.235231224769047"><ele>1455.0</ele><time>2026-04-26T08:15:29Z</time></trkpt><trkpt lat="44.622876432260526" lon="6.235321563675328"><ele>1455.0</ele><time>2026-04-26T08:15:31Z</time></trkpt><trkpt lat="44.62293033220172" lon="6.235412533023859"><ele>1455.0</ele><time>2026-04-26T08:15:33Z</time></trkpt><trkpt lat="44.62298606941796" lon="6.23550481255657"><ele>1459.6666666666667</ele><time>2026-04-26T08:15:35Z</time></trkpt><trkpt lat="44.623032927233936" lon="6.235606788322885"><ele>1464.3333333333333</ele><time>2026-04-26T08:15:37Z</time></trkpt><trkpt lat="44.62306856792404" lon="6.235716977373143"><ele>1469.0</ele><time>2026-04-26T08:15:39Z</time></trkpt><trkpt lat="44.62308764920085" lon="6.235829466602816"><ele>1473.6666666666665</ele><time>2026-04-26T08:15:41Z</time></trkpt><trkpt lat="44.62311334026958" lon="6.235938451404065"><ele>1478.3333333333333</ele><time>2026-04-26T08:15:43Z</time></trkpt><trkpt lat="44.62314636061835" lon="6.236044561442117"><ele>1483.0</ele><time>2026-04-26T08:15:45Z</time></trkpt><trkpt lat="44.62319642445719" lon="6.2361465795977695"><ele>1483.0</ele><time>2026-04-26T08:15:47Z</time></trkpt><trkpt lat="44.62325109260291" lon="6.236235406657003"><ele>1483.0</ele><time>2026-04-26T08:15:49Z</time></trkpt><trkpt lat="44.62331000105527" lon="6.236318134248166"><ele>1483.0</ele><time>2026-04-26T08:15:51Z</time></trkpt><trkpt lat="44.62338538969414" lon="6.236366160653738"><ele>1483.0</ele><time>2026-04-26T08:15:53Z</time></trkpt><trkpt lat="44.62346225972199" lon="6.236400499905727"><ele>1483.0</ele><time>2026-04-26T08:15:55Z</time></trkpt><trkpt lat="44.62353447539224" lon="6.236421052963268"><ele>1483.0</ele><time>2026-04-26T08:15:57Z</time></trkpt><trkpt lat="44.62360973679971" lon="6.236437015470758"><ele>1485.0</ele><time>2026-04-26T08:15:59Z</time></trkpt><trkpt lat="44.62367949246949" lon="6.236455526452385"><ele>1487.0</ele><time>2026-04-26T08:16:01Z</time></trkpt><trkpt lat="44.623762197306625" lon="6.2364871544863245"><ele>1489.0</ele><time>2026-04-26T08:16:03Z</time></trkpt><trkpt lat="44.62383797385313" lon="6.236531795832415"><ele>1491.0</ele><time>2026-04-26T08:16:05Z</time></trkpt><trkpt lat="44.623920315881975" lon="6.2365615412276885"><ele>1493.0</ele><time>2026-04-26T08:16:07Z</time></trkpt><trkpt lat="44.62399975854844" lon="6.236583201900187"><ele>1495.0</ele><time>2026-04-26T08:16:09Z</time></trkpt><trkpt lat="44.62408160996804" lon="6.236611510062465"><ele>1495.0</ele><time>2026-04-26T08:16:11Z</time></trkpt><trkpt lat="44.62415992422925" lon="6.236632664388268"><ele>1495.0</ele><time>2026-04-26T08:16:13Z</time></trkpt><trkpt lat="44.624235797751204" lon="6.236667803979162"><ele>1495.0</ele><time>2026-04-26T08:16:15Z</time></trkpt><trkpt lat="44.62430695970566" lon="6.236706738576708"><ele>1495.0</ele><time>2026-04-26T08:16:17Z</time></trkpt><trkpt lat="44.62435905119418" lon="6.236797353018873"><ele>1495.0</ele><time>2026-04-26T08:16:19Z</time></trkpt><trkpt lat="44.624348322701934" lon="6.23690262306403"><ele>1495.0</ele><time>2026-04-26T08:16:21Z</time></trkpt><trkpt lat="44.62425174489232" lon="6.2369064775895176"><ele>1495.0</ele><time>2026-04-26T08:16:23Z</time></trkpt><trkpt lat="44.62416743108243" lon="6.236926189445877"><ele>1495.0</ele><time>2026-04-26T08:16:25Z</time></trkpt><trkpt lat="44.624064803271224" lon="6.236969497257684"><ele>1495.0</ele><time>2026-04-26T08:16:27Z</time></trkpt><trkpt lat="44.6239738679131" lon="6.23701555715845"><ele>1495.0</ele><time>2026-04-26T08:16:29Z</time></trkpt><trkpt lat="44.62389208083419" lon="6.237078063099702"><ele>1495.0</ele><time>2026-04-26T08:16:31Z</time></trkpt><trkpt lat="44.623823575729816" lon="6.237153954518784"><ele>1495.0</ele><time>2026-04-26T08:16:33Z</time></trkpt><trkpt lat="44.62376853417137" lon="6.237247677931419"><ele>1495.0</ele><time>2026-04-26T08:16:35Z</time></trkpt><trkpt lat="44.6237912092268" lon="6.237396278564399"><ele>1495.0</ele><time>2026-04-26T08:16:37Z</time></trkpt><trkpt lat="44.62381788028872" lon="6.237502311844741"><ele>1495.0</ele><time>2026-04-26T08:16:39Z</time></trkpt><trkpt lat="44.623850866858696" lon="6.237608715211128"><ele>1495.0</ele><time>2026-04-26T08:16:41Z</time></trkpt><trkpt lat="44.62390280178543" lon="6.237701942969121"><ele>1495.0</ele><time>2026-04-26T08:16:43Z</time></trkpt><trkpt lat="44.623956564875094" lon="6.237782991759861"><ele>1494.8333333333333</ele><time>2026-04-26T08:16:45Z</time></trkpt><trkpt lat="44.623999292536304" lon="6.237879705613466"><ele>1494.6666666666665</ele><time>2026-04-26T08:16:47Z</time></trkpt><trkpt lat="44.62406699665946" lon="6.23794342792204"><ele>1494.5</ele><time>2026-04-26T08:16:49Z</time></trkpt><trkpt lat="44.62412032052454" lon="6.238025573028721"><ele>1494.3333333333333</ele><time>2026-04-26T08:16:51Z</time></trkpt><trkpt lat="44.624174974622576" lon="6.238102081347628"><ele>1494.1666666666667</ele><time>2026-04-26T08:16:53Z</time></trkpt><trkpt lat="44.62422687329766" lon="6.238185047571014"><ele>1494.0</ele><time>2026-04-26T08:16:55Z</time></trkpt><trkpt lat="44.624276075677265" lon="6.23826759040038"><ele>1493.7142857142856</ele><time>2026-04-26T08:16:57Z</time></trkpt><trkpt lat="44.6243212662598" lon="6.23833913405372"><ele>1493.4285714285713</ele><time>2026-04-26T08:16:59Z</time></trkpt><trkpt lat="44.62433757996992" lon="6.238425492787608"><ele>1493.142857142857</ele><time>2026-04-26T08:17:01Z</time></trkpt><trkpt lat="44.62435263545069" lon="6.238513550456679"><ele>1492.8571428571427</ele><time>2026-04-26T08:17:03Z</time></trkpt><trkpt lat="44.6243658142822" lon="6.238620133475661"><ele>1492.5714285714287</ele><time>2026-04-26T08:17:05Z</time></trkpt><trkpt lat="44.62437070873415" lon="6.238723076720473"><ele>1492.2857142857142</ele><time>2026-04-26T08:17:07Z</time></trkpt><trkpt lat="44.62438355620441" lon="6.238833976986766"><ele>1492.0</ele><time>2026-04-26T08:17:09Z</time></trkpt><trkpt lat="44.62440508849118" lon="6.238946511659002"><ele>1490.6666666666665</ele><time>2026-04-26T08:17:11Z</time></trkpt><trkpt lat="44.62444948212768" lon="6.239038670078711"><ele>1489.3333333333333</ele><time>2026-04-26T08:17:13Z</time></trkpt><trkpt lat="44.624475053307854" lon="6.239143278427902"><ele>1488.0</ele><time>2026-04-26T08:17:15Z</time></trkpt><trkpt lat="44.62451164624212" lon="6.2392357812101915"><ele>1486.6666666666667</ele><time>2026-04-26T08:17:17Z</time></trkpt><trkpt lat="44.62454622176917" lon="6.2393343531884"><ele>1485.3333333333335</ele><time>2026-04-26T08:17:19Z</time></trkpt><trkpt lat="44.62457143835388" lon="6.2394356118956225"><ele>1484.0</ele><time>2026-04-26T08:17:21Z</time></trkpt><trkpt lat="44.6246147080291" lon="6.239540017685298"><ele>1490.6666666666667</ele><time>2026-04-26T08:17:23Z</time></trkpt><trkpt lat="44.62465887926987" lon="6.239632420384426"><ele>1497.3333333333335</ele><time>2026-04-26T08:17:25Z</time></trkpt><trkpt lat="44.624678316096045" lon="6.239742033886172"><ele>1504.0</ele><time>2026-04-26T08:17:27Z</time></trkpt><trkpt lat="44.624692828597155" lon="6.239847546799408"><ele>1510.6666666666667</ele><time>2026-04-26T08:17:29Z</time></trkpt><trkpt lat="44.624685317670234" lon="6.239956829748128"><ele>1517.3333333333333</ele><time>2026-04-26T08:17:31Z</time></trkpt><trkpt lat="44.624654986699525" lon="6.24005817150854"><ele>1524.0</ele><time>2026-04-26T08:17:33Z</time></trkpt><trkpt lat="44.62461776154999" lon="6.240161713307838"><ele>1524.3333333333333</ele><time>2026-04-26T08:17:35Z</time></trkpt><trkpt lat="44.62457540708975" lon="6.240271992640451"><ele>1524.6666666666667</ele><time>2026-04-26T08:17:37Z</time></trkpt><trkpt lat="44.62454679126306" lon="6.240381439319559"><ele>1525.0</ele><time>2026-04-26T08:17:39Z</time></trkpt><trkpt lat="44.624493034128214" lon="6.240475996258317"><ele>1525.3333333333335</ele><time>2026-04-26T08:17:41Z</time></trkpt><trkpt lat="44.624450090769976" lon="6.24057488421368"><ele>1525.6666666666667</ele><time>2026-04-26T08:17:43Z</time></trkpt><trkpt lat="44.624406321935076" lon="6.240684658878075"><ele>1526.0</ele><time>2026-04-26T08:17:45Z</time></trkpt><trkpt lat="44.624368418137365" lon="6.240814179138212"><ele>1517.5</ele><time>2026-04-26T08:17:47Z</time></trkpt><trkpt lat="44.62437632673054" lon="6.240975320891757"><ele>1509.0</ele><time>2026-04-26T08:17:49Z</time></trkpt><trkpt lat="44.62442200971426" lon="6.24111779994659"><ele>1500.5</ele><time>2026-04-26T08:17:51Z</time></trkpt><trkpt lat="44.62444737118467" lon="6.24127515313244"><ele>1492.0</ele><time>2026-04-26T08:17:53Z</time></trkpt><trkpt lat="44.624445115743235" lon="6.2414428340288595"><ele>1494.0</ele><time>2026-04-26T08:17:55Z</time></trkpt><trkpt lat="44.62438586247002" lon="6.24159052902189"><ele>1496.0</ele><time>2026-04-26T08:17:57Z</time></trkpt><trkpt lat="44.62430390914851" lon="6.2417280088326805"><ele>1498.0</ele><time>2026-04-26T08:17:59Z</time></trkpt><trkpt lat="44.62426534351016" lon="6.241799400165593"><ele>1500.0</ele><time>2026-04-26T08:18:00Z</time></trkpt><trkpt lat="44.62421973212489" lon="6.2419696756498535"><ele>1502.0</ele><time>2026-04-26T08:18:02Z</time></trkpt><trkpt lat="44.62419457247531" lon="6.242050962493826"><ele>1502.0</ele><time>2026-04-26T08:18:03Z</time></trkpt><trkpt lat="44.62416352313308" lon="6.24213261537472"><ele>1502.0</ele><time>2026-04-26T08:18:04Z</time></trkpt><trkpt lat="44.624126986708845" lon="6.242299059255121"><ele>1502.0</ele><time>2026-04-26T08:18:06Z</time></trkpt><trkpt lat="44.62410148344052" lon="6.242390634376713"><ele>1502.0</ele><time>2026-04-26T08:18:07Z</time></trkpt><trkpt lat="44.6240913017601" lon="6.242485899209328"><ele>1502.0</ele><time>2026-04-26T08:18:08Z</time></trkpt><trkpt lat="44.62404154102231" lon="6.242650320571126"><ele>1504.3999999999999</ele><time>2026-04-26T08:18:10Z</time></trkpt><trkpt lat="44.624016657540885" lon="6.242809268980815"><ele>1506.8</ele><time>2026-04-26T08:18:12Z</time></trkpt><trkpt lat="44.62398817197194" lon="6.242940364767384"><ele>1509.2</ele><time>2026-04-26T08:18:14Z</time></trkpt><trkpt lat="44.623951755297675" lon="6.243070679857796"><ele>1511.6</ele><time>2026-04-26T08:18:16Z</time></trkpt><trkpt lat="44.62390324630226" lon="6.243227039184113"><ele>1514.0</ele><time>2026-04-26T08:18:18Z</time></trkpt><trkpt lat="44.62385734761764" lon="6.243378515281037"><ele>1515.4</ele><time>2026-04-26T08:18:20Z</time></trkpt><trkpt lat="44.62383015562803" lon="6.243533227451603"><ele>1516.8000000000002</ele><time>2026-04-26T08:18:22Z</time></trkpt><trkpt lat="44.62377476554797" lon="6.24367102818751"><ele>1518.1999999999998</ele><time>2026-04-26T08:18:24Z</time></trkpt><trkpt lat="44.623717498057474" lon="6.243738183988429"><ele>1519.6</ele><time>2026-04-26T08:18:25Z</time></trkpt><trkpt lat="44.62364173782894" lon="6.243870011600783"><ele>1521.0</ele><time>2026-04-26T08:18:27Z</time></trkpt><trkpt lat="44.62356929274928" lon="6.243981729149096"><ele>1516.8</ele><time>2026-04-26T08:18:29Z</time></trkpt><trkpt lat="44.62350653194157" lon="6.244124211017827"><ele>1512.6</ele><time>2026-04-26T08:18:31Z</time></trkpt><trkpt lat="44.62345581611928" lon="6.244271100159956"><ele>1508.4</ele><time>2026-04-26T08:18:33Z</time></trkpt><trkpt lat="44.62341532189919" lon="6.244347634186213"><ele>1504.2</ele><time>2026-04-26T08:18:34Z</time></trkpt><trkpt lat="44.62341756654556" lon="6.244448248712474"><ele>1500.0</ele><time>2026-04-26T08:18:35Z</time></trkpt><trkpt lat="44.62340504943792" lon="6.244615643651801"><ele>1500.0</ele><time>2026-04-26T08:18:37Z</time></trkpt><trkpt lat="44.62340749594432" lon="6.244781765063449"><ele>1500.0</ele><time>2026-04-26T08:18:39Z</time></trkpt><trkpt lat="44.62341382254612" lon="6.244875187410625"><ele>1500.0</ele><time>2026-04-26T08:18:40Z</time></trkpt><trkpt lat="44.62342351378244" lon="6.244964229394907"><ele>1500.0</ele><time>2026-04-26T08:18:41Z</time></trkpt><trkpt lat="44.623428523039614" lon="6.245056144611456"><ele>1500.0</ele><time>2026-04-26T08:18:42Z</time></trkpt><trkpt lat="44.623431208250366" lon="6.245153210832962"><ele>1500.0</ele><time>2026-04-26T08:18:43Z</time></trkpt><trkpt lat="44.62343769886711" lon="6.245300766230852"><ele>1500.8</ele><time>2026-04-26T08:18:45Z</time></trkpt><trkpt lat="44.6234169707297" lon="6.2454199588679655"><ele>1501.6</ele><time>2026-04-26T08:18:47Z</time></trkpt><trkpt lat="44.6234032249442" lon="6.245527492681852"><ele>1502.4</ele><time>2026-04-26T08:18:48Z</time></trkpt><trkpt lat="44.62337111649318" lon="6.245677209512253"><ele>1503.2</ele><time>2026-04-26T08:18:50Z</time></trkpt><trkpt lat="44.62334220272335" lon="6.245823897444894"><ele>1504.0</ele><time>2026-04-26T08:18:52Z</time></trkpt><trkpt lat="44.62330268337609" lon="6.245968713347224"><ele>1504.4</ele><time>2026-04-26T08:18:54Z</time></trkpt><trkpt lat="44.623289307371245" lon="6.246106174593001"><ele>1504.8000000000002</ele><time>2026-04-26T08:18:56Z</time></trkpt><trkpt lat="44.62330701904566" lon="6.246246028453576"><ele>1505.1999999999998</ele><time>2026-04-26T08:18:58Z</time></trkpt><trkpt lat="44.62334707202168" lon="6.246370940855117"><ele>1505.6</ele><time>2026-04-26T08:19:00Z</time></trkpt><trkpt lat="44.62337108609525" lon="6.2465059888205134"><ele>1506.0</ele><time>2026-04-26T08:19:02Z</time></trkpt><trkpt lat="44.62341946636166" lon="6.246629809362964"><ele>1506.8</ele><time>2026-04-26T08:19:04Z</time></trkpt><trkpt lat="44.62343583670306" lon="6.246767614028721"><ele>1507.6</ele><time>2026-04-26T08:19:06Z</time></trkpt><trkpt lat="44.623455116885665" lon="6.246895933169806"><ele>1508.4</ele><time>2026-04-26T08:19:08Z</time></trkpt><trkpt lat="44.62349854868121" lon="6.247021624870851"><ele>1509.2</ele><time>2026-04-26T08:19:10Z</time></trkpt><trkpt lat="44.623538135088076" lon="6.247141125883945"><ele>1510.0</ele><time>2026-04-26T08:19:12Z</time></trkpt><trkpt lat="44.62356751015657" lon="6.247266596565786"><ele>1510.3333333333333</ele><time>2026-04-26T08:19:14Z</time></trkpt><trkpt lat="44.62358414246849" lon="6.247385403700086"><ele>1510.6666666666665</ele><time>2026-04-26T08:19:16Z</time></trkpt><trkpt lat="44.623592472903134" lon="6.247506927940478"><ele>1511.0</ele><time>2026-04-26T08:19:18Z</time></trkpt><trkpt lat="44.62359913146181" lon="6.24763265283652"><ele>1511.3333333333333</ele><time>2026-04-26T08:19:20Z</time></trkpt><trkpt lat="44.62362751710898" lon="6.2477613935053125"><ele>1511.6666666666667</ele><time>2026-04-26T08:19:22Z</time></trkpt><trkpt lat="44.62365779795058" lon="6.2478758001268595"><ele>1512.0</ele><time>2026-04-26T08:19:24Z</time></trkpt><trkpt lat="44.623683716106655" lon="6.247992338186033"><ele>1518.8333333333333</ele><time>2026-04-26T08:19:26Z</time></trkpt><trkpt lat="44.623710724659226" lon="6.248118172415623"><ele>1525.6666666666665</ele><time>2026-04-26T08:19:28Z</time></trkpt><trkpt lat="44.62372696211172" lon="6.24824387110438"><ele>1532.5</ele><time>2026-04-26T08:19:30Z</time></trkpt><trkpt lat="44.623744213496" lon="6.2483664414969775"><ele>1539.3333333333333</ele><time>2026-04-26T08:19:32Z</time></trkpt><trkpt lat="44.62373144655806" lon="6.248477141341881"><ele>1546.1666666666665</ele><time>2026-04-26T08:19:34Z</time></trkpt><trkpt lat="44.623740503762896" lon="6.2485898199704035"><ele>1553.0</ele><time>2026-04-26T08:19:36Z</time></trkpt><trkpt lat="44.62372710061726" lon="6.248721847123283"><ele>1552.9999999999998</ele><time>2026-04-26T08:19:38Z</time></trkpt><trkpt lat="44.623713839298254" lon="6.24884654234293"><ele>1553.0</ele><time>2026-04-26T08:19:40Z</time></trkpt><trkpt lat="44.62370540113712" lon="6.248967242082185"><ele>1553.0</ele><time>2026-04-26T08:19:42Z</time></trkpt><trkpt lat="44.62371215722097" lon="6.24908803907894"><ele>1553.0</ele><time>2026-04-26T08:19:44Z</time></trkpt><trkpt lat="44.623722485297435" lon="6.249213860028276"><ele>1552.9999999999998</ele><time>2026-04-26T08:19:46Z</time></trkpt><trkpt lat="44.623763641066226" lon="6.24931933394636"><ele>1553.0</ele><time>2026-04-26T08:19:48Z</time></trkpt><trkpt lat="44.62380554444095" lon="6.249432805214038"><ele>1550.9999999999998</ele><time>2026-04-26T08:19:50Z</time></trkpt><trkpt lat="44.62387237346323" lon="6.249507530775053"><ele>1549.0</ele><time>2026-04-26T08:19:52Z</time></trkpt><trkpt lat="44.62393141291973" lon="6.249571856700963"><ele>1547.0</ele><time>2026-04-26T08:19:54Z</time></trkpt><trkpt lat="44.62398945112861" lon="6.249638987525914"><ele>1545.0</ele><time>2026-04-26T08:19:56Z</time></trkpt><trkpt lat="44.624049223008726" lon="6.249721299521521"><ele>1542.9999999999998</ele><time>2026-04-26T08:19:58Z</time></trkpt><trkpt lat="44.624094764933126" lon="6.249801584946275"><ele>1541.0</ele><time>2026-04-26T08:20:00Z</time></trkpt><trkpt lat="44.624145793882754" lon="6.249871987288758"><ele>1540.4285714285716</ele><time>2026-04-26T08:20:02Z</time></trkpt><trkpt lat="44.62418656769221" lon="6.249963983241472"><ele>1539.857142857143</ele><time>2026-04-26T08:20:06Z</time></trkpt><trkpt lat="44.624157107724095" lon="6.25005204638296"><ele>1539.2857142857142</ele><time>2026-04-26T08:20:09Z</time></trkpt><trkpt lat="44.624137925042696" lon="6.250136394897408"><ele>1538.7142857142858</ele><time>2026-04-26T08:20:11Z</time></trkpt><trkpt lat="44.62413983134086" lon="6.250241081100569"><ele>1538.142857142857</ele><time>2026-04-26T08:20:13Z</time></trkpt><trkpt lat="44.624108276717415" lon="6.2503412490696855"><ele>1537.5714285714287</ele><time>2026-04-26T08:20:15Z</time></trkpt><trkpt lat="44.62410278424087" lon="6.250431704997669"><ele>1537.0</ele><time>2026-04-26T08:20:17Z</time></trkpt><trkpt lat="44.62409178338726" lon="6.250524121700407"><ele>1538.0000000000002</ele><time>2026-04-26T08:20:19Z</time></trkpt><trkpt lat="44.62406738880777" lon="6.250648268760328"><ele>1539.0</ele><time>2026-04-26T08:20:22Z</time></trkpt><trkpt lat="44.62404009111224" lon="6.250737484992209"><ele>1540.0</ele><time>2026-04-26T08:20:24Z</time></trkpt><trkpt lat="44.62400272346815" lon="6.2508098798402765"><ele>1541.0</ele><time>2026-04-26T08:20:26Z</time></trkpt><trkpt lat="44.623963294109615" lon="6.250887343220933"><ele>1542.0000000000002</ele><time>2026-04-26T08:20:28Z</time></trkpt><trkpt lat="44.623910874402526" lon="6.250994731090674"><ele>1543.0</ele><time>2026-04-26T08:20:31Z</time></trkpt><trkpt lat="44.62387863733772" lon="6.251117576979664"><ele>1543.0000000000002</ele><time>2026-04-26T08:20:34Z</time></trkpt><trkpt lat="44.623884197888906" lon="6.251244439865613"><ele>1543.0</ele><time>2026-04-26T08:20:37Z</time></trkpt><trkpt lat="44.623893381324294" lon="6.251369727047402"><ele>1543.0</ele><time>2026-04-26T08:20:40Z</time></trkpt><trkpt lat="44.62391230313685" lon="6.251486298151284"><ele>1543.0</ele><time>2026-04-26T08:20:43Z</time></trkpt><trkpt lat="44.62394824292781" lon="6.251559410131216"><ele>1543.0000000000002</ele><time>2026-04-26T08:20:45Z</time></trkpt><trkpt lat="44.62402031798332" lon="6.251642967682601"><ele>1543.0</ele><time>2026-04-26T08:20:48Z</time></trkpt><trkpt lat="44.624107476709085" lon="6.251672636183898"><ele>1544.3333333333335</ele><time>2026-04-26T08:20:51Z</time></trkpt><trkpt lat="44.62418522144429" lon="6.251719725026451"><ele>1545.6666666666667</ele><time>2026-04-26T08:20:54Z</time></trkpt><trkpt lat="44.62426096834424" lon="6.251781768960348"><ele>1547.0</ele><time>2026-04-26T08:20:57Z</time></trkpt><trkpt lat="44.62433336075787" lon="6.251846494314895"><ele>1548.3333333333335</ele><time>2026-04-26T08:21:00Z</time></trkpt><trkpt lat="44.62440127943289" lon="6.25193169078291"><ele>1549.6666666666667</ele><time>2026-04-26T08:21:03Z</time></trkpt><trkpt lat="44.62446755937692" lon="6.252003539608885"><ele>1551.0</ele><time>2026-04-26T08:21:06Z</time></trkpt><trkpt lat="44.624529045112205" lon="6.252073844714701"><ele>1554.5</ele><time>2026-04-26T08:21:09Z</time></trkpt><trkpt lat="44.62461291529703" lon="6.252132898755469"><ele>1558.0</ele><time>2026-04-26T08:21:12Z</time></trkpt><trkpt lat="44.624687410545626" lon="6.252195714868201"><ele>1561.5</ele><time>2026-04-26T08:21:15Z</time></trkpt><trkpt lat="44.624767221524095" lon="6.252249496157859"><ele>1565.0</ele><time>2026-04-26T08:21:18Z</time></trkpt><trkpt lat="44.624825667876365" lon="6.25230074773463"><ele>1568.5</ele><time>2026-04-26T08:21:20Z</time></trkpt><trkpt lat="44.62490953371972" lon="6.2523381859293234"><ele>1572.0</ele><time>2026-04-26T08:21:23Z</time></trkpt><trkpt lat="44.62496991781535" lon="6.252367280898428"><ele>1572.0</ele><time>2026-04-26T08:21:25Z</time></trkpt><trkpt lat="44.625034218997364" lon="6.252390818694878"><ele>1572.0</ele><time>2026-04-26T08:21:27Z</time></trkpt><trkpt lat="44.625117653197066" lon="6.252437682596629"><ele>1572.0</ele><time>2026-04-26T08:21:30Z</time></trkpt><trkpt lat="44.625178628127614" lon="6.252462301143664"><ele>1572.0</ele><time>2026-04-26T08:21:32Z</time></trkpt><trkpt lat="44.625239630604135" lon="6.252488698146649"><ele>1572.0</ele><time>2026-04-26T08:21:34Z</time></trkpt><trkpt lat="44.62532916942918" lon="6.252519257772283"><ele>1572.0</ele><time>2026-04-26T08:21:37Z</time></trkpt><trkpt lat="44.625398876725754" lon="6.252601619985247"><ele>1572.7142857142858</ele><time>2026-04-26T08:21:40Z</time></trkpt><trkpt lat="44.62542992869897" lon="6.252680374320905"><ele>1573.4285714285716</ele><time>2026-04-26T08:21:42Z</time></trkpt><trkpt lat="44.625455491628465" lon="6.2528101815305615"><ele>1574.1428571428573</ele><time>2026-04-26T08:21:45Z</time></trkpt><trkpt lat="44.62548256119435" lon="6.2528911021100155"><ele>1574.857142857143</ele><time>2026-04-26T08:21:47Z</time></trkpt><trkpt lat="44.62550549929564" lon="6.252981564654068"><ele>1575.5714285714284</ele><time>2026-04-26T08:21:49Z</time></trkpt><trkpt lat="44.625524881229545" lon="6.253077103439062"><ele>1576.2857142857144</ele><time>2026-04-26T08:21:51Z</time></trkpt><trkpt lat="44.62555126216174" lon="6.253181937490138"><ele>1577.0</ele><time>2026-04-26T08:21:53Z</time></trkpt><trkpt lat="44.6255754205041" lon="6.25328517951756"><ele>1576.9999999999998</ele><time>2026-04-26T08:21:55Z</time></trkpt><trkpt lat="44.625601654099626" lon="6.253396213915352"><ele>1577.0</ele><time>2026-04-26T08:21:57Z</time></trkpt><trkpt lat="44.62562588401675" lon="6.253504826171042"><ele>1577.0</ele><time>2026-04-26T08:21:59Z</time></trkpt><trkpt lat="44.62564343123134" lon="6.253602921301545"><ele>1577.0</ele><time>2026-04-26T08:22:01Z</time></trkpt><trkpt lat="44.62566392837924" lon="6.253707359606144"><ele>1576.9999999999998</ele><time>2026-04-26T08:22:03Z</time></trkpt><trkpt lat="44.62568702853658" lon="6.25380773060028"><ele>1577.0</ele><time>2026-04-26T08:22:05Z</time></trkpt><trkpt lat="44.62570615727171" lon="6.25390556177115"><ele>1577.857142857143</ele><time>2026-04-26T08:22:07Z</time></trkpt><trkpt lat="44.625720864038236" lon="6.254017448763397"><ele>1578.7142857142856</ele><time>2026-04-26T08:22:09Z</time></trkpt><trkpt lat="44.6257369884182" lon="6.254103990788171"><ele>1579.5714285714284</ele><time>2026-04-26T08:22:11Z</time></trkpt><trkpt lat="44.62574667136001" lon="6.254202757263981"><ele>1580.4285714285716</ele><time>2026-04-26T08:22:13Z</time></trkpt><trkpt lat="44.62575759622581" lon="6.254302185941937"><ele>1581.2857142857142</ele><time>2026-04-26T08:22:15Z</time></trkpt><trkpt lat="44.625771361187724" lon="6.254406060389275"><ele>1582.142857142857</ele><time>2026-04-26T08:22:17Z</time></trkpt><trkpt lat="44.62576478750278" lon="6.2545093154393205"><ele>1583.0</ele><time>2026-04-26T08:22:19Z</time></trkpt><trkpt lat="44.62575946578233" lon="6.254613586840239"><ele>1582.9999999999998</ele><time>2026-04-26T08:22:21Z</time></trkpt><trkpt lat="44.625747700618085" lon="6.254717238127634"><ele>1583.0</ele><time>2026-04-26T08:22:23Z</time></trkpt><trkpt lat="44.625739607208764" lon="6.254836637732332"><ele>1583.0</ele><time>2026-04-26T08:22:25Z</time></trkpt><trkpt lat="44.625745125046244" lon="6.254940517131612"><ele>1583.0</ele><time>2026-04-26T08:22:27Z</time></trkpt><trkpt lat="44.62575176829554" lon="6.255048166491455"><ele>1582.9999999999998</ele><time>2026-04-26T08:22:29Z</time></trkpt><trkpt lat="44.62576711002895" lon="6.25515588363885"><ele>1583.0</ele><time>2026-04-26T08:22:31Z</time></trkpt><trkpt lat="44.625781572022674" lon="6.255260312927466"><ele>1582.8333333333333</ele><time>2026-04-26T08:22:33Z</time></trkpt><trkpt lat="44.62580039045802" lon="6.255359631731022"><ele>1582.6666666666665</ele><time>2026-04-26T08:22:35Z</time></trkpt><trkpt lat="44.62581020689305" lon="6.255461026958999"><ele>1582.5</ele><time>2026-04-26T08:22:37Z</time></trkpt><trkpt lat="44.62581899983685" lon="6.255557613686452"><ele>1582.3333333333335</ele><time>2026-04-26T08:22:39Z</time></trkpt><trkpt lat="44.62582052641084" lon="6.255670895047148"><ele>1582.1666666666667</ele><time>2026-04-26T08:22:41Z</time></trkpt><trkpt lat="44.62583912342359" lon="6.255811308543293"><ele>1582.0</ele><time>2026-04-26T08:22:44Z</time></trkpt><trkpt lat="44.62584802498018" lon="6.255910902137546"><ele>1581.5714285714287</ele><time>2026-04-26T08:22:46Z</time></trkpt><trkpt lat="44.625854463430414" lon="6.256012433759373"><ele>1581.142857142857</ele><time>2026-04-26T08:22:48Z</time></trkpt><trkpt lat="44.625866806548146" lon="6.256123591131308"><ele>1580.7142857142858</ele><time>2026-04-26T08:22:50Z</time></trkpt><trkpt lat="44.62587608408229" lon="6.256226189257668"><ele>1580.2857142857142</ele><time>2026-04-26T08:22:52Z</time></trkpt><trkpt lat="44.625891330925846" lon="6.256327321314771"><ele>1579.857142857143</ele><time>2026-04-26T08:22:54Z</time></trkpt><trkpt lat="44.625912592864715" lon="6.2564298194335795"><ele>1579.4285714285716</ele><time>2026-04-26T08:22:56Z</time></trkpt><trkpt lat="44.625937095501534" lon="6.256527093077443"><ele>1579.0</ele><time>2026-04-26T08:22:58Z</time></trkpt><trkpt lat="44.62596883238652" lon="6.256627379394448"><ele>1579.0000000000002</ele><time>2026-04-26T08:23:00Z</time></trkpt><trkpt lat="44.62600762983327" lon="6.256717486552216"><ele>1579.0</ele><time>2026-04-26T08:23:02Z</time></trkpt><trkpt lat="44.62604700626918" lon="6.256806623903024"><ele>1579.0</ele><time>2026-04-26T08:23:04Z</time></trkpt><trkpt lat="44.626091370677834" lon="6.256888038445695"><ele>1579.0</ele><time>2026-04-26T08:23:06Z</time></trkpt><trkpt lat="44.62613558446671" lon="6.256967334064081"><ele>1579.0</ele><time>2026-04-26T08:23:08Z</time></trkpt><trkpt lat="44.626179617887" lon="6.257043419618314"><ele>1579.0000000000002</ele><time>2026-04-26T08:23:10Z</time></trkpt><trkpt lat="44.62622328793475" lon="6.257121712123578"><ele>1579.0</ele><time>2026-04-26T08:23:12Z</time></trkpt><trkpt lat="44.626269572668036" lon="6.257199805236795"><ele>1581.5714285714287</ele><time>2026-04-26T08:23:14Z</time></trkpt><trkpt lat="44.62631638063705" lon="6.257284409535868"><ele>1584.142857142857</ele><time>2026-04-26T08:23:16Z</time></trkpt><trkpt lat="44.62636171264316" lon="6.257367206580254"><ele>1586.7142857142858</ele><time>2026-04-26T08:23:18Z</time></trkpt><trkpt lat="44.626404334812" lon="6.257453552254062"><ele>1589.2857142857142</ele><time>2026-04-26T08:23:20Z</time></trkpt><trkpt lat="44.62644553824421" lon="6.257544008571049"><ele>1591.857142857143</ele><time>2026-04-26T08:23:22Z</time></trkpt><trkpt lat="44.62648552999918" lon="6.257630925943307"><ele>1594.4285714285716</ele><time>2026-04-26T08:23:24Z</time></trkpt><trkpt lat="44.62652501009454" lon="6.25771610730178"><ele>1597.0</ele><time>2026-04-26T08:23:26Z</time></trkpt><trkpt lat="44.62656604019372" lon="6.257797860978379"><ele>1597.0</ele><time>2026-04-26T08:23:28Z</time></trkpt><trkpt lat="44.62660656873866" lon="6.25788681327578"><ele>1597.0</ele><time>2026-04-26T08:23:30Z</time></trkpt><trkpt lat="44.62664287330068" lon="6.257969889884502"><ele>1597.0</ele><time>2026-04-26T08:23:32Z</time></trkpt><trkpt lat="44.626675224887165" lon="6.258047644904764"><ele>1597.0</ele><time>2026-04-26T08:23:34Z</time></trkpt><trkpt lat="44.626694708645104" lon="6.258140390951061"><ele>1597.0</ele><time>2026-04-26T08:23:36Z</time></trkpt><trkpt lat="44.62674193341528" lon="6.258251974235612"><ele>1597.0</ele><time>2026-04-26T08:23:39Z</time></trkpt><trkpt lat="44.62676757470802" lon="6.2583347787931105"><ele>1597.0</ele><time>2026-04-26T08:23:41Z</time></trkpt><trkpt lat="44.62679693630686" lon="6.258451539505608"><ele>1596.8333333333335</ele><time>2026-04-26T08:23:44Z</time></trkpt><trkpt lat="44.62682188046156" lon="6.258573470841204"><ele>1596.6666666666667</ele><time>2026-04-26T08:23:47Z</time></trkpt><trkpt lat="44.62683810357103" lon="6.258693400448459"><ele>1596.5</ele><time>2026-04-26T08:23:50Z</time></trkpt><trkpt lat="44.626859369641366" lon="6.25882105999212"><ele>1596.3333333333335</ele><time>2026-04-26T08:23:53Z</time></trkpt><trkpt lat="44.626871598686826" lon="6.258942853864059"><ele>1596.1666666666667</ele><time>2026-04-26T08:23:56Z</time></trkpt><trkpt lat="44.62686401380727" lon="6.259068365992211"><ele>1596.0</ele><time>2026-04-26T08:23:59Z</time></trkpt><trkpt lat="44.626863429985285" lon="6.259157078291729"><ele>1596.0</ele><time>2026-04-26T08:24:01Z</time></trkpt><trkpt lat="44.62686623086167" lon="6.259278894213332"><ele>1596.0</ele><time>2026-04-26T08:24:04Z</time></trkpt><trkpt lat="44.62686096541348" lon="6.2594106433449355"><ele>1596.0</ele><time>2026-04-26T08:24:07Z</time></trkpt><trkpt lat="44.62686240594953" lon="6.259539681428252"><ele>1596.0</ele><time>2026-04-26T08:24:10Z</time></trkpt><trkpt lat="44.62686529877947" lon="6.259668560390057"><ele>1596.0</ele><time>2026-04-26T08:24:13Z</time></trkpt><trkpt lat="44.626867706818246" lon="6.259756983664343"><ele>1596.0</ele><time>2026-04-26T08:24:15Z</time></trkpt><trkpt lat="44.62687200593442" lon="6.259889465721128"><ele>1597.0</ele><time>2026-04-26T08:24:18Z</time></trkpt><trkpt lat="44.62687486443571" lon="6.260018109351402"><ele>1598.0</ele><time>2026-04-26T08:24:21Z</time></trkpt><trkpt lat="44.62688777941537" lon="6.260117688607209"><ele>1599.0</ele><time>2026-04-26T08:24:23Z</time></trkpt><trkpt lat="44.62690102798152" lon="6.260210080502135"><ele>1600.0</ele><time>2026-04-26T08:24:25Z</time></trkpt><trkpt lat="44.626929086764534" lon="6.260293445091961"><ele>1601.0</ele><time>2026-04-26T08:24:27Z</time></trkpt><trkpt lat="44.62695951472482" lon="6.260372372984188"><ele>1602.0</ele><time>2026-04-26T08:24:29Z</time></trkpt><trkpt lat="44.626994889087996" lon="6.260454014108198"><ele>1603.0</ele><time>2026-04-26T08:24:31Z</time></trkpt><trkpt lat="44.6270422586571" lon="6.260526564559568"><ele>1604.4285714285713</ele><time>2026-04-26T08:24:33Z</time></trkpt><trkpt lat="44.627097542327924" lon="6.260588239408978"><ele>1605.857142857143</ele><time>2026-04-26T08:24:35Z</time></trkpt><trkpt lat="44.62714831449814" lon="6.260664077997857"><ele>1607.2857142857142</ele><time>2026-04-26T08:24:37Z</time></trkpt><trkpt lat="44.62719066803488" lon="6.26073996382573"><ele>1608.7142857142858</ele><time>2026-04-26T08:24:39Z</time></trkpt><trkpt lat="44.62721707095619" lon="6.260843609144781"><ele>1610.142857142857</ele><time>2026-04-26T08:24:41Z</time></trkpt><trkpt lat="44.627245899852184" lon="6.260937247722062"><ele>1611.5714285714284</ele><time>2026-04-26T08:24:43Z</time></trkpt><trkpt lat="44.62727823521992" lon="6.261029778716066"><ele>1613.0</ele><time>2026-04-26T08:24:45Z</time></trkpt><trkpt lat="44.62730395298439" lon="6.26111565566242"><ele>1612.9999999999998</ele><time>2026-04-26T08:24:47Z</time></trkpt><trkpt lat="44.62733715016734" lon="6.261208849010505"><ele>1613.0</ele><time>2026-04-26T08:24:49Z</time></trkpt><trkpt lat="44.627375676820535" lon="6.261304003173916"><ele>1613.0</ele><time>2026-04-26T08:24:51Z</time></trkpt><trkpt lat="44.627420843988475" lon="6.261385674000762"><ele>1613.0</ele><time>2026-04-26T08:24:53Z</time></trkpt><trkpt lat="44.62746429174199" lon="6.2614696970585735"><ele>1613.0</ele><time>2026-04-26T08:24:55Z</time></trkpt><trkpt lat="44.627511723228196" lon="6.261543972539216"><ele>1612.9999999999998</ele><time>2026-04-26T08:24:57Z</time></trkpt><trkpt lat="44.627556370302834" lon="6.261621241672133"><ele>1613.0</ele><time>2026-04-26T08:24:59Z</time></trkpt><trkpt lat="44.62759803719912" lon="6.261696474187247"><ele>1613.4999999999998</ele><time>2026-04-26T08:25:01Z</time></trkpt><trkpt lat="44.62763161549704" lon="6.261786396081786"><ele>1614.0</ele><time>2026-04-26T08:25:03Z</time></trkpt><trkpt lat="44.627654508253336" lon="6.2618820784476155"><ele>1614.5</ele><time>2026-04-26T08:25:05Z</time></trkpt><trkpt lat="44.62765851632236" lon="6.2619904682352985"><ele>1615.0</ele><time>2026-04-26T08:25:07Z</time></trkpt><trkpt lat="44.62764898741547" lon="6.2621052020717825"><ele>1615.4999999999998</ele><time>2026-04-26T08:25:09Z</time></trkpt><trkpt lat="44.62764680246332" lon="6.262225290779103"><ele>1616.0</ele><time>2026-04-26T08:25:11Z</time></trkpt><trkpt lat="44.62764478601109" lon="6.262344347106814"><ele>1616.857142857143</ele><time>2026-04-26T08:25:13Z</time></trkpt><trkpt lat="44.62765187204948" lon="6.262446632638839"><ele>1617.7142857142858</ele><time>2026-04-26T08:25:15Z</time></trkpt><trkpt lat="44.62765658719037" lon="6.262548909103748"><ele>1618.5714285714284</ele><time>2026-04-26T08:25:17Z</time></trkpt><trkpt lat="44.62766492074484" lon="6.2626459079624786"><ele>1619.4285714285716</ele><time>2026-04-26T08:25:19Z</time></trkpt><trkpt lat="44.6276935557844" lon="6.262732086004576"><ele>1620.2857142857144</ele><time>2026-04-26T08:25:21Z</time></trkpt><trkpt lat="44.62772453174268" lon="6.262815789527815"><ele>1621.142857142857</ele><time>2026-04-26T08:25:23Z</time></trkpt><trkpt lat="44.62777158090444" lon="6.262900250325994"><ele>1622.0</ele><time>2026-04-26T08:25:26Z</time></trkpt><trkpt lat="44.62775806913343" lon="6.26300715797268"><ele>1622.1666666666665</ele><time>2026-04-26T08:25:29Z</time></trkpt><trkpt lat="44.62772095079411" lon="6.26312845716152"><ele>1622.3333333333333</ele><time>2026-04-26T08:25:32Z</time></trkpt><trkpt lat="44.627669720380574" lon="6.2632026839947"><ele>1622.5</ele><time>2026-04-26T08:25:34Z</time></trkpt><trkpt lat="44.6276958024152" lon="6.2632908358090775"><ele>1622.6666666666665</ele><time>2026-04-26T08:25:36Z</time></trkpt><trkpt lat="44.62771814390157" lon="6.263401290475798"><ele>1622.8333333333333</ele><time>2026-04-26T08:25:39Z</time></trkpt><trkpt lat="44.62764929569241" lon="6.263526852310832"><ele>1623.0</ele><time>2026-04-26T08:25:41Z</time></trkpt><trkpt lat="44.62768147971262" lon="6.263642857000823"><ele>1623.0</ele><time>2026-04-26T08:25:43Z</time></trkpt><trkpt lat="44.62775804069718" lon="6.2637270871654716"><ele>1623.0</ele><time>2026-04-26T08:25:45Z</time></trkpt><trkpt lat="44.62778948440918" lon="6.263830814573553"><ele>1623.0</ele><time>2026-04-26T08:25:47Z</time></trkpt><trkpt lat="44.627818044296546" lon="6.26393509322482"><ele>1623.0</ele><time>2026-04-26T08:25:49Z</time></trkpt><trkpt lat="44.627819725887306" lon="6.2640547601460925"><ele>1623.0</ele><time>2026-04-26T08:25:51Z</time></trkpt><trkpt lat="44.627841699090204" lon="6.264159868596254"><ele>1623.0</ele><time>2026-04-26T08:25:53Z</time></trkpt><trkpt lat="44.627878710218084" lon="6.264270189431565"><ele>1624.6666666666667</ele><time>2026-04-26T08:25:55Z</time></trkpt><trkpt lat="44.62790939097517" lon="6.264366919829756"><ele>1626.3333333333335</ele><time>2026-04-26T08:25:57Z</time></trkpt><trkpt lat="44.62793499186649" lon="6.264470171286262"><ele>1628.0</ele><time>2026-04-26T08:26:00Z</time></trkpt><trkpt lat="44.627948616434296" lon="6.2645912488866085"><ele>1629.6666666666667</ele><time>2026-04-26T08:26:03Z</time></trkpt><trkpt lat="44.62795989408496" lon="6.2647320251084695"><ele>1631.3333333333335</ele><time>2026-04-26T08:26:06Z</time></trkpt><trkpt lat="44.62797552839982" lon="6.26482807848767"><ele>1633.0</ele><time>2026-04-26T08:26:08Z</time></trkpt><trkpt lat="44.627994932998256" lon="6.2649256830797935"><ele>1633.0000000000002</ele><time>2026-04-26T08:26:11Z</time></trkpt><trkpt lat="44.62799685624968" lon="6.265015023998459"><ele>1633.0</ele><time>2026-04-26T08:26:31Z</time></trkpt><trkpt lat="44.62797649498296" lon="6.265105788109702"><ele>1633.0</ele><time>2026-04-26T08:26:40Z</time></trkpt><trkpt lat="44.62797665834525" lon="6.2652081755227265"><ele>1633.0</ele><time>2026-04-26T08:26:47Z</time></trkpt><trkpt lat="44.62800101163593" lon="6.265300576381102"><ele>1633.0000000000002</ele><time>2026-04-26T08:26:52Z</time></trkpt><trkpt lat="44.62802319904487" lon="6.265418884450506"><ele>1633.0</ele><time>2026-04-26T08:26:55Z</time></trkpt><trkpt lat="44.62797944983116" lon="6.265529135803185"><ele>1633.3333333333335</ele><time>2026-04-26T08:26:58Z</time></trkpt><trkpt lat="44.62795255554321" lon="6.265641647225812"><ele>1633.6666666666667</ele><time>2026-04-26T08:27:01Z</time></trkpt><trkpt lat="44.627927327998044" lon="6.265773635608219"><ele>1634.0</ele><time>2026-04-26T08:27:04Z</time></trkpt><trkpt lat="44.6279282748982" lon="6.265878657349497"><ele>1634.3333333333335</ele><time>2026-04-26T08:27:06Z</time></trkpt><trkpt lat="44.62796448931127" lon="6.265973646372028"><ele>1634.6666666666667</ele><time>2026-04-26T08:27:09Z</time></trkpt><trkpt lat="44.62796794961037" lon="6.266084577713563"><ele>1635.0</ele><time>2026-04-26T08:27:12Z</time></trkpt><trkpt lat="44.627940048581195" lon="6.266191676535869"><ele>1635.0000000000002</ele><time>2026-04-26T08:27:15Z</time></trkpt><trkpt lat="44.627906116050184" lon="6.266289462076962"><ele>1635.0</ele><time>2026-04-26T08:27:18Z</time></trkpt><trkpt lat="44.62786395228313" lon="6.2663833551547565"><ele>1635.0</ele><time>2026-04-26T08:27:21Z</time></trkpt><trkpt lat="44.627839591779384" lon="6.266475930462015"><ele>1635.0</ele><time>2026-04-26T08:27:24Z</time></trkpt><trkpt lat="44.627782054706735" lon="6.266546974802869"><ele>1635.0</ele><time>2026-04-26T08:27:29Z</time></trkpt><trkpt lat="44.62773913740037" lon="6.266627402134432"><ele>1635.0000000000002</ele><time>2026-04-26T08:27:34Z</time></trkpt><trkpt lat="44.627782894243374" lon="6.266554762441166"><ele>1635.0</ele><time>2026-04-26T08:28:11Z</time></trkpt><trkpt lat="44.627825406968476" lon="6.266464670532579"><ele>1635.0000000000002</ele><time>2026-04-26T08:28:15Z</time></trkpt><trkpt lat="44.627861035434826" lon="6.266389536443886"><ele>1635.0</ele><time>2026-04-26T08:28:17Z</time></trkpt><trkpt lat="44.62790125981119" lon="6.266299092200897"><ele>1635.0</ele><time>2026-04-26T08:28:19Z</time></trkpt><trkpt lat="44.62793704788891" lon="6.266204434025938"><ele>1635.0</ele><time>2026-04-26T08:28:21Z</time></trkpt><trkpt lat="44.62796459504373" lon="6.266101100652888"><ele>1635.0</ele><time>2026-04-26T08:28:23Z</time></trkpt><trkpt lat="44.62797102244139" lon="6.266003030770504"><ele>1635.0000000000002</ele><time>2026-04-26T08:28:25Z</time></trkpt><trkpt lat="44.62793314713654" lon="6.26590232770943"><ele>1635.0</ele><time>2026-04-26T08:28:27Z</time></trkpt><trkpt lat="44.62790546721401" lon="6.26581955322265"><ele>1635.0</ele><time>2026-04-26T08:28:29Z</time></trkpt><trkpt lat="44.62792495584551" lon="6.265712681886479"><ele>1635.0</ele><time>2026-04-26T08:28:32Z</time></trkpt><trkpt lat="44.62795894516958" lon="6.265614308631149"><ele>1635.0</ele><time>2026-04-26T08:28:34Z</time></trkpt><trkpt lat="44.62798612834098" lon="6.265494641867805"><ele>1635.0</ele><time>2026-04-26T08:28:37Z</time></trkpt><trkpt lat="44.62800348654726" lon="6.265396503149726"><ele>1635.0</ele><time>2026-04-26T08:28:39Z</time></trkpt><trkpt lat="44.62800668220161" lon="6.265299072051756"><ele>1635.0</ele><time>2026-04-26T08:28:41Z</time></trkpt><trkpt lat="44.627978434161044" lon="6.265213218290651"><ele>1634.6666666666667</ele><time>2026-04-26T08:28:45Z</time></trkpt><trkpt lat="44.62808754061278" lon="6.265145068385471"><ele>1634.3333333333335</ele><time>2026-04-26T08:28:48Z</time></trkpt><trkpt lat="44.62810151523345" lon="6.2650521436412845"><ele>1634.0</ele><time>2026-04-26T08:28:54Z</time></trkpt><trkpt lat="44.62812248258835" lon="6.26495615415079"><ele>1633.6666666666667</ele><time>2026-04-26T08:29:02Z</time></trkpt><trkpt lat="44.62811219241575" lon="6.264850826527147"><ele>1633.3333333333335</ele><time>2026-04-26T08:30:01Z</time></trkpt><trkpt lat="44.62801009415594" lon="6.264828140894498"><ele>1633.0</ele><time>2026-04-26T08:30:03Z</time></trkpt><trkpt lat="44.62799351179421" lon="6.26472923568788"><ele>1633.6666666666667</ele><time>2026-04-26T08:30:06Z</time></trkpt><trkpt lat="44.627984602742174" lon="6.264631484633853"><ele>1634.3333333333335</ele><time>2026-04-26T08:30:08Z</time></trkpt><trkpt lat="44.627975136008786" lon="6.264518404735485"><ele>1635.0</ele><time>2026-04-26T08:30:10Z</time></trkpt><trkpt lat="44.62794199050008" lon="6.264417763771172"><ele>1635.6666666666665</ele><time>2026-04-26T08:30:12Z</time></trkpt><trkpt lat="44.627924346672444" lon="6.264296595536183"><ele>1636.3333333333333</ele><time>2026-04-26T08:30:15Z</time></trkpt><trkpt lat="44.62788985148526" lon="6.264193773325686"><ele>1637.0</ele><time>2026-04-26T08:30:17Z</time></trkpt><trkpt lat="44.62785657958265" lon="6.264078061458521"><ele>1637.25</ele><time>2026-04-26T08:30:19Z</time></trkpt><trkpt lat="44.62783563807919" lon="6.263934017944677"><ele>1637.5</ele><time>2026-04-26T08:30:21Z</time></trkpt><trkpt lat="44.62780283141286" lon="6.263765580095642"><ele>1637.75</ele><time>2026-04-26T08:30:23Z</time></trkpt><trkpt lat="44.62771738101784" lon="6.2636290732833615"><ele>1638.0</ele><time>2026-04-26T08:30:25Z</time></trkpt><trkpt lat="44.6276725301334" lon="6.263498399902961"><ele>1635.5</ele><time>2026-04-26T08:30:27Z</time></trkpt><trkpt lat="44.62773514377026" lon="6.263418624870783"><ele>1633.0</ele><time>2026-04-26T08:30:28Z</time></trkpt><trkpt lat="44.6277298095504" lon="6.263292277707458"><ele>1630.5</ele><time>2026-04-26T08:30:30Z</time></trkpt><trkpt lat="44.6277027687917" lon="6.263191702023476"><ele>1628.0</ele><time>2026-04-26T08:30:33Z</time></trkpt><trkpt lat="44.62775292777373" lon="6.263127990807831"><ele>1625.5</ele><time>2026-04-26T08:30:35Z</time></trkpt><trkpt lat="44.6277884760815" lon="6.263003933743107"><ele>1623.0</ele><time>2026-04-26T08:30:38Z</time></trkpt><trkpt lat="44.62779286574253" lon="6.262905012313468"><ele>1622.8333333333333</ele><time>2026-04-26T08:30:40Z</time></trkpt><trkpt lat="44.62774746291677" lon="6.262764213759545"><ele>1622.6666666666665</ele><time>2026-04-26T08:30:44Z</time></trkpt><trkpt lat="44.62770866370477" lon="6.262672785048811"><ele>1622.5</ele><time>2026-04-26T08:30:47Z</time></trkpt><trkpt lat="44.62768456024284" lon="6.262563087345602"><ele>1622.3333333333333</ele><time>2026-04-26T08:30:50Z</time></trkpt><trkpt lat="44.62767570458999" lon="6.262463957665618"><ele>1622.1666666666665</ele><time>2026-04-26T08:30:52Z</time></trkpt><trkpt lat="44.62767216278487" lon="6.262354860982021"><ele>1622.0</ele><time>2026-04-26T08:30:54Z</time></trkpt><trkpt lat="44.6276557183106" lon="6.2622279540686225"><ele>1620.8</ele><time>2026-04-26T08:30:56Z</time></trkpt><trkpt lat="44.627677801077944" lon="6.262090281498045"><ele>1619.6</ele><time>2026-04-26T08:30:58Z</time></trkpt><trkpt lat="44.62768587131112" lon="6.261933538893197"><ele>1618.3999999999999</ele><time>2026-04-26T08:31:00Z</time></trkpt><trkpt lat="44.62767030939755" lon="6.26178990474011"><ele>1617.1999999999998</ele><time>2026-04-26T08:31:02Z</time></trkpt><trkpt lat="44.62762698051606" lon="6.261678841479385"><ele>1616.0</ele><time>2026-04-26T08:31:04Z</time></trkpt><trkpt lat="44.62758284916958" lon="6.261593598833247"><ele>1616.0</ele><time>2026-04-26T08:31:06Z</time></trkpt><trkpt lat="44.62752177522187" lon="6.2614806500811975"><ele>1616.0</ele><time>2026-04-26T08:31:08Z</time></trkpt><trkpt lat="44.62745299235016" lon="6.261351657194355"><ele>1616.0</ele><time>2026-04-26T08:31:10Z</time></trkpt><trkpt lat="44.62738199069981" lon="6.261208377823818"><ele>1616.0</ele><time>2026-04-26T08:31:12Z</time></trkpt><trkpt lat="44.62734429992231" lon="6.261127599215907"><ele>1616.0</ele><time>2026-04-26T08:31:13Z</time></trkpt><trkpt lat="44.627314073387176" lon="6.261039537958774"><ele>1615.4999999999998</ele><time>2026-04-26T08:31:14Z</time></trkpt><trkpt lat="44.627267134940226" lon="6.26094974311811"><ele>1615.0</ele><time>2026-04-26T08:31:15Z</time></trkpt><trkpt lat="44.627239421092995" lon="6.260852592873938"><ele>1614.5</ele><time>2026-04-26T08:31:16Z</time></trkpt><trkpt lat="44.62720120615585" lon="6.260740313807049"><ele>1614.0</ele><time>2026-04-26T08:31:17Z</time></trkpt><trkpt lat="44.62716023968588" lon="6.260628187404079"><ele>1613.4999999999998</ele><time>2026-04-26T08:31:18Z</time></trkpt><trkpt lat="44.62710785591438" lon="6.260541908624971"><ele>1613.0</ele><time>2026-04-26T08:31:19Z</time></trkpt><trkpt lat="44.62704154237458" lon="6.26046975028516"><ele>1613.0</ele><time>2026-04-26T08:31:20Z</time></trkpt><trkpt lat="44.62699635748676" lon="6.260361478978094"><ele>1613.0</ele><time>2026-04-26T08:31:21Z</time></trkpt><trkpt lat="44.626938960251834" lon="6.260275856148408"><ele>1613.0</ele><time>2026-04-26T08:31:22Z</time></trkpt><trkpt lat="44.626905152927456" lon="6.260159150249247"><ele>1613.0</ele><time>2026-04-26T08:31:23Z</time></trkpt><trkpt lat="44.626879583256965" lon="6.260028992658708"><ele>1613.0</ele><time>2026-04-26T08:31:24Z</time></trkpt><trkpt lat="44.626884011375864" lon="6.2598920311936475"><ele>1609.6000000000001</ele><time>2026-04-26T08:31:25Z</time></trkpt><trkpt lat="44.62688065607207" lon="6.259745692326432"><ele>1606.2</ele><time>2026-04-26T08:31:26Z</time></trkpt><trkpt lat="44.626870396244456" lon="6.2596021116536775"><ele>1602.8</ele><time>2026-04-26T08:31:27Z</time></trkpt><trkpt lat="44.626868075387264" lon="6.259453841935369"><ele>1599.4</ele><time>2026-04-26T08:31:28Z</time></trkpt><trkpt lat="44.626871498636966" lon="6.25930687517873"><ele>1596.0</ele><time>2026-04-26T08:31:29Z</time></trkpt><trkpt lat="44.62687339418634" lon="6.259157530124115"><ele>1596.0</ele><time>2026-04-26T08:31:30Z</time></trkpt><trkpt lat="44.62687513781674" lon="6.2589997162819495"><ele>1596.0</ele><time>2026-04-26T08:31:31Z</time></trkpt><trkpt lat="44.62688316490657" lon="6.2588524504390675"><ele>1596.0</ele><time>2026-04-26T08:31:32Z</time></trkpt><trkpt lat="44.62687259980749" lon="6.2587019383645535"><ele>1596.0</ele><time>2026-04-26T08:31:33Z</time></trkpt><trkpt lat="44.62685179699244" lon="6.2585665210154655"><ele>1596.0</ele><time>2026-04-26T08:31:34Z</time></trkpt><trkpt lat="44.62682620735405" lon="6.25843227980303"><ele>1596.1999999999998</ele><time>2026-04-26T08:31:35Z</time></trkpt><trkpt lat="44.62679412240886" lon="6.258306613082324"><ele>1596.3999999999999</ele><time>2026-04-26T08:31:36Z</time></trkpt><trkpt lat="44.626749844265014" lon="6.258179508992219"><ele>1596.6</ele><time>2026-04-26T08:31:37Z</time></trkpt><trkpt lat="44.62669265859832" lon="6.258055959139376"><ele>1596.8</ele><time>2026-04-26T08:31:38Z</time></trkpt><trkpt lat="44.626645899461046" lon="6.257918622325598"><ele>1597.0</ele><time>2026-04-26T08:31:39Z</time></trkpt><trkpt lat="44.6265833688614" lon="6.257796897975056"><ele>1597.0</ele><time>2026-04-26T08:31:40Z</time></trkpt><trkpt lat="44.6265275768379" lon="6.257665838084095"><ele>1597.0</ele><time>2026-04-26T08:31:41Z</time></trkpt><trkpt lat="44.62646864013243" lon="6.257541432472437"><ele>1597.0</ele><time>2026-04-26T08:31:42Z</time></trkpt><trkpt lat="44.62640677546734" lon="6.257415277687214"><ele>1597.0</ele><time>2026-04-26T08:31:43Z</time></trkpt><trkpt lat="44.626345366736864" lon="6.257294448254907"><ele>1597.0</ele><time>2026-04-26T08:31:44Z</time></trkpt><trkpt lat="44.62628344025824" lon="6.25718087880752"><ele>1598.6</ele><time>2026-04-26T08:31:45Z</time></trkpt><trkpt lat="44.62622365365946" lon="6.257078033475844"><ele>1600.1999999999998</ele><time>2026-04-26T08:31:46Z</time></trkpt><trkpt lat="44.62617572784592" lon="6.25697002240854"><ele>1601.8</ele><time>2026-04-26T08:31:47Z</time></trkpt><trkpt lat="44.62612461344772" lon="6.256872909288052"><ele>1603.4</ele><time>2026-04-26T08:31:48Z</time></trkpt><trkpt lat="44.62608361009854" lon="6.256794441467446"><ele>1605.0</ele><time>2026-04-26T08:31:49Z</time></trkpt><trkpt lat="44.62601942769856" lon="6.256659732343022"><ele>1601.2857142857144</ele><time>2026-04-26T08:31:51Z</time></trkpt><trkpt lat="44.625979764258034" lon="6.2565678585127795"><ele>1597.5714285714284</ele><time>2026-04-26T08:31:52Z</time></trkpt><trkpt lat="44.625951361269706" lon="6.256471904814333"><ele>1593.857142857143</ele><time>2026-04-26T08:31:53Z</time></trkpt><trkpt lat="44.62592921529609" lon="6.256388310046798"><ele>1590.1428571428573</ele><time>2026-04-26T08:31:54Z</time></trkpt><trkpt lat="44.62590856287862" lon="6.2562857799606855"><ele>1586.4285714285716</ele><time>2026-04-26T08:31:55Z</time></trkpt><trkpt lat="44.625893664253454" lon="6.256175839596662"><ele>1582.7142857142858</ele><time>2026-04-26T08:31:56Z</time></trkpt><trkpt lat="44.62588825141233" lon="6.256064560110176"><ele>1579.0</ele><time>2026-04-26T08:31:57Z</time></trkpt><trkpt lat="44.625870464414575" lon="6.255954774843746"><ele>1579.0</ele><time>2026-04-26T08:31:58Z</time></trkpt><trkpt lat="44.62585528460929" lon="6.255834078906203"><ele>1579.0</ele><time>2026-04-26T08:31:59Z</time></trkpt><trkpt lat="44.625844937713616" lon="6.255712643915853"><ele>1579.0</ele><time>2026-04-26T08:32:00Z</time></trkpt><trkpt lat="44.62583173414174" lon="6.255587420291207"><ele>1579.0</ele><time>2026-04-26T08:32:01Z</time></trkpt><trkpt lat="44.62583294119724" lon="6.255451807603494"><ele>1579.0</ele><time>2026-04-26T08:32:02Z</time></trkpt><trkpt lat="44.62579911286954" lon="6.255317849981755"><ele>1579.6</ele><time>2026-04-26T08:32:03Z</time></trkpt><trkpt lat="44.62579917262583" lon="6.255185062900442"><ele>1580.2</ele><time>2026-04-26T08:32:04Z</time></trkpt><trkpt lat="44.6257810737075" lon="6.255042095766666"><ele>1580.8</ele><time>2026-04-26T08:32:05Z</time></trkpt><trkpt lat="44.625768475600935" lon="6.254909924071799"><ele>1581.3999999999999</ele><time>2026-04-26T08:32:06Z</time></trkpt><trkpt lat="44.625765495765904" lon="6.254769267051191"><ele>1582.0</ele><time>2026-04-26T08:32:07Z</time></trkpt><trkpt lat="44.62577373389003" lon="6.2546332279923105"><ele>1582.1999999999998</ele><time>2026-04-26T08:32:08Z</time></trkpt><trkpt lat="44.62576445990599" lon="6.254489347823027"><ele>1582.4</ele><time>2026-04-26T08:32:09Z</time></trkpt><trkpt lat="44.625772766756576" lon="6.2543506083765"><ele>1582.6</ele><time>2026-04-26T08:32:10Z</time></trkpt><trkpt lat="44.62578047697888" lon="6.254213511779131"><ele>1582.8000000000002</ele><time>2026-04-26T08:32:11Z</time></trkpt><trkpt lat="44.62574495539054" lon="6.254077662427181"><ele>1583.0</ele><time>2026-04-26T08:32:12Z</time></trkpt><trkpt lat="44.62571501954929" lon="6.253930018046473"><ele>1581.8000000000002</ele><time>2026-04-26T08:32:13Z</time></trkpt><trkpt lat="44.62569642217655" lon="6.253807666415977"><ele>1580.6</ele><time>2026-04-26T08:32:14Z</time></trkpt><trkpt lat="44.62566426919632" lon="6.253686125002139"><ele>1579.4</ele><time>2026-04-26T08:32:15Z</time></trkpt><trkpt lat="44.625638154889735" lon="6.253557186588951"><ele>1578.1999999999998</ele><time>2026-04-26T08:32:16Z</time></trkpt><trkpt lat="44.62560918985269" lon="6.253431628326909"><ele>1577.0</ele><time>2026-04-26T08:32:17Z</time></trkpt><trkpt lat="44.62559242203889" lon="6.253307670072243"><ele>1577.0</ele><time>2026-04-26T08:32:18Z</time></trkpt><trkpt lat="44.625563610009" lon="6.253210630758533"><ele>1577.0</ele><time>2026-04-26T08:32:19Z</time></trkpt><trkpt lat="44.62553872591746" lon="6.253115039786508"><ele>1577.0</ele><time>2026-04-26T08:32:20Z</time></trkpt><trkpt lat="44.625515821467204" lon="6.253010112479181"><ele>1577.0</ele><time>2026-04-26T08:32:21Z</time></trkpt><trkpt lat="44.625495454619106" lon="6.252909515866337"><ele>1577.0</ele><time>2026-04-26T08:32:22Z</time></trkpt><trkpt lat="44.62547138672683" lon="6.252821041602478"><ele>1577.0</ele><time>2026-04-26T08:32:23Z</time></trkpt><trkpt lat="44.62544933200979" lon="6.252731242987343"><ele>1577.0</ele><time>2026-04-26T08:32:24Z</time></trkpt><trkpt lat="44.62543881185947" lon="6.252637256811965"><ele>1576.0</ele><time>2026-04-26T08:32:25Z</time></trkpt><trkpt lat="44.625377081345704" lon="6.252535309823799"><ele>1575.0</ele><time>2026-04-26T08:32:27Z</time></trkpt><trkpt lat="44.62528350232175" lon="6.252427510885818"><ele>1574.0</ele><time>2026-04-26T08:32:29Z</time></trkpt><trkpt lat="44.62519767908813" lon="6.25242930143746"><ele>1573.0</ele><time>2026-04-26T08:32:30Z</time></trkpt><trkpt lat="44.62509647462395" lon="6.252382735485395"><ele>1572.0</ele><time>2026-04-26T08:32:32Z</time></trkpt><trkpt lat="44.624996203656394" lon="6.252358105678287"><ele>1572.0</ele><time>2026-04-26T08:32:34Z</time></trkpt><trkpt lat="44.624890150306925" lon="6.252303125554163"><ele>1572.0</ele><time>2026-04-26T08:32:36Z</time></trkpt><trkpt lat="44.62483292553442" lon="6.252252972194188"><ele>1572.0</ele><time>2026-04-26T08:32:37Z</time></trkpt><trkpt lat="44.62471235361369" lon="6.25219623748971"><ele>1572.0</ele><time>2026-04-26T08:32:39Z</time></trkpt><trkpt lat="44.62461268105162" lon="6.252102280714002"><ele>1572.0</ele><time>2026-04-26T08:32:41Z</time></trkpt><trkpt lat="44.62451008720807" lon="6.252008104955983"><ele>1569.0000000000002</ele><time>2026-04-26T08:32:43Z</time></trkpt><trkpt lat="44.62445697340589" lon="6.251941465591438"><ele>1566.0</ele><time>2026-04-26T08:32:44Z</time></trkpt><trkpt lat="44.624392475381164" lon="6.251889212747318"><ele>1563.0</ele><time>2026-04-26T08:32:45Z</time></trkpt><trkpt lat="44.62434535370828" lon="6.251808237164097"><ele>1560.0</ele><time>2026-04-26T08:32:46Z</time></trkpt><trkpt lat="44.62427547699032" lon="6.251756675799924"><ele>1557.0</ele><time>2026-04-26T08:32:47Z</time></trkpt><trkpt lat="44.624217945127185" lon="6.2517016231085885"><ele>1554.0000000000002</ele><time>2026-04-26T08:32:48Z</time></trkpt><trkpt lat="44.62415813785652" lon="6.2516554658577865"><ele>1551.0</ele><time>2026-04-26T08:32:49Z</time></trkpt><trkpt lat="44.62409846521411" lon="6.251625207506088"><ele>1551.0</ele><time>2026-04-26T08:32:50Z</time></trkpt><trkpt lat="44.624036676536406" lon="6.251601816021716"><ele>1551.0</ele><time>2026-04-26T08:32:51Z</time></trkpt><trkpt lat="44.623963984778946" lon="6.251537550938412"><ele>1551.0</ele><time>2026-04-26T08:32:53Z</time></trkpt><trkpt lat="44.623914562966846" lon="6.251448709165154"><ele>1551.0</ele><time>2026-04-26T08:32:55Z</time></trkpt><trkpt lat="44.62391496671797" lon="6.251283116338609"><ele>1551.0</ele><time>2026-04-26T08:32:57Z</time></trkpt><trkpt lat="44.62391104166986" lon="6.25119251838951"><ele>1551.0</ele><time>2026-04-26T08:32:58Z</time></trkpt><trkpt lat="44.62391748748731" lon="6.2510287503174675"><ele>1549.857142857143</ele><time>2026-04-26T08:33:00Z</time></trkpt><trkpt lat="44.62397110464912" lon="6.250941351250861"><ele>1548.7142857142858</ele><time>2026-04-26T08:33:02Z</time></trkpt><trkpt lat="44.62400851276241" lon="6.2508607924822615"><ele>1547.5714285714284</ele><time>2026-04-26T08:33:03Z</time></trkpt><trkpt lat="44.62404544042998" lon="6.25078232114213"><ele>1546.4285714285716</ele><time>2026-04-26T08:33:04Z</time></trkpt><trkpt lat="44.62407796721373" lon="6.250698065424403"><ele>1545.2857142857142</ele><time>2026-04-26T08:33:05Z</time></trkpt><trkpt lat="44.62410837072055" lon="6.250595475850083"><ele>1544.142857142857</ele><time>2026-04-26T08:33:06Z</time></trkpt><trkpt lat="44.62412619154522" lon="6.250489929072888"><ele>1543.0</ele><time>2026-04-26T08:33:07Z</time></trkpt><trkpt lat="44.62413011494222" lon="6.250398002371512"><ele>1542.0000000000002</ele><time>2026-04-26T08:33:08Z</time></trkpt><trkpt lat="44.62414671593897" lon="6.250286612903045"><ele>1541.0</ele><time>2026-04-26T08:33:09Z</time></trkpt><trkpt lat="44.624165175423926" lon="6.250177017277196"><ele>1540.0</ele><time>2026-04-26T08:33:10Z</time></trkpt><trkpt lat="44.624186759357976" lon="6.250075303973825"><ele>1539.0</ele><time>2026-04-26T08:33:11Z</time></trkpt><trkpt lat="44.62420430752638" lon="6.249976901747255"><ele>1538.0000000000002</ele><time>2026-04-26T08:33:12Z</time></trkpt><trkpt lat="44.624213015430655" lon="6.249864200903365"><ele>1537.0</ele><time>2026-04-26T08:33:14Z</time></trkpt><trkpt lat="44.62414807547719" lon="6.249816390136072"><ele>1537.8</ele><time>2026-04-26T08:33:15Z</time></trkpt><trkpt lat="44.62409590491412" lon="6.2497398760793414"><ele>1538.6</ele><time>2026-04-26T08:33:17Z</time></trkpt><trkpt lat="44.62402001326384" lon="6.249644897588175"><ele>1539.3999999999999</ele><time>2026-04-26T08:33:19Z</time></trkpt><trkpt lat="44.6239438269389" lon="6.249551046212196"><ele>1540.1999999999998</ele><time>2026-04-26T08:33:21Z</time></trkpt><trkpt lat="44.62386893267465" lon="6.249456395118686"><ele>1541.0</ele><time>2026-04-26T08:33:23Z</time></trkpt><trkpt lat="44.62380201446908" lon="6.249352299365502"><ele>1540.9999999999998</ele><time>2026-04-26T08:33:25Z</time></trkpt><trkpt lat="44.6237617957258" lon="6.249223732075017"><ele>1541.0</ele><time>2026-04-26T08:33:27Z</time></trkpt><trkpt lat="44.62374133650139" lon="6.24913670325914"><ele>1541.0</ele><time>2026-04-26T08:33:28Z</time></trkpt><trkpt lat="44.623690386576406" lon="6.249000568585026"><ele>1541.0</ele><time>2026-04-26T08:33:30Z</time></trkpt><trkpt lat="44.62373070040641" lon="6.2488986983885235"><ele>1540.9999999999998</ele><time>2026-04-26T08:33:31Z</time></trkpt><trkpt lat="44.62373693569283" lon="6.248796653842061"><ele>1541.0</ele><time>2026-04-26T08:33:32Z</time></trkpt><trkpt lat="44.623748063637066" lon="6.248688812438223"><ele>1543.4</ele><time>2026-04-26T08:33:33Z</time></trkpt><trkpt lat="44.62375962383325" lon="6.248568939296063"><ele>1545.8</ele><time>2026-04-26T08:33:34Z</time></trkpt><trkpt lat="44.62376410772713" lon="6.2484365897434975"><ele>1548.2</ele><time>2026-04-26T08:33:35Z</time></trkpt><trkpt lat="44.62374055766562" lon="6.248314824742055"><ele>1550.6000000000001</ele><time>2026-04-26T08:33:36Z</time></trkpt><trkpt lat="44.62372503091383" lon="6.2481762693645715"><ele>1553.0</ele><time>2026-04-26T08:33:37Z</time></trkpt><trkpt lat="44.62371071278583" lon="6.248056539087183"><ele>1554.8333333333333</ele><time>2026-04-26T08:33:38Z</time></trkpt><trkpt lat="44.623688636039965" lon="6.247945876551061"><ele>1556.6666666666665</ele><time>2026-04-26T08:33:39Z</time></trkpt><trkpt lat="44.62366731253982" lon="6.2478236156703595"><ele>1558.5</ele><time>2026-04-26T08:33:40Z</time></trkpt><trkpt lat="44.623644791484715" lon="6.2477132298494515"><ele>1560.3333333333335</ele><time>2026-04-26T08:33:41Z</time></trkpt><trkpt lat="44.62363092723898" lon="6.247596120852808"><ele>1562.1666666666667</ele><time>2026-04-26T08:33:42Z</time></trkpt><trkpt lat="44.623613513730575" lon="6.247475524066926"><ele>1564.0</ele><time>2026-04-26T08:33:43Z</time></trkpt><trkpt lat="44.62361024717776" lon="6.2473582826698975"><ele>1555.0000000000002</ele><time>2026-04-26T08:33:44Z</time></trkpt><trkpt lat="44.623593429588055" lon="6.2472576057205575"><ele>1546.0</ele><time>2026-04-26T08:33:45Z</time></trkpt><trkpt lat="44.62357811560546" lon="6.247161482824762"><ele>1537.0</ele><time>2026-04-26T08:33:46Z</time></trkpt><trkpt lat="44.62353842187996" lon="6.2470577215725545"><ele>1528.0</ele><time>2026-04-26T08:33:47Z</time></trkpt><trkpt lat="44.623498547490115" lon="6.246964108210063"><ele>1519.0</ele><time>2026-04-26T08:33:48Z</time></trkpt><trkpt lat="44.62347809066306" lon="6.246856714487001"><ele>1510.0</ele><time>2026-04-26T08:33:49Z</time></trkpt><trkpt lat="44.62345007983309" lon="6.246752965701083"><ele>1510.0</ele><time>2026-04-26T08:33:50Z</time></trkpt><trkpt lat="44.62344161699573" lon="6.246649350261805"><ele>1510.0</ele><time>2026-04-26T08:33:51Z</time></trkpt><trkpt lat="44.62340736363407" lon="6.24653941581676"><ele>1510.0</ele><time>2026-04-26T08:33:52Z</time></trkpt><trkpt lat="44.62337565805292" lon="6.246429738520625"><ele>1510.0</ele><time>2026-04-26T08:33:53Z</time></trkpt><trkpt lat="44.62336154936103" lon="6.2463387418956575"><ele>1510.0</ele><time>2026-04-26T08:33:54Z</time></trkpt><trkpt lat="44.62334152442802" lon="6.246244982834617"><ele>1510.0</ele><time>2026-04-26T08:33:55Z</time></trkpt><trkpt lat="44.623326522413336" lon="6.246148882445111"><ele>1509.2</ele><time>2026-04-26T08:33:56Z</time></trkpt><trkpt lat="44.62332055256684" lon="6.246057362361984"><ele>1508.4</ele><time>2026-04-26T08:33:57Z</time></trkpt><trkpt lat="44.62334028675814" lon="6.245892809125291"><ele>1507.6</ele><time>2026-04-26T08:33:59Z</time></trkpt><trkpt lat="44.62339355745688" lon="6.2457257821142615"><ele>1506.8</ele><time>2026-04-26T08:34:01Z</time></trkpt><trkpt lat="44.623417629559995" lon="6.245632504800714"><ele>1506.0</ele><time>2026-04-26T08:34:02Z</time></trkpt><trkpt lat="44.62342069752455" lon="6.245534369530499"><ele>1505.6666666666667</ele><time>2026-04-26T08:34:03Z</time></trkpt><trkpt lat="44.62343585115379" lon="6.245437953447559"><ele>1505.3333333333333</ele><time>2026-04-26T08:34:04Z</time></trkpt><trkpt lat="44.62343932346806" lon="6.245343096596043"><ele>1505.0</ele><time>2026-04-26T08:34:05Z</time></trkpt><trkpt lat="44.62344498489383" lon="6.245254916999538"><ele>1504.6666666666665</ele><time>2026-04-26T08:34:06Z</time></trkpt><trkpt lat="44.62343554049962" lon="6.2451585782810835"><ele>1504.3333333333333</ele><time>2026-04-26T08:34:07Z</time></trkpt><trkpt lat="44.62343507060117" lon="6.244985591931887"><ele>1504.0</ele><time>2026-04-26T08:34:09Z</time></trkpt><trkpt lat="44.62342472961903" lon="6.244815989482626"><ele>1503.2</ele><time>2026-04-26T08:34:11Z</time></trkpt><trkpt lat="44.6234182808339" lon="6.244657204805825"><ele>1502.4</ele><time>2026-04-26T08:34:13Z</time></trkpt><trkpt lat="44.62341158846614" lon="6.2445146961091895"><ele>1501.6</ele><time>2026-04-26T08:34:15Z</time></trkpt><trkpt lat="44.62343827022866" lon="6.244363185639021"><ele>1500.8</ele><time>2026-04-26T08:34:17Z</time></trkpt><trkpt lat="44.62349335440116" lon="6.244228132714594"><ele>1500.0</ele><time>2026-04-26T08:34:19Z</time></trkpt><trkpt lat="44.623539289132225" lon="6.24409100740269"><ele>1500.0</ele><time>2026-04-26T08:34:21Z</time></trkpt><trkpt lat="44.62360278246396" lon="6.243981927443555"><ele>1500.0</ele><time>2026-04-26T08:34:23Z</time></trkpt><trkpt lat="44.6236807064395" lon="6.243864859047095"><ele>1500.0</ele><time>2026-04-26T08:34:25Z</time></trkpt><trkpt lat="44.62374501069617" lon="6.2437356679924605"><ele>1500.0</ele><time>2026-04-26T08:34:27Z</time></trkpt><trkpt lat="44.62382493764856" lon="6.2436122835029355"><ele>1500.0</ele><time>2026-04-26T08:34:29Z</time></trkpt><trkpt lat="44.623866937969666" lon="6.243455339057242"><ele>1503.5</ele><time>2026-04-26T08:34:31Z</time></trkpt><trkpt lat="44.623890137405986" lon="6.243303257298117"><ele>1507.0</ele><time>2026-04-26T08:34:33Z</time></trkpt><trkpt lat="44.62393515713307" lon="6.243149416218123"><ele>1510.5</ele><time>2026-04-26T08:34:35Z</time></trkpt><trkpt lat="44.62398068134707" lon="6.243000055269164"><ele>1514.0</ele><time>2026-04-26T08:34:37Z</time></trkpt><trkpt lat="44.624022882368514" lon="6.242845706543729"><ele>1514.0</ele><time>2026-04-26T08:34:39Z</time></trkpt><trkpt lat="44.6240432083723" lon="6.242761553680737"><ele>1514.0</ele><time>2026-04-26T08:34:40Z</time></trkpt><trkpt lat="44.62407596930101" lon="6.242608527302386"><ele>1514.0</ele><time>2026-04-26T08:34:42Z</time></trkpt><trkpt lat="44.62411935528129" lon="6.242455581816778"><ele>1514.0</ele><time>2026-04-26T08:34:44Z</time></trkpt><trkpt lat="44.624148173594406" lon="6.2423008387040895"><ele>1514.0</ele><time>2026-04-26T08:34:46Z</time></trkpt><trkpt lat="44.62419197162406" lon="6.242161664450324"><ele>1511.6</ele><time>2026-04-26T08:34:48Z</time></trkpt><trkpt lat="44.62422608421699" lon="6.242020103760185"><ele>1509.2</ele><time>2026-04-26T08:34:50Z</time></trkpt><trkpt lat="44.62426825626661" lon="6.241882208481589"><ele>1506.8</ele><time>2026-04-26T08:34:52Z</time></trkpt><trkpt lat="44.62432621472386" lon="6.241763748365868"><ele>1504.3999999999999</ele><time>2026-04-26T08:34:54Z</time></trkpt><trkpt lat="44.624384765056924" lon="6.241635267018852"><ele>1502.0</ele><time>2026-04-26T08:34:56Z</time></trkpt><trkpt lat="44.62445820766493" lon="6.241515910381322"><ele>1500.0</ele><time>2026-04-26T08:34:58Z</time></trkpt><trkpt lat="44.624469721844406" lon="6.2413535690519675"><ele>1498.0</ele><time>2026-04-26T08:35:00Z</time></trkpt><trkpt lat="44.62445714058755" lon="6.241206470483382"><ele>1496.0</ele><time>2026-04-26T08:35:02Z</time></trkpt><trkpt lat="44.62443962539558" lon="6.2410485560346345"><ele>1494.0</ele><time>2026-04-26T08:35:04Z</time></trkpt><trkpt lat="44.624404263988204" lon="6.240910627217086"><ele>1492.0</ele><time>2026-04-26T08:35:06Z</time></trkpt><trkpt lat="44.62440817429461" lon="6.240770357268086"><ele>1492.0</ele><time>2026-04-26T08:35:08Z</time></trkpt><trkpt lat="44.624462689907666" lon="6.240634973815012"><ele>1492.0</ele><time>2026-04-26T08:35:10Z</time></trkpt><trkpt lat="44.624507283827406" lon="6.240497001770788"><ele>1492.0</ele><time>2026-04-26T08:35:12Z</time></trkpt><trkpt lat="44.62456262842126" lon="6.240363024194573"><ele>1492.0</ele><time>2026-04-26T08:35:14Z</time></trkpt><trkpt lat="44.6246220851387" lon="6.240219743123953"><ele>1492.0</ele><time>2026-04-26T08:35:16Z</time></trkpt><trkpt lat="44.62467873550567" lon="6.240067434726846"><ele>1496.5714285714287</ele><time>2026-04-26T08:35:18Z</time></trkpt><trkpt lat="44.624705777174476" lon="6.2399823799671275"><ele>1501.1428571428573</ele><time>2026-04-26T08:35:19Z</time></trkpt><trkpt lat="44.62472029937958" lon="6.239894558676612"><ele>1505.7142857142858</ele><time>2026-04-26T08:35:20Z</time></trkpt><trkpt lat="44.62471508045269" lon="6.239791948646696"><ele>1510.2857142857142</ele><time>2026-04-26T08:35:21Z</time></trkpt><trkpt lat="44.624695691997246" lon="6.239694866207527"><ele>1514.857142857143</ele><time>2026-04-26T08:35:22Z</time></trkpt><trkpt lat="44.62466627185259" lon="6.2396012594925665"><ele>1519.4285714285713</ele><time>2026-04-26T08:35:23Z</time></trkpt><trkpt lat="44.62462728569939" lon="6.239517466829624"><ele>1524.0</ele><time>2026-04-26T08:35:24Z</time></trkpt><trkpt lat="44.624585340149736" lon="6.23944320787048"><ele>1524.0</ele><time>2026-04-26T08:35:25Z</time></trkpt><trkpt lat="44.62454593447071" lon="6.239259645183953"><ele>1524.0</ele><time>2026-04-26T08:35:27Z</time></trkpt><trkpt lat="44.624505954374385" lon="6.239175870925951"><ele>1524.0</ele><time>2026-04-26T08:35:28Z</time></trkpt><trkpt lat="44.62447440289014" lon="6.239098768713902"><ele>1524.0</ele><time>2026-04-26T08:35:29Z</time></trkpt><trkpt lat="44.62444059788606" lon="6.238911118684517"><ele>1524.0</ele><time>2026-04-26T08:35:31Z</time></trkpt><trkpt lat="44.624424729625275" lon="6.238801237000698"><ele>1518.6666666666667</ele><time>2026-04-26T08:35:32Z</time></trkpt><trkpt lat="44.62441675037369" lon="6.238690220224559"><ele>1513.3333333333333</ele><time>2026-04-26T08:35:33Z</time></trkpt><trkpt lat="44.62440324340768" lon="6.238589703148203"><ele>1508.0</ele><time>2026-04-26T08:35:34Z</time></trkpt><trkpt lat="44.624383541240576" lon="6.238499694827069"><ele>1502.6666666666665</ele><time>2026-04-26T08:35:35Z</time></trkpt><trkpt lat="44.624342828875896" lon="6.238328919197608"><ele>1497.3333333333333</ele><time>2026-04-26T08:35:37Z</time></trkpt><trkpt lat="44.62430116180729" lon="6.238256169567577"><ele>1492.0</ele><time>2026-04-26T08:35:38Z</time></trkpt><trkpt lat="44.62424999582246" lon="6.238193472229644"><ele>1492.2857142857142</ele><time>2026-04-26T08:35:39Z</time></trkpt><trkpt lat="44.62420381155347" lon="6.2381206284674855"><ele>1492.5714285714287</ele><time>2026-04-26T08:35:40Z</time></trkpt><trkpt lat="44.624151909131605" lon="6.238046375304217"><ele>1492.8571428571427</ele><time>2026-04-26T08:35:41Z</time></trkpt><trkpt lat="44.624097130405225" lon="6.237972601318899"><ele>1493.142857142857</ele><time>2026-04-26T08:35:42Z</time></trkpt><trkpt lat="44.62404469723537" lon="6.237900346921878"><ele>1493.4285714285713</ele><time>2026-04-26T08:35:43Z</time></trkpt><trkpt lat="44.62399345833296" lon="6.23783252078475"><ele>1493.7142857142856</ele><time>2026-04-26T08:35:44Z</time></trkpt><trkpt lat="44.62395071140381" lon="6.237764674857952"><ele>1494.0</ele><time>2026-04-26T08:35:45Z</time></trkpt><trkpt lat="44.623909768553176" lon="6.237697276457146"><ele>1494.0</ele><time>2026-04-26T08:35:46Z</time></trkpt><trkpt lat="44.623879905968856" lon="6.2376077312001135"><ele>1494.0</ele><time>2026-04-26T08:35:47Z</time></trkpt><trkpt lat="44.62384931744408" lon="6.237529315929354"><ele>1494.0</ele><time>2026-04-26T08:35:48Z</time></trkpt><trkpt lat="44.62381539121479" lon="6.237384158856866"><ele>1494.0</ele><time>2026-04-26T08:35:50Z</time></trkpt><trkpt lat="44.6238195906557" lon="6.2372480459891975"><ele>1494.0</ele><time>2026-04-26T08:35:52Z</time></trkpt><trkpt lat="44.62387954166489" lon="6.237114502855497"><ele>1494.2</ele><time>2026-04-26T08:35:54Z</time></trkpt><trkpt lat="44.62394515159871" lon="6.237088595648304"><ele>1494.4</ele><time>2026-04-26T08:35:55Z</time></trkpt><trkpt lat="44.62405394436305" lon="6.237022325061914"><ele>1494.6</ele><time>2026-04-26T08:35:57Z</time></trkpt><trkpt lat="44.624111892467944" lon="6.236986032237814"><ele>1494.8</ele><time>2026-04-26T08:35:58Z</time></trkpt><trkpt lat="44.6242302033186" lon="6.236940418351056"><ele>1495.0</ele><time>2026-04-26T08:36:00Z</time></trkpt><trkpt lat="44.62431613037417" lon="6.236918706633353"><ele>1495.0</ele><time>2026-04-26T08:36:02Z</time></trkpt><trkpt lat="44.62437127413802" lon="6.236855308394347"><ele>1495.0</ele><time>2026-04-26T08:36:04Z</time></trkpt><trkpt lat="44.62437844990987" lon="6.236744901677246"><ele>1495.0</ele><time>2026-04-26T08:36:06Z</time></trkpt><trkpt lat="44.624330890695404" lon="6.2366810498178875"><ele>1495.0</ele><time>2026-04-26T08:36:08Z</time></trkpt><trkpt lat="44.624258463128804" lon="6.236647260427563"><ele>1495.0</ele><time>2026-04-26T08:36:23Z</time></trkpt><trkpt lat="44.62416409556241" lon="6.236590471877638"><ele>1495.0</ele><time>2026-04-26T08:36:25Z</time></trkpt><trkpt lat="44.62405708059327" lon="6.23655345187866"><ele>1495.0</ele><time>2026-04-26T08:36:27Z</time></trkpt><trkpt lat="44.62394956493914" lon="6.236542172753117"><ele>1495.0</ele><time>2026-04-26T08:36:29Z</time></trkpt><trkpt lat="44.623887569713524" lon="6.236525332882512"><ele>1495.0</ele><time>2026-04-26T08:36:30Z</time></trkpt><trkpt lat="44.62382013841054" lon="6.236499856799959"><ele>1495.0</ele><time>2026-04-26T08:36:31Z</time></trkpt><trkpt lat="44.623735002720274" lon="6.2364257609888565"><ele>1495.0</ele><time>2026-04-26T08:36:33Z</time></trkpt><trkpt lat="44.62366626422716" lon="6.236403310823453"><ele>1495.0</ele><time>2026-04-26T08:36:34Z</time></trkpt><trkpt lat="44.62355119070263" lon="6.2363694643666205"><ele>1493.0</ele><time>2026-04-26T08:36:36Z</time></trkpt><trkpt lat="44.62348461288088" lon="6.23635307758917"><ele>1491.0</ele><time>2026-04-26T08:36:37Z</time></trkpt><trkpt lat="44.62336712411806" lon="6.236313758524181"><ele>1489.0</ele><time>2026-04-26T08:36:39Z</time></trkpt><trkpt lat="44.62327876941964" lon="6.236206529668719"><ele>1487.0</ele><time>2026-04-26T08:36:41Z</time></trkpt><trkpt lat="44.62323074285903" lon="6.2361392575020025"><ele>1485.0</ele><time>2026-04-26T08:36:42Z</time></trkpt><trkpt lat="44.62317878486649" lon="6.236081067342556"><ele>1483.0</ele><time>2026-04-26T08:36:43Z</time></trkpt><trkpt lat="44.623160780532636" lon="6.235983659852021"><ele>1483.0</ele><time>2026-04-26T08:36:44Z</time></trkpt><trkpt lat="44.623118827565015" lon="6.235901679981413"><ele>1483.0</ele><time>2026-04-26T08:36:45Z</time></trkpt><trkpt lat="44.623096171376616" lon="6.235817914475312"><ele>1483.0</ele><time>2026-04-26T08:36:46Z</time></trkpt><trkpt lat="44.623077616319264" lon="6.235716265477612"><ele>1483.0</ele><time>2026-04-26T08:36:47Z</time></trkpt><trkpt lat="44.62305751935332" lon="6.235617220900381"><ele>1483.0</ele><time>2026-04-26T08:36:48Z</time></trkpt><trkpt lat="44.623029966366026" lon="6.235517564812911"><ele>1483.0</ele><time>2026-04-26T08:36:49Z</time></trkpt><trkpt lat="44.62299089697708" lon="6.235428036603702"><ele>1483.0</ele><time>2026-04-26T08:36:50Z</time></trkpt><trkpt lat="44.622940392523205" lon="6.235351803765567"><ele>1483.857142857143</ele><time>2026-04-26T08:36:51Z</time></trkpt><trkpt lat="44.62288776848632" lon="6.235279554625953"><ele>1484.7142857142858</ele><time>2026-04-26T08:36:52Z</time></trkpt><trkpt lat="44.62283775996641" lon="6.235207302608204"><ele>1485.5714285714284</ele><time>2026-04-26T08:36:53Z</time></trkpt><trkpt lat="44.622799452813986" lon="6.235123274485773"><ele>1486.4285714285716</ele><time>2026-04-26T08:36:54Z</time></trkpt><trkpt lat="44.62276643878089" lon="6.235042061881346"><ele>1487.2857142857144</ele><time>2026-04-26T08:36:55Z</time></trkpt><trkpt lat="44.6227271275808" lon="6.234958984090063"><ele>1488.142857142857</ele><time>2026-04-26T08:36:56Z</time></trkpt><trkpt lat="44.622687715037706" lon="6.234868504139381"><ele>1489.0</ele><time>2026-04-26T08:36:57Z</time></trkpt><trkpt lat="44.62263148082185" lon="6.2347745439454245"><ele>1484.857142857143</ele><time>2026-04-26T08:36:58Z</time></trkpt><trkpt lat="44.622597678296856" lon="6.2346974718366726"><ele>1480.7142857142858</ele><time>2026-04-26T08:36:59Z</time></trkpt><trkpt lat="44.622557644402505" lon="6.234622083331299"><ele>1476.5714285714287</ele><time>2026-04-26T08:37:00Z</time></trkpt><trkpt lat="44.62251610175969" lon="6.234535690798475"><ele>1472.4285714285716</ele><time>2026-04-26T08:37:01Z</time></trkpt><trkpt lat="44.62248737139909" lon="6.234448759812133"><ele>1468.2857142857142</ele><time>2026-04-26T08:37:02Z</time></trkpt><trkpt lat="44.62246405115737" lon="6.234355115700018"><ele>1464.1428571428573</ele><time>2026-04-26T08:37:03Z</time></trkpt><trkpt lat="44.62244301824737" lon="6.23425617913475"><ele>1460.0</ele><time>2026-04-26T08:37:04Z</time></trkpt><trkpt lat="44.622439044189704" lon="6.234087477008152"><ele>1459.3333333333335</ele><time>2026-04-26T08:37:06Z</time></trkpt><trkpt lat="44.62247266172044" lon="6.233909625791619"><ele>1458.6666666666667</ele><time>2026-04-26T08:37:08Z</time></trkpt><trkpt lat="44.62248861609291" lon="6.233805264137829"><ele>1458.0</ele><time>2026-04-26T08:37:09Z</time></trkpt><trkpt lat="44.622489215497545" lon="6.2336942187899425"><ele>1457.3333333333333</ele><time>2026-04-26T08:37:10Z</time></trkpt><trkpt lat="44.62251925998623" lon="6.233593322120019"><ele>1456.6666666666665</ele><time>2026-04-26T08:37:11Z</time></trkpt><trkpt lat="44.62252851493789" lon="6.233477208407416"><ele>1456.0</ele><time>2026-04-26T08:37:12Z</time></trkpt><trkpt lat="44.62252565306478" lon="6.233364187898033"><ele>1456.0</ele><time>2026-04-26T08:37:13Z</time></trkpt><trkpt lat="44.62251192328272" lon="6.233267854028258"><ele>1456.0</ele><time>2026-04-26T08:37:14Z</time></trkpt><trkpt lat="44.62247563241915" lon="6.233164475068257"><ele>1456.0</ele><time>2026-04-26T08:37:15Z</time></trkpt><trkpt lat="44.622446311659324" lon="6.23306526525794"><ele>1456.0</ele><time>2026-04-26T08:37:16Z</time></trkpt><trkpt lat="44.622432006183175" lon="6.232966429447079"><ele>1456.0</ele><time>2026-04-26T08:37:17Z</time></trkpt><trkpt lat="44.62239221285613" lon="6.2328260204231665"><ele>1456.0</ele><time>2026-04-26T08:37:19Z</time></trkpt><trkpt lat="44.62236408503816" lon="6.232669332583544"><ele>1455.3333333333333</ele><time>2026-04-26T08:37:21Z</time></trkpt><trkpt lat="44.62238031305326" lon="6.232491373345219"><ele>1454.6666666666665</ele><time>2026-04-26T08:37:23Z</time></trkpt><trkpt lat="44.62239271443433" lon="6.232386426582575"><ele>1454.0</ele><time>2026-04-26T08:37:24Z</time></trkpt><trkpt lat="44.622409689338525" lon="6.2322759441631845"><ele>1453.3333333333333</ele><time>2026-04-26T08:37:25Z</time></trkpt><trkpt lat="44.62242527376776" lon="6.232176883914445"><ele>1452.6666666666667</ele><time>2026-04-26T08:37:26Z</time></trkpt><trkpt lat="44.622443766067384" lon="6.232066434056989"><ele>1452.0</ele><time>2026-04-26T08:37:27Z</time></trkpt><trkpt lat="44.622464891785235" lon="6.231949129216334"><ele>1450.8</ele><time>2026-04-26T08:37:28Z</time></trkpt><trkpt lat="44.622483196120356" lon="6.23185281232461"><ele>1449.6</ele><time>2026-04-26T08:37:29Z</time></trkpt><trkpt lat="44.62250418999468" lon="6.231744222695929"><ele>1448.3999999999999</ele><time>2026-04-26T08:37:30Z</time></trkpt><trkpt lat="44.62253740112593" lon="6.231583235396888"><ele>1447.1999999999998</ele><time>2026-04-26T08:37:32Z</time></trkpt><trkpt lat="44.62255737124819" lon="6.231494289335586"><ele>1446.0</ele><time>2026-04-26T08:37:33Z</time></trkpt><trkpt lat="44.622619961376394" lon="6.23134730813736"><ele>1446.5</ele><time>2026-04-26T08:37:35Z</time></trkpt><trkpt lat="44.622699609687686" lon="6.231236029115754"><ele>1447.0</ele><time>2026-04-26T08:37:37Z</time></trkpt><trkpt lat="44.62274090138341" lon="6.231155803174283"><ele>1447.5</ele><time>2026-04-26T08:37:38Z</time></trkpt><trkpt lat="44.62275641469394" lon="6.231043158974995"><ele>1448.0</ele><time>2026-04-26T08:37:39Z</time></trkpt><trkpt lat="44.62276676071096" lon="6.230938257896268"><ele>1448.5</ele><time>2026-04-26T08:37:40Z</time></trkpt><trkpt lat="44.62278317970054" lon="6.230840426656747"><ele>1449.0</ele><time>2026-04-26T08:37:41Z</time></trkpt><trkpt lat="44.62283563543361" lon="6.230681569837525"><ele>1446.6666666666667</ele><time>2026-04-26T08:37:43Z</time></trkpt><trkpt lat="44.622879648514456" lon="6.230591832159855"><ele>1444.3333333333333</ele><time>2026-04-26T08:37:44Z</time></trkpt><trkpt lat="44.62293155377789" lon="6.23052244995129"><ele>1442.0</ele><time>2026-04-26T08:37:45Z</time></trkpt><trkpt lat="44.62298984882126" lon="6.230440293296738"><ele>1439.6666666666665</ele><time>2026-04-26T08:37:46Z</time></trkpt><trkpt lat="44.62303385082489" lon="6.230369038351554"><ele>1437.3333333333333</ele><time>2026-04-26T08:37:47Z</time></trkpt><trkpt lat="44.62306830699464" lon="6.230252335528574"><ele>1435.0</ele><time>2026-04-26T08:37:48Z</time></trkpt><trkpt lat="44.6231224583451" lon="6.230177933864773"><ele>1435.0</ele><time>2026-04-26T08:37:49Z</time></trkpt><trkpt lat="44.62316679338284" lon="6.230080774994373"><ele>1435.0</ele><time>2026-04-26T08:37:50Z</time></trkpt><trkpt lat="44.62320853399156" lon="6.2299954342666295"><ele>1435.0</ele><time>2026-04-26T08:37:51Z</time></trkpt><trkpt lat="44.623258624751315" lon="6.229922190517316"><ele>1435.0</ele><time>2026-04-26T08:37:52Z</time></trkpt><trkpt lat="44.623313637493915" lon="6.229872375495673"><ele>1435.0</ele><time>2026-04-26T08:37:53Z</time></trkpt><trkpt lat="44.62338105002936" lon="6.229806661577232"><ele>1435.0</ele><time>2026-04-26T08:37:54Z</time></trkpt><trkpt lat="44.62344703988211" lon="6.229723319485451"><ele>1436.7142857142858</ele><time>2026-04-26T08:37:55Z</time></trkpt><trkpt lat="44.623503123865724" lon="6.229643061777714"><ele>1438.4285714285716</ele><time>2026-04-26T08:37:56Z</time></trkpt><trkpt lat="44.62355329122709" lon="6.229569021120501"><ele>1440.142857142857</ele><time>2026-04-26T08:37:57Z</time></trkpt><trkpt lat="44.62359892559377" lon="6.229501370838146"><ele>1441.857142857143</ele><time>2026-04-26T08:37:58Z</time></trkpt><trkpt lat="44.623642476147545" lon="6.2294368095664225"><ele>1443.5714285714287</ele><time>2026-04-26T08:37:59Z</time></trkpt><trkpt lat="44.62368040429868" lon="6.22936197447363"><ele>1445.2857142857142</ele><time>2026-04-26T08:38:00Z</time></trkpt><trkpt lat="44.62372999279863" lon="6.229285138825562"><ele>1447.0</ele><time>2026-04-26T08:38:01Z</time></trkpt><trkpt lat="44.62377762525398" lon="6.229202503686595"><ele>1447.0</ele><time>2026-04-26T08:38:02Z</time></trkpt><trkpt lat="44.62382792722208" lon="6.229111192660093"><ele>1447.0</ele><time>2026-04-26T08:38:03Z</time></trkpt><trkpt lat="44.62387050413574" lon="6.229017492072928"><ele>1447.0</ele><time>2026-04-26T08:38:04Z</time></trkpt><trkpt lat="44.62390779762866" lon="6.228915923258213"><ele>1447.0</ele><time>2026-04-26T08:38:05Z</time></trkpt><trkpt lat="44.623936906551" lon="6.228813822860666"><ele>1447.0</ele><time>2026-04-26T08:38:06Z</time></trkpt><trkpt lat="44.62395377970089" lon="6.228716362407648"><ele>1447.0</ele><time>2026-04-26T08:38:07Z</time></trkpt><trkpt lat="44.62395955715046" lon="6.228617738173003"><ele>1445.3333333333333</ele><time>2026-04-26T08:38:08Z</time></trkpt><trkpt lat="44.62395949100323" lon="6.228509553456677"><ele>1443.6666666666665</ele><time>2026-04-26T08:38:09Z</time></trkpt><trkpt lat="44.62394633806839" lon="6.2284005071919415"><ele>1442.0</ele><time>2026-04-26T08:38:10Z</time></trkpt><trkpt lat="44.62393131449517" lon="6.2283057051474575"><ele>1440.3333333333333</ele><time>2026-04-26T08:38:11Z</time></trkpt><trkpt lat="44.623911764994105" lon="6.228219329359639"><ele>1438.6666666666667</ele><time>2026-04-26T08:38:12Z</time></trkpt><trkpt lat="44.623867837922" lon="6.22807132961981"><ele>1437.0</ele><time>2026-04-26T08:38:14Z</time></trkpt><trkpt lat="44.623798931756156" lon="6.2279618576941225"><ele>1436.5</ele><time>2026-04-26T08:38:16Z</time></trkpt><trkpt lat="44.62372057596417" lon="6.227861565047633"><ele>1436.0</ele><time>2026-04-26T08:38:18Z</time></trkpt><trkpt lat="44.62366072228238" lon="6.227815543950195"><ele>1435.5</ele><time>2026-04-26T08:38:19Z</time></trkpt><trkpt lat="44.623595524475974" lon="6.227770349735208"><ele>1435.0</ele><time>2026-04-26T08:38:20Z</time></trkpt><trkpt lat="44.62348061880101" lon="6.22769472098788"><ele>1434.5</ele><time>2026-04-26T08:38:22Z</time></trkpt><trkpt lat="44.62341299970369" lon="6.2276631615567055"><ele>1434.0</ele><time>2026-04-26T08:38:23Z</time></trkpt><trkpt lat="44.623349788944665" lon="6.227635006732085"><ele>1431.0</ele><time>2026-04-26T08:38:24Z</time></trkpt><trkpt lat="44.62328259771034" lon="6.227605715780879"><ele>1428.0</ele><time>2026-04-26T08:38:25Z</time></trkpt><trkpt lat="44.62321210605466" lon="6.227600178704729"><ele>1425.0</ele><time>2026-04-26T08:38:26Z</time></trkpt><trkpt lat="44.62313336533837" lon="6.227614731323965"><ele>1422.0</ele><time>2026-04-26T08:38:27Z</time></trkpt><trkpt lat="44.62305728657891" lon="6.227650503654204"><ele>1419.0</ele><time>2026-04-26T08:38:28Z</time></trkpt><trkpt lat="44.62298176246138" lon="6.227707078818815"><ele>1416.0</ele><time>2026-04-26T08:38:29Z</time></trkpt><trkpt lat="44.62289790657087" lon="6.227743006901002"><ele>1416.0</ele><time>2026-04-26T08:38:30Z</time></trkpt><trkpt lat="44.62282807722925" lon="6.2277933125151055"><ele>1416.0</ele><time>2026-04-26T08:38:31Z</time></trkpt><trkpt lat="44.622760537874825" lon="6.227850512216597"><ele>1416.0</ele><time>2026-04-26T08:38:32Z</time></trkpt><trkpt lat="44.62269507724574" lon="6.227906624095464"><ele>1416.0</ele><time>2026-04-26T08:38:33Z</time></trkpt><trkpt lat="44.62262855006599" lon="6.227944630144189"><ele>1416.0</ele><time>2026-04-26T08:38:34Z</time></trkpt><trkpt lat="44.62256833853562" lon="6.227979668634228"><ele>1416.0</ele><time>2026-04-26T08:38:35Z</time></trkpt><trkpt lat="44.62248252140084" lon="6.228023019753753"><ele>1413.8333333333333</ele><time>2026-04-26T08:38:37Z</time></trkpt><trkpt lat="44.622382337793894" lon="6.228022884524276"><ele>1411.6666666666667</ele><time>2026-04-26T08:38:39Z</time></trkpt><trkpt lat="44.62229408400844" lon="6.227942320091928"><ele>1409.5</ele><time>2026-04-26T08:38:41Z</time></trkpt><trkpt lat="44.62226979835571" lon="6.227857289293863"><ele>1407.3333333333335</ele><time>2026-04-26T08:38:42Z</time></trkpt><trkpt lat="44.62223457352617" lon="6.227764181829284"><ele>1405.1666666666667</ele><time>2026-04-26T08:38:43Z</time></trkpt><trkpt lat="44.622246657457936" lon="6.2276422989822775"><ele>1403.0</ele><time>2026-04-26T08:38:44Z</time></trkpt><trkpt lat="44.622229372115584" lon="6.227539453196882"><ele>1403.0</ele><time>2026-04-26T08:38:45Z</time></trkpt><trkpt lat="44.62220804414527" lon="6.227427692018845"><ele>1403.0</ele><time>2026-04-26T08:38:46Z</time></trkpt><trkpt lat="44.62217269082231" lon="6.2273254736494685"><ele>1403.0</ele><time>2026-04-26T08:38:47Z</time></trkpt><trkpt lat="44.622154359705945" lon="6.227219071929049"><ele>1403.0</ele><time>2026-04-26T08:38:48Z</time></trkpt><trkpt lat="44.622133392410554" lon="6.227112797945078"><ele>1403.0</ele><time>2026-04-26T08:38:49Z</time></trkpt><trkpt lat="44.6221338033501" lon="6.227009147920701"><ele>1403.0</ele><time>2026-04-26T08:38:50Z</time></trkpt><trkpt lat="44.622119488596546" lon="6.2268985233542296"><ele>1403.0</ele><time>2026-04-26T08:38:51Z</time></trkpt><trkpt lat="44.622095852686336" lon="6.22679582931942"><ele>1403.0</ele><time>2026-04-26T08:38:52Z</time></trkpt><trkpt lat="44.622101753070154" lon="6.226688539828173"><ele>1403.0</ele><time>2026-04-26T08:38:53Z</time></trkpt><trkpt lat="44.622097357909595" lon="6.226588529705816"><ele>1403.0</ele><time>2026-04-26T08:38:54Z</time></trkpt><trkpt lat="44.622088038665005" lon="6.226476526258087"><ele>1403.0</ele><time>2026-04-26T08:38:55Z</time></trkpt><trkpt lat="44.62209297804131" lon="6.226374198682554"><ele>1403.0</ele><time>2026-04-26T08:38:56Z</time></trkpt><trkpt lat="44.62208524706991" lon="6.226267784018221"><ele>1402.0</ele><time>2026-04-26T08:38:57Z</time></trkpt><trkpt lat="44.6220629997344" lon="6.226169212185544"><ele>1401.0</ele><time>2026-04-26T08:38:58Z</time></trkpt><trkpt lat="44.62205936505823" lon="6.226080780094256"><ele>1400.0</ele><time>2026-04-26T08:38:59Z</time></trkpt><trkpt lat="44.62205771048346" lon="6.2259776464419545"><ele>1399.0</ele><time>2026-04-26T08:39:00Z</time></trkpt><trkpt lat="44.62204926001844" lon="6.225887919401537"><ele>1398.0</ele><time>2026-04-26T08:39:01Z</time></trkpt><trkpt lat="44.62204697612079" lon="6.225710765176317"><ele>1397.0</ele><time>2026-04-26T08:39:03Z</time></trkpt><trkpt lat="44.62206668525078" lon="6.225552469265756"><ele>1395.8</ele><time>2026-04-26T08:39:05Z</time></trkpt><trkpt lat="44.62207953895343" lon="6.2254037263676"><ele>1394.6</ele><time>2026-04-26T08:39:07Z</time></trkpt><trkpt lat="44.62208847466181" lon="6.225228751331902"><ele>1393.3999999999999</ele><time>2026-04-26T08:39:09Z</time></trkpt><trkpt lat="44.622097981169645" lon="6.225118986871855"><ele>1392.1999999999998</ele><time>2026-04-26T08:39:10Z</time></trkpt><trkpt lat="44.62210512083016" lon="6.224998192876648"><ele>1391.0</ele><time>2026-04-26T08:39:11Z</time></trkpt><trkpt lat="44.6221058168448" lon="6.224875434997723"><ele>1390.3333333333335</ele><time>2026-04-26T08:39:12Z</time></trkpt><trkpt lat="44.62209553908095" lon="6.224754829885948"><ele>1389.6666666666667</ele><time>2026-04-26T08:39:13Z</time></trkpt><trkpt lat="44.62207953914392" lon="6.2246316378237845"><ele>1389.0</ele><time>2026-04-26T08:39:14Z</time></trkpt><trkpt lat="44.62206730252721" lon="6.224510850795865"><ele>1388.3333333333333</ele><time>2026-04-26T08:39:15Z</time></trkpt><trkpt lat="44.62206013485662" lon="6.2243948841265215"><ele>1387.6666666666665</ele><time>2026-04-26T08:39:16Z</time></trkpt><trkpt lat="44.62205666890709" lon="6.224274602098455"><ele>1387.0</ele><time>2026-04-26T08:39:17Z</time></trkpt><trkpt lat="44.622054519993135" lon="6.224158045765519"><ele>1387.0</ele><time>2026-04-26T08:39:18Z</time></trkpt><trkpt lat="44.62205432007669" lon="6.2240405941045465"><ele>1387.0</ele><time>2026-04-26T08:39:19Z</time></trkpt><trkpt lat="44.622065025652674" lon="6.223922141115882"><ele>1387.0</ele><time>2026-04-26T08:39:20Z</time></trkpt><trkpt lat="44.62207541537287" lon="6.223806445687152"><ele>1387.0</ele><time>2026-04-26T08:39:21Z</time></trkpt><trkpt lat="44.62208349012121" lon="6.223687696409238"><ele>1387.0</ele><time>2026-04-26T08:39:22Z</time></trkpt><trkpt lat="44.62209293622221" lon="6.223568439850682"><ele>1387.0</ele><time>2026-04-26T08:39:23Z</time></trkpt><trkpt lat="44.62210757106007" lon="6.223447993709703"><ele>1386.6666666666665</ele><time>2026-04-26T08:39:24Z</time></trkpt><trkpt lat="44.62212260180034" lon="6.22332861651903"><ele>1386.3333333333333</ele><time>2026-04-26T08:39:25Z</time></trkpt><trkpt lat="44.622133257196225" lon="6.223208563403621"><ele>1386.0</ele><time>2026-04-26T08:39:26Z</time></trkpt><trkpt lat="44.62214290371408" lon="6.2230889775396445"><ele>1385.6666666666667</ele><time>2026-04-26T08:39:27Z</time></trkpt><trkpt lat="44.62215420531158" lon="6.222970053481999"><ele>1385.3333333333335</ele><time>2026-04-26T08:39:28Z</time></trkpt><trkpt lat="44.62216327308552" lon="6.2228505630007485"><ele>1385.0</ele><time>2026-04-26T08:39:29Z</time></trkpt><trkpt lat="44.6221680654162" lon="6.2227292461721335"><ele>1384.0</ele><time>2026-04-26T08:39:30Z</time></trkpt><trkpt lat="44.622171615834276" lon="6.222608038650937"><ele>1383.0</ele><time>2026-04-26T08:39:31Z</time></trkpt><trkpt lat="44.622175837958835" lon="6.222487317446276"><ele>1382.0</ele><time>2026-04-26T08:39:32Z</time></trkpt><trkpt lat="44.62217989451964" lon="6.222369598900959"><ele>1381.0</ele><time>2026-04-26T08:39:33Z</time></trkpt><trkpt lat="44.622180611281486" lon="6.222251383635201"><ele>1380.0</ele><time>2026-04-26T08:39:34Z</time></trkpt><trkpt lat="44.62218351823667" lon="6.22213581706774"><ele>1379.0</ele><time>2026-04-26T08:39:35Z</time></trkpt><trkpt lat="44.62218460347024" lon="6.222021362553431"><ele>1378.3333333333335</ele><time>2026-04-26T08:39:36Z</time></trkpt><trkpt lat="44.622185175435874" lon="6.221907115139914"><ele>1377.6666666666667</ele><time>2026-04-26T08:39:37Z</time></trkpt><trkpt lat="44.62219045436997" lon="6.221791232775475"><ele>1377.0</ele><time>2026-04-26T08:39:38Z</time></trkpt><trkpt lat="44.62219282752961" lon="6.221677781344754"><ele>1376.3333333333333</ele><time>2026-04-26T08:39:39Z</time></trkpt><trkpt lat="44.62218871855145" lon="6.2215656979777"><ele>1375.6666666666665</ele><time>2026-04-26T08:39:40Z</time></trkpt><trkpt lat="44.62218713446069" lon="6.221451844543744"><ele>1375.0</ele><time>2026-04-26T08:39:41Z</time></trkpt><trkpt lat="44.622188489881395" lon="6.221339134830341"><ele>1374.5</ele><time>2026-04-26T08:39:42Z</time></trkpt><trkpt lat="44.62218866734206" lon="6.221226331654707"><ele>1374.0</ele><time>2026-04-26T08:39:43Z</time></trkpt><trkpt lat="44.622187470063096" lon="6.22111259032791"><ele>1373.5</ele><time>2026-04-26T08:39:44Z</time></trkpt><trkpt lat="44.62219140876099" lon="6.22099926767053"><ele>1373.0</ele><time>2026-04-26T08:39:45Z</time></trkpt><trkpt lat="44.62219433196587" lon="6.220886625145029"><ele>1372.5</ele><time>2026-04-26T08:39:46Z</time></trkpt><trkpt lat="44.6221954047874" lon="6.220772854814401"><ele>1372.0</ele><time>2026-04-26T08:39:47Z</time></trkpt><trkpt lat="44.6222039515768" lon="6.220659459948034"><ele>1371.6666666666665</ele><time>2026-04-26T08:39:48Z</time></trkpt><trkpt lat="44.622214879032256" lon="6.220543904341368"><ele>1371.3333333333333</ele><time>2026-04-26T08:39:49Z</time></trkpt><trkpt lat="44.62223001066592" lon="6.220427132880887"><ele>1371.0</ele><time>2026-04-26T08:39:50Z</time></trkpt><trkpt lat="44.62225277634599" lon="6.220311738112697"><ele>1370.6666666666667</ele><time>2026-04-26T08:39:51Z</time></trkpt><trkpt lat="44.62227837200477" lon="6.220196225608138"><ele>1370.3333333333335</ele><time>2026-04-26T08:39:52Z</time></trkpt><trkpt lat="44.62229716433735" lon="6.22007942535342"><ele>1370.0</ele><time>2026-04-26T08:39:53Z</time></trkpt><trkpt lat="44.62230899601483" lon="6.219968194731117"><ele>1370.0</ele><time>2026-04-26T08:39:54Z</time></trkpt><trkpt lat="44.62233067564766" lon="6.219859413730551"><ele>1370.0</ele><time>2026-04-26T08:39:55Z</time></trkpt><trkpt lat="44.62234650487656" lon="6.219753082927387"><ele>1370.0</ele><time>2026-04-26T08:39:56Z</time></trkpt><trkpt lat="44.622377676638635" lon="6.21960943605329"><ele>1370.0</ele><time>2026-04-26T08:39:58Z</time></trkpt><trkpt lat="44.6224113815365" lon="6.219447549550021"><ele>1370.0</ele><time>2026-04-26T08:40:00Z</time></trkpt><trkpt lat="44.6224432844147" lon="6.219286070232554"><ele>1370.0</ele><time>2026-04-26T08:40:02Z</time></trkpt><trkpt lat="44.622468361705614" lon="6.21912138554535"><ele>1370.0</ele><time>2026-04-26T08:40:04Z</time></trkpt><trkpt lat="44.622504224119034" lon="6.218953195155621"><ele>1370.0</ele><time>2026-04-26T08:40:06Z</time></trkpt><trkpt lat="44.622552041420796" lon="6.2187944695493105"><ele>1370.0</ele><time>2026-04-26T08:40:08Z</time></trkpt><trkpt lat="44.62257502079283" lon="6.218626425432047"><ele>1369.4</ele><time>2026-04-26T08:40:10Z</time></trkpt><trkpt lat="44.622611159247114" lon="6.2184638293838095"><ele>1368.8</ele><time>2026-04-26T08:40:12Z</time></trkpt><trkpt lat="44.62264247016981" lon="6.218290898402581"><ele>1368.1999999999998</ele><time>2026-04-26T08:40:14Z</time></trkpt><trkpt lat="44.62266133945538" lon="6.218202640748989"><ele>1367.6</ele><time>2026-04-26T08:40:15Z</time></trkpt><trkpt lat="44.622680593231784" lon="6.218111369127377"><ele>1367.0</ele><time>2026-04-26T08:40:16Z</time></trkpt><trkpt lat="44.622703645113944" lon="6.218021044641359"><ele>1366.8333333333335</ele><time>2026-04-26T08:40:17Z</time></trkpt><trkpt lat="44.62273427521487" lon="6.2179326367929555"><ele>1366.6666666666667</ele><time>2026-04-26T08:40:18Z</time></trkpt><trkpt lat="44.622763577120125" lon="6.217845769055254"><ele>1366.5</ele><time>2026-04-26T08:40:19Z</time></trkpt><trkpt lat="44.6228138693069" lon="6.217767782619104"><ele>1366.3333333333333</ele><time>2026-04-26T08:40:20Z</time></trkpt><trkpt lat="44.62284898935554" lon="6.217679534447969"><ele>1366.1666666666665</ele><time>2026-04-26T08:40:21Z</time></trkpt><trkpt lat="44.622888904601865" lon="6.217544504188302"><ele>1366.0</ele><time>2026-04-26T08:40:23Z</time></trkpt><trkpt lat="44.62290763843066" lon="6.2174515475453935"><ele>1366.0</ele><time>2026-04-26T08:40:26Z</time></trkpt><trkpt lat="44.623033276693135" lon="6.217511644902761"><ele>1366.0</ele><time>2026-04-26T08:40:31Z</time></trkpt><trkpt lat="44.623097045757305" lon="6.217518080389261"><ele>1366.0</ele><time>2026-04-26T08:41:57Z</time></trkpt><trkpt lat="44.62317925275194" lon="6.217540608398737"><ele>1366.0</ele><time>2026-04-26T08:42:01Z</time></trkpt><trkpt lat="44.623258083331145" lon="6.217560573565487"><ele>1366.0</ele><time>2026-04-26T08:42:04Z</time></trkpt><trkpt lat="44.623344643424126" lon="6.2175717053915545"><ele>1366.0</ele><time>2026-04-26T08:42:07Z</time></trkpt><trkpt lat="44.62343173179585" lon="6.217592965111131"><ele>1366.0</ele><time>2026-04-26T08:42:10Z</time></trkpt><trkpt lat="44.62349207989246" lon="6.217621668726805"><ele>1366.0</ele><time>2026-04-26T08:42:12Z</time></trkpt><trkpt lat="44.623575095932395" lon="6.217643114642727"><ele>1366.0</ele><time>2026-04-26T08:42:15Z</time></trkpt><trkpt lat="44.62365864761166" lon="6.2176678432657075"><ele>1366.0</ele><time>2026-04-26T08:42:18Z</time></trkpt><trkpt lat="44.62372271252836" lon="6.217702825153703"><ele>1366.0</ele><time>2026-04-26T08:42:21Z</time></trkpt><trkpt lat="44.62380282403206" lon="6.2177014315486065"><ele>1366.0</ele><time>2026-04-26T08:42:24Z</time></trkpt><trkpt lat="44.623863328494195" lon="6.2176566241809335"><ele>1366.8333333333333</ele><time>2026-04-26T08:42:26Z</time></trkpt><trkpt lat="44.623938461598925" lon="6.217609285996877"><ele>1367.6666666666665</ele><time>2026-04-26T08:42:29Z</time></trkpt><trkpt lat="44.62402306212875" lon="6.217556399592768"><ele>1368.5</ele><time>2026-04-26T08:42:32Z</time></trkpt><trkpt lat="44.624107740225654" lon="6.217506339354482"><ele>1369.3333333333333</ele><time>2026-04-26T08:42:35Z</time></trkpt><trkpt lat="44.624170675969644" lon="6.217470468291896"><ele>1370.1666666666667</ele><time>2026-04-26T08:42:37Z</time></trkpt><trkpt lat="44.62422545131631" lon="6.217421611900029"><ele>1371.0</ele><time>2026-04-26T08:42:39Z</time></trkpt><trkpt lat="44.62428994225524" lon="6.217412894428741"><ele>1371.0</ele><time>2026-04-26T08:42:41Z</time></trkpt><trkpt lat="44.6243736412201" lon="6.217370268069786"><ele>1371.0</ele><time>2026-04-26T08:42:44Z</time></trkpt><trkpt lat="44.62443842973995" lon="6.217356360876176"><ele>1371.0</ele><time>2026-04-26T08:42:46Z</time></trkpt><trkpt lat="44.62451699788736" lon="6.217352090797682"><ele>1371.0</ele><time>2026-04-26T08:42:49Z</time></trkpt><trkpt lat="44.62458959157558" lon="6.217345387050297"><ele>1371.0</ele><time>2026-04-26T08:42:52Z</time></trkpt><trkpt lat="44.62467033646792" lon="6.217371209118736"><ele>1371.0</ele><time>2026-04-26T08:42:55Z</time></trkpt><trkpt lat="44.62474104949574" lon="6.217363605232534"><ele>1372.5714285714284</ele><time>2026-04-26T08:42:58Z</time></trkpt><trkpt lat="44.62480284176526" lon="6.217398302277998"><ele>1374.142857142857</ele><time>2026-04-26T08:43:01Z</time></trkpt><trkpt lat="44.62487688680033" lon="6.217401191156238"><ele>1375.7142857142858</ele><time>2026-04-26T08:43:04Z</time></trkpt><trkpt lat="44.62494977361583" lon="6.217443204581786"><ele>1377.2857142857142</ele><time>2026-04-26T08:43:08Z</time></trkpt><trkpt lat="44.6250144601103" lon="6.217475095355654"><ele>1378.857142857143</ele><time>2026-04-26T08:43:11Z</time></trkpt><trkpt lat="44.625089837823595" lon="6.217491395157944"><ele>1380.4285714285713</ele><time>2026-04-26T08:43:14Z</time></trkpt><trkpt lat="44.62515172917099" lon="6.217533515421082"><ele>1382.0</ele><time>2026-04-26T08:43:17Z</time></trkpt><trkpt lat="44.625221957069286" lon="6.217570410143588"><ele>1381.9999999999998</ele><time>2026-04-26T08:43:20Z</time></trkpt><trkpt lat="44.62527789473331" lon="6.217613105323022"><ele>1382.0</ele><time>2026-04-26T08:43:23Z</time></trkpt><trkpt lat="44.62532143643685" lon="6.217699804268778"><ele>1382.0</ele><time>2026-04-26T08:43:26Z</time></trkpt><trkpt lat="44.6253509056495" lon="6.2177868441626964"><ele>1382.0</ele><time>2026-04-26T08:43:29Z</time></trkpt><trkpt lat="44.62541794984638" lon="6.217830097857573"><ele>1382.0</ele><time>2026-04-26T08:43:32Z</time></trkpt><trkpt lat="44.625471815736105" lon="6.217882229906147"><ele>1381.9999999999998</ele><time>2026-04-26T08:43:35Z</time></trkpt><trkpt lat="44.62553059046872" lon="6.217942335105412"><ele>1382.0</ele><time>2026-04-26T08:43:39Z</time></trkpt><trkpt lat="44.62556234261771" lon="6.218024925399563"><ele>1386.0</ele><time>2026-04-26T08:43:42Z</time></trkpt><trkpt lat="44.625628035143464" lon="6.218066754495709"><ele>1390.0</ele><time>2026-04-26T08:43:46Z</time></trkpt><trkpt lat="44.625704047853986" lon="6.217986085932678"><ele>1394.0</ele><time>2026-04-26T08:43:50Z</time></trkpt><trkpt lat="44.62575761126136" lon="6.217931365527372"><ele>1398.0</ele><time>2026-04-26T08:43:54Z</time></trkpt><trkpt lat="44.62580471255925" lon="6.21800272319231"><ele>1402.0</ele><time>2026-04-26T08:43:57Z</time></trkpt><trkpt lat="44.62586452838918" lon="6.218084418586716"><ele>1406.0</ele><time>2026-04-26T08:44:01Z</time></trkpt><trkpt lat="44.6259169602992" lon="6.218151454070461"><ele>1406.4285714285713</ele><time>2026-04-26T08:44:05Z</time></trkpt><trkpt lat="44.625968276438996" lon="6.218207859284374"><ele>1406.857142857143</ele><time>2026-04-26T08:44:08Z</time></trkpt><trkpt lat="44.626027289736825" lon="6.21828261103855"><ele>1407.2857142857142</ele><time>2026-04-26T08:44:12Z</time></trkpt><trkpt lat="44.62608580402367" lon="6.218340983323987"><ele>1407.7142857142858</ele><time>2026-04-26T08:44:16Z</time></trkpt><trkpt lat="44.62611884135967" lon="6.218427658337182"><ele>1408.142857142857</ele><time>2026-04-26T08:44:21Z</time></trkpt><trkpt lat="44.62607308201662" lon="6.218492503964316"><ele>1408.5714285714287</ele><time>2026-04-26T08:44:26Z</time></trkpt><trkpt lat="44.626067820120596" lon="6.218382150599735"><ele>1409.0</ele><time>2026-04-26T08:45:09Z</time></trkpt><trkpt lat="44.6260656445652" lon="6.218279103512661"><ele>1409.0</ele><time>2026-04-26T08:45:15Z</time></trkpt><trkpt lat="44.62604578545048" lon="6.21816575935854"><ele>1409.0</ele><time>2026-04-26T08:45:19Z</time></trkpt><trkpt lat="44.62602577039205" lon="6.2180738254321986"><ele>1409.0</ele><time>2026-04-26T08:45:22Z</time></trkpt><trkpt lat="44.625990181286035" lon="6.2179895418203985"><ele>1409.0</ele><time>2026-04-26T08:45:25Z</time></trkpt><trkpt lat="44.625964902312234" lon="6.217876956599104"><ele>1409.0</ele><time>2026-04-26T08:45:28Z</time></trkpt><trkpt lat="44.625955193919495" lon="6.217773385809486"><ele>1409.0</ele><time>2026-04-26T08:45:31Z</time></trkpt><trkpt lat="44.625962565795405" lon="6.217683587449706"><ele>1409.0</ele><time>2026-04-26T08:45:33Z</time></trkpt><trkpt lat="44.625987186913996" lon="6.217563550945058"><ele>1408.5714285714287</ele><time>2026-04-26T08:45:36Z</time></trkpt><trkpt lat="44.6260060937204" lon="6.2174764623668235"><ele>1408.142857142857</ele><time>2026-04-26T08:45:38Z</time></trkpt><trkpt lat="44.626024113417145" lon="6.217387716033475"><ele>1407.7142857142858</ele><time>2026-04-26T08:45:40Z</time></trkpt><trkpt lat="44.62604269283144" lon="6.21729930694271"><ele>1407.2857142857142</ele><time>2026-04-26T08:45:42Z</time></trkpt><trkpt lat="44.6260660206086" lon="6.217214836729275"><ele>1406.857142857143</ele><time>2026-04-26T08:45:44Z</time></trkpt><trkpt lat="44.62608325372347" lon="6.217123675743416"><ele>1406.4285714285713</ele><time>2026-04-26T08:45:46Z</time></trkpt><trkpt lat="44.626103657173935" lon="6.217029779898755"><ele>1406.0</ele><time>2026-04-26T08:45:48Z</time></trkpt><trkpt lat="44.626123303644995" lon="6.2169386236812665"><ele>1405.0</ele><time>2026-04-26T08:45:50Z</time></trkpt><trkpt lat="44.62613854266724" lon="6.216843661393002"><ele>1404.0</ele><time>2026-04-26T08:45:52Z</time></trkpt><trkpt lat="44.62616456285486" lon="6.216758033972071"><ele>1403.0</ele><time>2026-04-26T08:45:54Z</time></trkpt><trkpt lat="44.6261919930246" lon="6.216670607036183"><ele>1402.0</ele><time>2026-04-26T08:45:56Z</time></trkpt><trkpt lat="44.62620336822316" lon="6.2165791151083125"><ele>1401.0</ele><time>2026-04-26T08:45:58Z</time></trkpt><trkpt lat="44.626224004083845" lon="6.216487747802461"><ele>1400.0</ele><time>2026-04-26T08:46:00Z</time></trkpt><trkpt lat="44.62623418805541" lon="6.216394797431516"><ele>1399.0</ele><time>2026-04-26T08:46:02Z</time></trkpt><trkpt lat="44.62624106498856" lon="6.216299317611523"><ele>1402.1666666666665</ele><time>2026-04-26T08:46:04Z</time></trkpt><trkpt lat="44.6262542202007" lon="6.216201893892832"><ele>1405.3333333333333</ele><time>2026-04-26T08:46:06Z</time></trkpt><trkpt lat="44.62626875875898" lon="6.216110378668273"><ele>1408.5</ele><time>2026-04-26T08:46:08Z</time></trkpt><trkpt lat="44.62627438953553" lon="6.215977251207858"><ele>1411.6666666666667</ele><time>2026-04-26T08:46:11Z</time></trkpt><trkpt lat="44.62628988871329" lon="6.215886906104795"><ele>1414.8333333333335</ele><time>2026-04-26T08:46:13Z</time></trkpt><trkpt lat="44.626300153818626" lon="6.2157857484798384"><ele>1418.0</ele><time>2026-04-26T08:46:15Z</time></trkpt><trkpt lat="44.626305161953916" lon="6.215673081758466"><ele>1417.4285714285716</ele><time>2026-04-26T08:46:18Z</time></trkpt><trkpt lat="44.626305038366944" lon="6.215581249804386"><ele>1416.857142857143</ele><time>2026-04-26T08:46:20Z</time></trkpt><trkpt lat="44.626304837702136" lon="6.215469671349863"><ele>1416.2857142857142</ele><time>2026-04-26T08:46:22Z</time></trkpt><trkpt lat="44.626302655715236" lon="6.215363658185168"><ele>1415.7142857142858</ele><time>2026-04-26T08:46:24Z</time></trkpt><trkpt lat="44.626306971186295" lon="6.215272664125867"><ele>1415.142857142857</ele><time>2026-04-26T08:46:26Z</time></trkpt><trkpt lat="44.626310923981286" lon="6.215181631823239"><ele>1414.5714285714287</ele><time>2026-04-26T08:46:28Z</time></trkpt><trkpt lat="44.62630347615753" lon="6.215087026438925"><ele>1414.0</ele><time>2026-04-26T08:46:30Z</time></trkpt><trkpt lat="44.626297410951516" lon="6.2149599840611005"><ele>1414.0</ele><time>2026-04-26T08:46:33Z</time></trkpt><trkpt lat="44.6262990007562" lon="6.214847117770287"><ele>1414.0</ele><time>2026-04-26T08:46:37Z</time></trkpt><trkpt lat="44.62629489835822" lon="6.214737632464868"><ele>1414.0</ele><time>2026-04-26T08:46:39Z</time></trkpt><trkpt lat="44.62629471825404" lon="6.214643151958522"><ele>1414.0</ele><time>2026-04-26T08:46:41Z</time></trkpt><trkpt lat="44.62628830974127" lon="6.214546825797119"><ele>1414.0</ele><time>2026-04-26T08:46:43Z</time></trkpt><trkpt lat="44.6263026065301" lon="6.214432744338216"><ele>1414.0</ele><time>2026-04-26T08:46:46Z</time></trkpt><trkpt lat="44.62633389378008" lon="6.214352885434"><ele>1414.0</ele><time>2026-04-26T08:46:49Z</time></trkpt><trkpt lat="44.62640709404299" lon="6.21435225963318"><ele>1413.6</ele><time>2026-04-26T08:47:18Z</time></trkpt><trkpt lat="44.62640637096907" lon="6.214214586832273"><ele>1413.2</ele><time>2026-04-26T08:47:21Z</time></trkpt><trkpt lat="44.62640710812226" lon="6.2140941755175225"><ele>1412.8</ele><time>2026-04-26T08:47:23Z</time></trkpt><trkpt lat="44.62642057694823" lon="6.213967866902715"><ele>1412.3999999999999</ele><time>2026-04-26T08:47:25Z</time></trkpt><trkpt lat="44.626430918098336" lon="6.213834960590497"><ele>1412.0</ele><time>2026-04-26T08:47:27Z</time></trkpt><trkpt lat="44.62642381985771" lon="6.213702531755813"><ele>1411.1999999999998</ele><time>2026-04-26T08:47:29Z</time></trkpt><trkpt lat="44.62641082162851" lon="6.2135617736597935"><ele>1410.4</ele><time>2026-04-26T08:47:31Z</time></trkpt><trkpt lat="44.62638064034086" lon="6.2134397347784835"><ele>1409.6</ele><time>2026-04-26T08:47:33Z</time></trkpt><trkpt lat="44.626340619923766" lon="6.213299049869205"><ele>1408.8000000000002</ele><time>2026-04-26T08:47:35Z</time></trkpt><trkpt lat="44.62631258822784" lon="6.213216062401879"><ele>1408.0</ele><time>2026-04-26T08:47:36Z</time></trkpt><trkpt lat="44.62630542508044" lon="6.213092745438404"><ele>1407.0</ele><time>2026-04-26T08:47:38Z</time></trkpt><trkpt lat="44.62627907089879" lon="6.212966102395064"><ele>1406.0</ele><time>2026-04-26T08:47:40Z</time></trkpt><trkpt lat="44.62626635913677" lon="6.21285321896465"><ele>1405.0</ele><time>2026-04-26T08:47:42Z</time></trkpt><trkpt lat="44.626263095398556" lon="6.2127507156021915"><ele>1404.0</ele><time>2026-04-26T08:47:44Z</time></trkpt><trkpt lat="44.62627233634989" lon="6.212627780358692"><ele>1403.0</ele><time>2026-04-26T08:47:46Z</time></trkpt><trkpt lat="44.62629560886687" lon="6.212483452042802"><ele>1402.0</ele><time>2026-04-26T08:47:48Z</time></trkpt><trkpt lat="44.62628005082153" lon="6.212349344558013"><ele>1402.0</ele><time>2026-04-26T08:47:50Z</time></trkpt><trkpt lat="44.62625672480234" lon="6.21223092919619"><ele>1402.0</ele><time>2026-04-26T08:47:52Z</time></trkpt><trkpt lat="44.62623070365884" lon="6.212124931050663"><ele>1402.0</ele><time>2026-04-26T08:47:55Z</time></trkpt><trkpt lat="44.626293780129245" lon="6.212178983113039"><ele>1402.0</ele><time>2026-04-26T08:48:00Z</time></trkpt><trkpt lat="44.62633627775501" lon="6.2122872938542475"><ele>1402.0</ele><time>2026-04-26T08:48:03Z</time></trkpt><trkpt lat="44.626385497783204" lon="6.212353411591471"><ele>1402.0</ele><time>2026-04-26T08:48:05Z</time></trkpt><trkpt lat="44.626463160592785" lon="6.212430363266267"><ele>1402.0</ele><time>2026-04-26T08:48:08Z</time></trkpt><trkpt lat="44.62653315618878" lon="6.212490191646324"><ele>1402.0</ele><time>2026-04-26T08:48:10Z</time></trkpt><trkpt lat="44.62661547163223" lon="6.212522976106366"><ele>1402.0</ele><time>2026-04-26T08:48:12Z</time></trkpt><trkpt lat="44.626691701072374" lon="6.212485767826762"><ele>1402.0</ele><time>2026-04-26T08:48:14Z</time></trkpt><trkpt lat="44.62675884110098" lon="6.2124347733132"><ele>1402.0</ele><time>2026-04-26T08:48:16Z</time></trkpt><trkpt lat="44.62682498335781" lon="6.212411446507848"><ele>1402.0</ele><time>2026-04-26T08:48:19Z</time></trkpt><trkpt lat="44.62684700965933" lon="6.2125113685692765"><ele>1402.0</ele><time>2026-04-26T08:48:21Z</time></trkpt><trkpt lat="44.626867319592215" lon="6.212605725100613"><ele>1402.0</ele><time>2026-04-26T08:48:23Z</time></trkpt><trkpt lat="44.62690535340283" lon="6.212686654814935"><ele>1402.0</ele><time>2026-04-26T08:48:25Z</time></trkpt><trkpt lat="44.626949557638724" lon="6.212757148325799"><ele>1402.0</ele><time>2026-04-26T08:48:27Z</time></trkpt><trkpt lat="44.62699640948582" lon="6.212826478043067"><ele>1402.0</ele><time>2026-04-26T08:48:29Z</time></trkpt><trkpt lat="44.62708962211304" lon="6.2128333932353845"><ele>1402.0</ele><time>2026-04-26T08:48:32Z</time></trkpt><trkpt lat="44.627149797606776" lon="6.212783112103413"><ele>1402.0</ele><time>2026-04-26T08:48:34Z</time></trkpt><trkpt lat="44.62721560239522" lon="6.212721469999974"><ele>1402.1666666666665</ele><time>2026-04-26T08:48:36Z</time></trkpt><trkpt lat="44.62728503110808" lon="6.212681466957009"><ele>1402.3333333333333</ele><time>2026-04-26T08:48:38Z</time></trkpt><trkpt lat="44.62734149724473" lon="6.212637131541859"><ele>1402.5</ele><time>2026-04-26T08:48:40Z</time></trkpt><trkpt lat="44.62740394765493" lon="6.2126108093536345"><ele>1402.6666666666667</ele><time>2026-04-26T08:48:42Z</time></trkpt><trkpt lat="44.627473190641766" lon="6.212620362872814"><ele>1402.8333333333335</ele><time>2026-04-26T08:48:44Z</time></trkpt><trkpt lat="44.627541084472995" lon="6.21270320796792"><ele>1403.0</ele><time>2026-04-26T08:48:46Z</time></trkpt><trkpt lat="44.62757658709545" lon="6.212846875756139"><ele>1403.0</ele><time>2026-04-26T08:48:48Z</time></trkpt><trkpt lat="44.627585376928934" lon="6.212941383344159"><ele>1403.0</ele><time>2026-04-26T08:48:49Z</time></trkpt><trkpt lat="44.627604609430335" lon="6.213108988838774"><ele>1403.0</ele><time>2026-04-26T08:48:51Z</time></trkpt><trkpt lat="44.62761998022557" lon="6.213272472185147"><ele>1403.0</ele><time>2026-04-26T08:48:53Z</time></trkpt><trkpt lat="44.627636779561676" lon="6.213430195712951"><ele>1403.0</ele><time>2026-04-26T08:48:55Z</time></trkpt><trkpt lat="44.62765601091164" lon="6.213580416644999"><ele>1403.1666666666667</ele><time>2026-04-26T08:48:57Z</time></trkpt><trkpt lat="44.62765693426581" lon="6.213727522038525"><ele>1403.3333333333335</ele><time>2026-04-26T08:48:59Z</time></trkpt><trkpt lat="44.62766296701038" lon="6.213864268774426"><ele>1403.5</ele><time>2026-04-26T08:49:01Z</time></trkpt><trkpt lat="44.627703804420115" lon="6.213978047781373"><ele>1403.6666666666667</ele><time>2026-04-26T08:49:03Z</time></trkpt><trkpt lat="44.62776159368327" lon="6.214046077958117"><ele>1403.8333333333333</ele><time>2026-04-26T08:49:05Z</time></trkpt><trkpt lat="44.62781981545714" lon="6.214103725203306"><ele>1404.0</ele><time>2026-04-26T08:49:07Z</time></trkpt><trkpt lat="44.6278724451346" lon="6.214165038120326"><ele>1404.5714285714287</ele><time>2026-04-26T08:49:09Z</time></trkpt><trkpt lat="44.62792531658953" lon="6.214224803249176"><ele>1405.142857142857</ele><time>2026-04-26T08:49:11Z</time></trkpt><trkpt lat="44.6279648092182" lon="6.21429930247657"><ele>1405.7142857142858</ele><time>2026-04-26T08:49:13Z</time></trkpt><trkpt lat="44.62799220403387" lon="6.214388264391721"><ele>1406.2857142857142</ele><time>2026-04-26T08:49:15Z</time></trkpt><trkpt lat="44.62803057559462" lon="6.21449361151457"><ele>1406.857142857143</ele><time>2026-04-26T08:49:18Z</time></trkpt><trkpt lat="44.62810665914162" lon="6.214551016911182"><ele>1407.4285714285716</ele><time>2026-04-26T08:49:21Z</time></trkpt><trkpt lat="44.62817913364514" lon="6.214567915311056"><ele>1408.0</ele><time>2026-04-26T08:49:24Z</time></trkpt><trkpt lat="44.628249584487044" lon="6.21462099364428"><ele>1408.0</ele><time>2026-04-26T08:49:27Z</time></trkpt><trkpt lat="44.62832779112528" lon="6.2146577828337275"><ele>1408.0</ele><time>2026-04-26T08:49:30Z</time></trkpt><trkpt lat="44.628407592774" lon="6.214716559449265"><ele>1408.0</ele><time>2026-04-26T08:49:33Z</time></trkpt><trkpt lat="44.62848623878749" lon="6.214763976805607"><ele>1408.0</ele><time>2026-04-26T08:49:36Z</time></trkpt><trkpt lat="44.6285398308091" lon="6.214856227665172"><ele>1408.0</ele><time>2026-04-26T08:49:39Z</time></trkpt><trkpt lat="44.62851152032175" lon="6.2149602979845815"><ele>1408.0</ele><time>2026-04-26T08:49:43Z</time></trkpt><trkpt lat="44.62847944530406" lon="6.215060210470124"><ele>1408.857142857143</ele><time>2026-04-26T08:49:48Z</time></trkpt><trkpt lat="44.62851394255082" lon="6.215162725283514"><ele>1409.7142857142858</ele><time>2026-04-26T08:49:51Z</time></trkpt><trkpt lat="44.6285857317819" lon="6.215157494204484"><ele>1410.5714285714284</ele><time>2026-04-26T08:49:55Z</time></trkpt><trkpt lat="44.62851603025352" lon="6.215161621105148"><ele>1411.4285714285716</ele><time>2026-04-26T08:50:10Z</time></trkpt><trkpt lat="44.628476232815785" lon="6.215092553220002"><ele>1412.2857142857142</ele><time>2026-04-26T08:50:14Z</time></trkpt><trkpt lat="44.628491522994416" lon="6.214997191362431"><ele>1413.142857142857</ele><time>2026-04-26T08:50:16Z</time></trkpt><trkpt lat="44.62855123508968" lon="6.214925701284429"><ele>1414.0</ele><time>2026-04-26T08:50:19Z</time></trkpt><trkpt lat="44.628539320789116" lon="6.214835140175536"><ele>1413.0</ele><time>2026-04-26T08:50:21Z</time></trkpt><trkpt lat="44.6284985630123" lon="6.21476265351723"><ele>1412.0</ele><time>2026-04-26T08:50:23Z</time></trkpt><trkpt lat="44.62842177947612" lon="6.214720068038472"><ele>1411.0</ele><time>2026-04-26T08:50:25Z</time></trkpt><trkpt lat="44.62834458915483" lon="6.214675433126368"><ele>1410.0</ele><time>2026-04-26T08:50:28Z</time></trkpt><trkpt lat="44.62827413109253" lon="6.214657960412565"><ele>1409.0</ele><time>2026-04-26T08:50:31Z</time></trkpt><trkpt lat="44.62819407388187" lon="6.214593724468464"><ele>1408.0</ele><time>2026-04-26T08:50:34Z</time></trkpt><trkpt lat="44.62812682750948" lon="6.214551080545159"><ele>1408.0</ele><time>2026-04-26T08:50:36Z</time></trkpt><trkpt lat="44.62806144078875" lon="6.214533737326903"><ele>1408.0</ele><time>2026-04-26T08:50:38Z</time></trkpt><trkpt lat="44.62798978357674" lon="6.21445839496898"><ele>1408.0</ele><time>2026-04-26T08:50:41Z</time></trkpt><trkpt lat="44.628027019578056" lon="6.214361857075344"><ele>1408.0</ele><time>2026-04-26T08:50:45Z</time></trkpt><trkpt lat="44.62810312581426" lon="6.214323473411227"><ele>1408.0</ele><time>2026-04-26T08:50:48Z</time></trkpt><trkpt lat="44.62816920289728" lon="6.214321172412753"><ele>1408.0</ele><time>2026-04-26T08:50:51Z</time></trkpt><trkpt lat="44.62823577068732" lon="6.214312087871479"><ele>1408.0</ele><time>2026-04-26T08:51:10Z</time></trkpt><trkpt lat="44.62830543303761" lon="6.214285443161838"><ele>1408.0</ele><time>2026-04-26T08:51:13Z</time></trkpt><trkpt lat="44.628377486481256" lon="6.214278532516162"><ele>1408.0</ele><time>2026-04-26T08:51:16Z</time></trkpt><trkpt lat="44.628462820856285" lon="6.214294894810066"><ele>1408.0</ele><time>2026-04-26T08:51:19Z</time></trkpt><trkpt lat="44.628545091287116" lon="6.214314223654129"><ele>1408.0</ele><time>2026-04-26T08:51:22Z</time></trkpt><trkpt lat="44.62861013031629" lon="6.2143049631750475"><ele>1408.0</ele><time>2026-04-26T08:51:25Z</time></trkpt><trkpt lat="44.62868811013626" lon="6.214329570724922"><ele>1408.0</ele><time>2026-04-26T08:51:28Z</time></trkpt><trkpt lat="44.62874787619893" lon="6.214373377363881"><ele>1410.4285714285716</ele><time>2026-04-26T08:51:31Z</time></trkpt><trkpt lat="44.62881400264141" lon="6.214414811466789"><ele>1412.857142857143</ele><time>2026-04-26T08:51:34Z</time></trkpt><trkpt lat="44.628863457990036" lon="6.214500985215902"><ele>1415.2857142857142</ele><time>2026-04-26T08:51:37Z</time></trkpt><trkpt lat="44.62889827965596" lon="6.214582164661588"><ele>1417.7142857142858</ele><time>2026-04-26T08:51:40Z</time></trkpt><trkpt lat="44.62895529086008" lon="6.214643962453648"><ele>1420.142857142857</ele><time>2026-04-26T08:51:43Z</time></trkpt><trkpt lat="44.62900997123948" lon="6.214694390973076"><ele>1422.5714285714287</ele><time>2026-04-26T08:51:46Z</time></trkpt><trkpt lat="44.62905795410842" lon="6.214760763275294"><ele>1425.0</ele><time>2026-04-26T08:51:49Z</time></trkpt><trkpt lat="44.6291103266192" lon="6.214825724039119"><ele>1426.0000000000002</ele><time>2026-04-26T08:51:52Z</time></trkpt><trkpt lat="44.62917091737071" lon="6.2149030319031535"><ele>1427.0</ele><time>2026-04-26T08:51:56Z</time></trkpt><trkpt lat="44.62921726316129" lon="6.214966416943595"><ele>1428.0</ele><time>2026-04-26T08:51:59Z</time></trkpt><trkpt lat="44.6292506536678" lon="6.215041940820897"><ele>1429.0</ele><time>2026-04-26T08:52:03Z</time></trkpt><trkpt lat="44.62931646943329" lon="6.215089749493347"><ele>1430.0</ele><time>2026-04-26T08:52:47Z</time></trkpt><trkpt lat="44.62938035146159" lon="6.215049776270783"><ele>1431.0000000000002</ele><time>2026-04-26T08:52:56Z</time></trkpt><trkpt lat="44.62945195791169" lon="6.214985767789868"><ele>1432.0</ele><time>2026-04-26T08:52:59Z</time></trkpt><trkpt lat="44.62950577894965" lon="6.214911595372301"><ele>1435.7142857142858</ele><time>2026-04-26T08:53:02Z</time></trkpt><trkpt lat="44.62954552252552" lon="6.214829223002249"><ele>1439.4285714285716</ele><time>2026-04-26T08:53:05Z</time></trkpt><trkpt lat="44.62957628567591" lon="6.2147336683883125"><ele>1443.1428571428573</ele><time>2026-04-26T08:53:08Z</time></trkpt><trkpt lat="44.629619930488246" lon="6.2146506093888645"><ele>1446.857142857143</ele><time>2026-04-26T08:53:11Z</time></trkpt><trkpt lat="44.62965650463761" lon="6.214546828618222"><ele>1450.5714285714284</ele><time>2026-04-26T08:53:14Z</time></trkpt><trkpt lat="44.62969013999478" lon="6.214452467477517"><ele>1454.2857142857144</ele><time>2026-04-26T08:53:17Z</time></trkpt><trkpt lat="44.62975013926632" lon="6.2144131275692445"><ele>1458.0</ele><time>2026-04-26T08:53:20Z</time></trkpt><trkpt lat="44.629817371937236" lon="6.214398726874173"><ele>1458.0</ele><time>2026-04-26T08:53:23Z</time></trkpt><trkpt lat="44.629889973622255" lon="6.21440760363581"><ele>1458.0</ele><time>2026-04-26T08:53:27Z</time></trkpt><trkpt lat="44.62996709254582" lon="6.21436195360591"><ele>1458.0</ele><time>2026-04-26T08:53:31Z</time></trkpt><trkpt lat="44.63000185437175" lon="6.21427181784404"><ele>1458.0</ele><time>2026-04-26T08:53:35Z</time></trkpt><trkpt lat="44.63002740927" lon="6.214183919462975"><ele>1458.0</ele><time>2026-04-26T08:53:52Z</time></trkpt><trkpt lat="44.63005881175393" lon="6.214101841153817"><ele>1458.0</ele><time>2026-04-26T08:53:55Z</time></trkpt><trkpt lat="44.63011131105413" lon="6.214021430102286"><ele>1458.0</ele><time>2026-04-26T08:53:59Z</time></trkpt><trkpt lat="44.630159424661464" lon="6.2139442299789005"><ele>1458.0</ele><time>2026-04-26T08:54:03Z</time></trkpt><trkpt lat="44.630210331822255" lon="6.213863106839551"><ele>1458.0</ele><time>2026-04-26T08:54:13Z</time></trkpt><trkpt lat="44.63022802538885" lon="6.213773865446636"><ele>1458.0</ele><time>2026-04-26T08:54:16Z</time></trkpt><trkpt lat="44.63025840461748" lon="6.21368396113705"><ele>1458.0</ele><time>2026-04-26T08:54:46Z</time></trkpt><trkpt lat="44.630289153433296" lon="6.213592692183763"><ele>1458.0</ele><time>2026-04-26T08:54:50Z</time></trkpt><trkpt lat="44.63031622021405" lon="6.213503991638136"><ele>1458.0</ele><time>2026-04-26T08:55:03Z</time></trkpt><trkpt lat="44.63033059933612" lon="6.213396563809772"><ele>1458.0</ele><time>2026-04-26T08:55:07Z</time></trkpt><trkpt lat="44.63034688199287" lon="6.213295702875661"><ele>1458.2857142857144</ele><time>2026-04-26T08:55:11Z</time></trkpt><trkpt lat="44.63036431034271" lon="6.213183561197168"><ele>1458.5714285714284</ele><time>2026-04-26T08:55:15Z</time></trkpt><trkpt lat="44.63032405367598" lon="6.213102646150477"><ele>1458.857142857143</ele><time>2026-04-26T08:55:21Z</time></trkpt><trkpt lat="44.63029541100952" lon="6.213000616982516"><ele>1459.1428571428573</ele><time>2026-04-26T08:55:25Z</time></trkpt><trkpt lat="44.6302925941154" lon="6.212903048126031"><ele>1459.4285714285716</ele><time>2026-04-26T08:55:29Z</time></trkpt><trkpt lat="44.63028710086734" lon="6.212800743966174"><ele>1459.7142857142858</ele><time>2026-04-26T08:55:33Z</time></trkpt><trkpt lat="44.63027748695701" lon="6.212707311641957"><ele>1460.0</ele><time>2026-04-26T08:55:53Z</time></trkpt><trkpt lat="44.63028672177116" lon="6.21261342646266"><ele>1460.0000000000002</ele><time>2026-04-26T08:56:03Z</time></trkpt><trkpt lat="44.63029606707395" lon="6.2125156951043685"><ele>1460.0</ele><time>2026-04-26T08:56:16Z</time></trkpt><trkpt lat="44.630333979267725" lon="6.212436204060016"><ele>1460.0</ele><time>2026-04-26T08:56:20Z</time></trkpt><trkpt lat="44.63036863901396" lon="6.212351678319104"><ele>1460.0</ele><time>2026-04-26T08:56:24Z</time></trkpt><trkpt lat="44.63040718274309" lon="6.21226550380578"><ele>1460.0</ele><time>2026-04-26T08:56:28Z</time></trkpt><trkpt lat="44.63045437849073" lon="6.212195628779463"><ele>1460.0000000000002</ele><time>2026-04-26T08:56:32Z</time></trkpt><trkpt lat="44.63050024080842" lon="6.212109926455364"><ele>1460.0</ele><time>2026-04-26T08:56:40Z</time></trkpt><trkpt lat="44.630545548253714" lon="6.212044084269317"><ele>1463.1428571428573</ele><time>2026-04-26T08:56:44Z</time></trkpt><trkpt lat="44.63059558498452" lon="6.211965749636106"><ele>1466.2857142857142</ele><time>2026-04-26T08:56:49Z</time></trkpt><trkpt lat="44.63065074296814" lon="6.211882952645649"><ele>1469.4285714285716</ele><time>2026-04-26T08:56:53Z</time></trkpt><trkpt lat="44.630693839672" lon="6.2118102435155"><ele>1472.5714285714287</ele><time>2026-04-26T08:56:57Z</time></trkpt><trkpt lat="44.630751763250146" lon="6.211751148987787"><ele>1475.7142857142858</ele><time>2026-04-26T08:57:13Z</time></trkpt><trkpt lat="44.630827559137884" lon="6.211738548429822"><ele>1478.857142857143</ele><time>2026-04-26T08:57:17Z</time></trkpt><trkpt lat="44.63088714101564" lon="6.21170537927342"><ele>1482.0</ele><time>2026-04-26T08:57:26Z</time></trkpt><trkpt lat="44.630952748052735" lon="6.211695445804569"><ele>1482.0</ele><time>2026-04-26T08:57:29Z</time></trkpt><trkpt lat="44.63102608955588" lon="6.211645663196104"><ele>1482.0</ele><time>2026-04-26T08:57:33Z</time></trkpt><trkpt lat="44.63109791472085" lon="6.211615185491806"><ele>1482.0</ele><time>2026-04-26T08:57:37Z</time></trkpt><trkpt lat="44.63115945044355" lon="6.211579989785988"><ele>1482.0</ele><time>2026-04-26T08:57:40Z</time></trkpt><trkpt lat="44.63122628980158" lon="6.211539383495992"><ele>1482.0</ele><time>2026-04-26T08:57:44Z</time></trkpt><trkpt lat="44.631295843215234" lon="6.211512435262917"><ele>1482.0</ele><time>2026-04-26T08:57:53Z</time></trkpt><trkpt lat="44.63135950753193" lon="6.211477768356742"><ele>1482.0</ele><time>2026-04-26T08:57:56Z</time></trkpt><trkpt lat="44.63136137664965" lon="6.21138804919608"><ele>1484.5714285714284</ele><time>2026-04-26T08:58:00Z</time></trkpt><trkpt lat="44.63140090135063" lon="6.211295560567952"><ele>1487.1428571428573</ele><time>2026-04-26T08:58:09Z</time></trkpt><trkpt lat="44.631481714175735" lon="6.211296776581498"><ele>1489.7142857142858</ele><time>2026-04-26T08:58:14Z</time></trkpt><trkpt lat="44.6315491831467" lon="6.2113129900817015"><ele>1492.2857142857142</ele><time>2026-04-26T08:58:18Z</time></trkpt><trkpt lat="44.63159676338532" lon="6.2113884553944425"><ele>1494.8571428571427</ele><time>2026-04-26T08:58:22Z</time></trkpt><trkpt lat="44.631667293904066" lon="6.211423330550348"><ele>1497.4285714285716</ele><time>2026-04-26T08:58:26Z</time></trkpt><trkpt lat="44.63173754264613" lon="6.211452067096781"><ele>1500.0</ele><time>2026-04-26T08:58:30Z</time></trkpt><trkpt lat="44.63180281923886" lon="6.211488295114076"><ele>1501.2857142857144</ele><time>2026-04-26T08:58:34Z</time></trkpt><trkpt lat="44.63187195206548" lon="6.211498459789778"><ele>1502.5714285714284</ele><time>2026-04-26T08:58:38Z</time></trkpt><trkpt lat="44.63194729914746" lon="6.21149892719892"><ele>1503.857142857143</ele><time>2026-04-26T08:58:42Z</time></trkpt><trkpt lat="44.63202613960418" lon="6.211504844249066"><ele>1505.1428571428573</ele><time>2026-04-26T08:58:46Z</time></trkpt><trkpt lat="44.632098086627344" lon="6.211521468355977"><ele>1506.4285714285716</ele><time>2026-04-26T08:58:50Z</time></trkpt><trkpt lat="44.63216647161074" lon="6.211487012153405"><ele>1507.7142857142858</ele><time>2026-04-26T08:58:55Z</time></trkpt><trkpt lat="44.632220596989" lon="6.211435748414167"><ele>1509.0</ele><time>2026-04-26T09:02:57Z</time></trkpt><trkpt lat="44.63229152060017" lon="6.211450000752534"><ele>1511.2857142857144</ele><time>2026-04-26T09:03:01Z</time></trkpt><trkpt lat="44.63235088280925" lon="6.21152212975052"><ele>1513.5714285714287</ele><time>2026-04-26T09:03:17Z</time></trkpt><trkpt lat="44.632404843486015" lon="6.211587426376488"><ele>1515.857142857143</ele><time>2026-04-26T09:03:21Z</time></trkpt><trkpt lat="44.63245382085959" lon="6.211656278710289"><ele>1518.1428571428573</ele><time>2026-04-26T09:03:25Z</time></trkpt><trkpt lat="44.63250583602868" lon="6.211732363305432"><ele>1520.4285714285713</ele><time>2026-04-26T09:03:29Z</time></trkpt><trkpt lat="44.6325684355636" lon="6.211766729784904"><ele>1522.7142857142858</ele><time>2026-04-26T09:03:33Z</time></trkpt><trkpt lat="44.63263349257947" lon="6.2117393704642785"><ele>1525.0</ele><time>2026-04-26T09:03:38Z</time></trkpt><trkpt lat="44.63269163624701" lon="6.211691140538878"><ele>1525.0</ele><time>2026-04-26T09:03:43Z</time></trkpt><trkpt lat="44.632753880129876" lon="6.211646019176234"><ele>1525.0</ele><time>2026-04-26T09:03:46Z</time></trkpt><trkpt lat="44.6328148596815" lon="6.211598185708004"><ele>1525.0</ele><time>2026-04-26T09:03:48Z</time></trkpt><trkpt lat="44.63289393308245" lon="6.211534074309474"><ele>1525.0</ele><time>2026-04-26T09:03:50Z</time></trkpt><trkpt lat="44.632971926873665" lon="6.2114831837408"><ele>1525.0</ele><time>2026-04-26T09:03:52Z</time></trkpt><trkpt lat="44.63303701445078" lon="6.211477840488883"><ele>1525.0</ele><time>2026-04-26T09:03:54Z</time></trkpt><trkpt lat="44.633101067184455" lon="6.211461505423299"><ele>1525.0</ele><time>2026-04-26T09:03:57Z</time></trkpt><trkpt lat="44.633185516413825" lon="6.211424545213477"><ele>1524.0</ele><time>2026-04-26T09:04:00Z</time></trkpt><trkpt lat="44.63325983005305" lon="6.211394669342603"><ele>1523.0</ele><time>2026-04-26T09:04:02Z</time></trkpt><trkpt lat="44.633331018199" lon="6.211374869170586"><ele>1522.0</ele><time>2026-04-26T09:04:04Z</time></trkpt><trkpt lat="44.63340251932523" lon="6.211366292250952"><ele>1521.0</ele><time>2026-04-26T09:04:06Z</time></trkpt><trkpt lat="44.6334665625905" lon="6.211365671705588"><ele>1520.0</ele><time>2026-04-26T09:04:08Z</time></trkpt><trkpt lat="44.63353054324936" lon="6.211361930984687"><ele>1519.0</ele><time>2026-04-26T09:04:10Z</time></trkpt><trkpt lat="44.63361993163894" lon="6.211357844248046"><ele>1518.0</ele><time>2026-04-26T09:04:13Z</time></trkpt><trkpt lat="44.633705641224346" lon="6.211352246689534"><ele>1518.0</ele><time>2026-04-26T09:04:16Z</time></trkpt><trkpt lat="44.633787390347806" lon="6.211354921797739"><ele>1518.0</ele><time>2026-04-26T09:04:19Z</time></trkpt><trkpt lat="44.633862953553084" lon="6.211370109928669"><ele>1518.0</ele><time>2026-04-26T09:04:22Z</time></trkpt><trkpt lat="44.63393991534306" lon="6.211383084194537"><ele>1518.0</ele><time>2026-04-26T09:04:25Z</time></trkpt><trkpt lat="44.63401659210822" lon="6.211375885062905"><ele>1518.0</ele><time>2026-04-26T09:04:28Z</time></trkpt><trkpt lat="44.63409731509144" lon="6.211369542998448"><ele>1518.0</ele><time>2026-04-26T09:04:31Z</time></trkpt><trkpt lat="44.63418415622012" lon="6.2113889266405"><ele>1518.0</ele><time>2026-04-26T09:04:34Z</time></trkpt><trkpt lat="44.63425932990449" lon="6.211396702403569"><ele>1518.0</ele><time>2026-04-26T09:04:37Z</time></trkpt><trkpt lat="44.63434968827375" lon="6.2114073617375425"><ele>1518.0</ele><time>2026-04-26T09:04:40Z</time></trkpt><trkpt lat="44.634414308836185" lon="6.2114137011013515"><ele>1518.0</ele><time>2026-04-26T09:04:42Z</time></trkpt><trkpt lat="44.634504856137625" lon="6.211418848037978"><ele>1518.0</ele><time>2026-04-26T09:04:45Z</time></trkpt><trkpt lat="44.63460100696064" lon="6.211398182932532"><ele>1518.0</ele><time>2026-04-26T09:04:48Z</time></trkpt><trkpt lat="44.634678741219524" lon="6.211360058576737"><ele>1518.142857142857</ele><time>2026-04-26T09:04:50Z</time></trkpt><trkpt lat="44.63474446277589" lon="6.211339422480039"><ele>1518.2857142857142</ele><time>2026-04-26T09:04:52Z</time></trkpt><trkpt lat="44.63479949853807" lon="6.211291818699175"><ele>1518.4285714285716</ele><time>2026-04-26T09:04:54Z</time></trkpt><trkpt lat="44.63486789725358" lon="6.211267950593992"><ele>1518.5714285714284</ele><time>2026-04-26T09:04:56Z</time></trkpt><trkpt lat="44.634918751675606" lon="6.211198323263334"><ele>1518.7142857142858</ele><time>2026-04-26T09:04:58Z</time></trkpt><trkpt lat="44.63497696022953" lon="6.2111236530675304"><ele>1518.857142857143</ele><time>2026-04-26T09:05:00Z</time></trkpt><trkpt lat="44.63504501964238" lon="6.211030191685206"><ele>1519.0</ele><time>2026-04-26T09:05:02Z</time></trkpt><trkpt lat="44.63509403728941" lon="6.210956309865021"><ele>1519.0</ele><time>2026-04-26T09:05:04Z</time></trkpt><trkpt lat="44.63513072678664" lon="6.210844363143911"><ele>1519.0</ele><time>2026-04-26T09:05:06Z</time></trkpt><trkpt lat="44.635206884535634" lon="6.210796470635216"><ele>1519.0</ele><time>2026-04-26T09:05:10Z</time></trkpt><trkpt lat="44.63526109105212" lon="6.210680593267117"><ele>1519.0</ele><time>2026-04-26T09:05:13Z</time></trkpt><trkpt lat="44.63531067358522" lon="6.210582334817601"><ele>1519.0</ele><time>2026-04-26T09:05:15Z</time></trkpt><trkpt lat="44.6353668210833" lon="6.210520548333305"><ele>1519.0</ele><time>2026-04-26T09:05:17Z</time></trkpt><trkpt lat="44.63543317454544" lon="6.210450473080601"><ele>1516.857142857143</ele><time>2026-04-26T09:05:20Z</time></trkpt><trkpt lat="44.635489183731394" lon="6.210376957630098"><ele>1514.7142857142858</ele><time>2026-04-26T09:05:22Z</time></trkpt><trkpt lat="44.635539981934066" lon="6.21031879290786"><ele>1512.5714285714284</ele><time>2026-04-26T09:05:24Z</time></trkpt><trkpt lat="44.63560717285947" lon="6.210272175671312"><ele>1510.4285714285716</ele><time>2026-04-26T09:05:28Z</time></trkpt><trkpt lat="44.63567512295897" lon="6.210293158285099"><ele>1508.2857142857142</ele><time>2026-04-26T09:05:33Z</time></trkpt><trkpt lat="44.63574218715296" lon="6.21035079095706"><ele>1506.142857142857</ele><time>2026-04-26T09:05:37Z</time></trkpt><trkpt lat="44.63580630246098" lon="6.210360142304041"><ele>1504.0</ele><time>2026-04-26T09:05:39Z</time></trkpt><trkpt lat="44.635880263492844" lon="6.210374370847552"><ele>1504.0</ele><time>2026-04-26T09:05:42Z</time></trkpt><trkpt lat="44.635956260929404" lon="6.210402230357692"><ele>1504.0</ele><time>2026-04-26T09:05:45Z</time></trkpt><trkpt lat="44.636019981740056" lon="6.2104158586516665"><ele>1504.0</ele><time>2026-04-26T09:05:48Z</time></trkpt><trkpt lat="44.636089531209855" lon="6.210444748422579"><ele>1504.0</ele><time>2026-04-26T09:05:51Z</time></trkpt><trkpt lat="44.636171301247664" lon="6.21045729431979"><ele>1504.0</ele><time>2026-04-26T09:05:55Z</time></trkpt><trkpt lat="44.63623768783803" lon="6.210485597760414"><ele>1504.0</ele><time>2026-04-26T09:05:58Z</time></trkpt><trkpt lat="44.636313552553176" lon="6.210513977526681"><ele>1504.0</ele><time>2026-04-26T09:06:01Z</time></trkpt><trkpt lat="44.63637794779248" lon="6.210540951177484"><ele>1504.8333333333333</ele><time>2026-04-26T09:06:04Z</time></trkpt><trkpt lat="44.636441849506994" lon="6.210605258606337"><ele>1505.6666666666665</ele><time>2026-04-26T09:06:08Z</time></trkpt><trkpt lat="44.636519968541585" lon="6.210652302563858"><ele>1506.5</ele><time>2026-04-26T09:06:12Z</time></trkpt><trkpt lat="44.636580911815756" lon="6.210683869789567"><ele>1507.3333333333333</ele><time>2026-04-26T09:06:15Z</time></trkpt><trkpt lat="44.63664488084007" lon="6.210753255173873"><ele>1508.1666666666667</ele><time>2026-04-26T09:06:18Z</time></trkpt><trkpt lat="44.6367238501372" lon="6.210797098329499"><ele>1509.0</ele><time>2026-04-26T09:06:22Z</time></trkpt><trkpt lat="44.63679882776057" lon="6.210844735025831"><ele>1512.0000000000002</ele><time>2026-04-26T09:06:26Z</time></trkpt><trkpt lat="44.63686543525071" lon="6.210873856744099"><ele>1515.0</ele><time>2026-04-26T09:06:29Z</time></trkpt><trkpt lat="44.63693472849398" lon="6.210918366382404"><ele>1518.0</ele><time>2026-04-26T09:06:33Z</time></trkpt><trkpt lat="44.63699202067255" lon="6.210959376049032"><ele>1521.0</ele><time>2026-04-26T09:06:36Z</time></trkpt><trkpt lat="44.6370554264898" lon="6.211004861835669"><ele>1524.0</ele><time>2026-04-26T09:06:39Z</time></trkpt><trkpt lat="44.63711468609923" lon="6.211039039533135"><ele>1527.0000000000002</ele><time>2026-04-26T09:06:42Z</time></trkpt><trkpt lat="44.63716745534869" lon="6.2111002295626125"><ele>1530.0</ele><time>2026-04-26T09:06:45Z</time></trkpt><trkpt lat="44.637235428982585" lon="6.211156258672124"><ele>1530.0</ele><time>2026-04-26T09:06:48Z</time></trkpt><trkpt lat="44.637290152088866" lon="6.211208602940629"><ele>1530.0</ele><time>2026-04-26T09:06:51Z</time></trkpt><trkpt lat="44.63736201863406" lon="6.211282476113242"><ele>1530.0</ele><time>2026-04-26T09:06:55Z</time></trkpt><trkpt lat="44.637414994471115" lon="6.211356404872336"><ele>1530.0</ele><time>2026-04-26T09:06:59Z</time></trkpt><trkpt lat="44.63746391132626" lon="6.211438119439508"><ele>1530.0</ele><time>2026-04-26T09:07:03Z</time></trkpt><trkpt lat="44.63751133375854" lon="6.211506858571497"><ele>1530.0</ele><time>2026-04-26T09:07:07Z</time></trkpt><trkpt lat="44.63757545319045" lon="6.211579547500735"><ele>1530.857142857143</ele><time>2026-04-26T09:07:11Z</time></trkpt><trkpt lat="44.637633132045885" lon="6.211630803065776"><ele>1531.7142857142858</ele><time>2026-04-26T09:07:15Z</time></trkpt><trkpt lat="44.63769217411714" lon="6.2116854932081695"><ele>1532.5714285714284</ele><time>2026-04-26T09:07:19Z</time></trkpt><trkpt lat="44.637743980145004" lon="6.21174668728349"><ele>1533.4285714285716</ele><time>2026-04-26T09:07:23Z</time></trkpt><trkpt lat="44.63781101501764" lon="6.21181116833769"><ele>1534.2857142857142</ele><time>2026-04-26T09:07:28Z</time></trkpt><trkpt lat="44.637870381523" lon="6.211902462193224"><ele>1535.142857142857</ele><time>2026-04-26T09:07:33Z</time></trkpt><trkpt lat="44.637911526312124" lon="6.211970970244003"><ele>1536.0</ele><time>2026-04-26T09:07:37Z</time></trkpt><trkpt lat="44.637963669772255" lon="6.212045141050175"><ele>1536.0</ele><time>2026-04-26T09:07:41Z</time></trkpt><trkpt lat="44.63800679736296" lon="6.212137768533145"><ele>1536.0</ele><time>2026-04-26T09:07:45Z</time></trkpt><trkpt lat="44.63803783686979" lon="6.212236628745827"><ele>1536.0</ele><time>2026-04-26T09:07:49Z</time></trkpt><trkpt lat="44.63809486197886" lon="6.2123098492462425"><ele>1536.0</ele><time>2026-04-26T09:07:53Z</time></trkpt><trkpt lat="44.63813812019094" lon="6.212384739282891"><ele>1536.0</ele><time>2026-04-26T09:07:57Z</time></trkpt><trkpt lat="44.63817748956214" lon="6.212479276452957"><ele>1536.0</ele><time>2026-04-26T09:08:01Z</time></trkpt><trkpt lat="44.63822078442731" lon="6.2125599720724605"><ele>1539.4285714285713</ele><time>2026-04-26T09:08:05Z</time></trkpt><trkpt lat="44.63825557379761" lon="6.212658580685238"><ele>1542.857142857143</ele><time>2026-04-26T09:08:09Z</time></trkpt><trkpt lat="44.63827756955249" lon="6.21275711207337"><ele>1546.2857142857142</ele><time>2026-04-26T09:08:13Z</time></trkpt><trkpt lat="44.63831424419217" lon="6.212850509240347"><ele>1549.7142857142858</ele><time>2026-04-26T09:08:17Z</time></trkpt><trkpt lat="44.638340261374395" lon="6.212931256996672"><ele>1553.142857142857</ele><time>2026-04-26T09:08:20Z</time></trkpt><trkpt lat="44.6383673059757" lon="6.213022676697284"><ele>1556.5714285714284</ele><time>2026-04-26T09:08:24Z</time></trkpt><trkpt lat="44.63840068027684" lon="6.21311828504658"><ele>1560.0</ele><time>2026-04-26T09:08:28Z</time></trkpt><trkpt lat="44.63841974920721" lon="6.213203131566549"><ele>1564.1666666666667</ele><time>2026-04-26T09:08:31Z</time></trkpt><trkpt lat="44.63843882867409" lon="6.21331623612039"><ele>1568.3333333333335</ele><time>2026-04-26T09:08:35Z</time></trkpt><trkpt lat="44.638461056109676" lon="6.213423077466074"><ele>1572.5</ele><time>2026-04-26T09:08:39Z</time></trkpt><trkpt lat="44.63849114344268" lon="6.213525734163624"><ele>1576.6666666666667</ele><time>2026-04-26T09:08:43Z</time></trkpt><trkpt lat="44.638490999348136" lon="6.213646010431135"><ele>1580.8333333333335</ele><time>2026-04-26T09:08:47Z</time></trkpt><trkpt lat="44.63849072664677" lon="6.213748516051835"><ele>1585.0</ele><time>2026-04-26T09:08:51Z</time></trkpt><trkpt lat="44.638515720121546" lon="6.213830520787207"><ele>1585.0000000000002</ele><time>2026-04-26T09:08:54Z</time></trkpt><trkpt lat="44.6385238211882" lon="6.213942152110569"><ele>1585.0</ele><time>2026-04-26T09:08:58Z</time></trkpt><trkpt lat="44.638525544385814" lon="6.214051689682529"><ele>1585.0</ele><time>2026-04-26T09:09:02Z</time></trkpt><trkpt lat="44.638539715703445" lon="6.214153508306392"><ele>1585.0</ele><time>2026-04-26T09:09:06Z</time></trkpt><trkpt lat="44.6385509703477" lon="6.214254931694279"><ele>1585.0000000000002</ele><time>2026-04-26T09:09:10Z</time></trkpt><trkpt lat="44.638587618631135" lon="6.214352485071587"><ele>1585.0</ele><time>2026-04-26T09:09:14Z</time></trkpt><trkpt lat="44.63861653422785" lon="6.214446818680343"><ele>1584.8571428571427</ele><time>2026-04-26T09:09:18Z</time></trkpt><trkpt lat="44.63863391925862" lon="6.214546217770157"><ele>1584.7142857142858</ele><time>2026-04-26T09:09:22Z</time></trkpt><trkpt lat="44.63865333301344" lon="6.214655549202853"><ele>1584.5714285714284</ele><time>2026-04-26T09:09:26Z</time></trkpt><trkpt lat="44.63868938584244" lon="6.214749198636054"><ele>1584.4285714285713</ele><time>2026-04-26T09:09:30Z</time></trkpt><trkpt lat="44.638714883767236" lon="6.21483991243507"><ele>1584.2857142857142</ele><time>2026-04-26T09:09:34Z</time></trkpt><trkpt lat="44.63873611804644" lon="6.214927464318102"><ele>1584.142857142857</ele><time>2026-04-26T09:09:37Z</time></trkpt><trkpt lat="44.63877020898133" lon="6.215024910112538"><ele>1584.0</ele><time>2026-04-26T09:09:41Z</time></trkpt><trkpt lat="44.63879912315253" lon="6.2151052899810475"><ele>1584.0</ele><time>2026-04-26T09:09:44Z</time></trkpt><trkpt lat="44.63882159921853" lon="6.215206633370452"><ele>1584.0</ele><time>2026-04-26T09:09:48Z</time></trkpt><trkpt lat="44.63884982623965" lon="6.215295865548211"><ele>1584.0</ele><time>2026-04-26T09:09:52Z</time></trkpt><trkpt lat="44.638865009930804" lon="6.2153854333475795"><ele>1584.0</ele><time>2026-04-26T09:09:55Z</time></trkpt><trkpt lat="44.63887749870796" lon="6.215494036861647"><ele>1584.0</ele><time>2026-04-26T09:09:59Z</time></trkpt><trkpt lat="44.63891343309155" lon="6.215570382307348"><ele>1584.0</ele><time>2026-04-26T09:10:02Z</time></trkpt><trkpt lat="44.63893743910247" lon="6.21566522666363"><ele>1584.0</ele><time>2026-04-26T09:10:06Z</time></trkpt><trkpt lat="44.6389695603916" lon="6.2157529206992574"><ele>1588.4285714285716</ele><time>2026-04-26T09:10:10Z</time></trkpt><trkpt lat="44.63900808518749" lon="6.215839277532983"><ele>1592.8571428571427</ele><time>2026-04-26T09:10:13Z</time></trkpt><trkpt lat="44.63903887286391" lon="6.215926280222306"><ele>1597.2857142857142</ele><time>2026-04-26T09:10:16Z</time></trkpt><trkpt lat="44.639058193272405" lon="6.216021947952032"><ele>1601.7142857142858</ele><time>2026-04-26T09:10:20Z</time></trkpt><trkpt lat="44.639098211219974" lon="6.216091237987815"><ele>1606.1428571428573</ele><time>2026-04-26T09:10:23Z</time></trkpt><trkpt lat="44.63911324452796" lon="6.216183885566616"><ele>1610.5714285714284</ele><time>2026-04-26T09:10:26Z</time></trkpt><trkpt lat="44.63914300264171" lon="6.216264902389467"><ele>1615.0</ele><time>2026-04-26T09:10:29Z</time></trkpt><trkpt lat="44.63917305446625" lon="6.216381538483797"><ele>1615.0000000000002</ele><time>2026-04-26T09:10:33Z</time></trkpt><trkpt lat="44.639216520140735" lon="6.216482541661639"><ele>1615.0</ele><time>2026-04-26T09:10:37Z</time></trkpt><trkpt lat="44.63925053086759" lon="6.2165740963703255"><ele>1615.0</ele><time>2026-04-26T09:10:40Z</time></trkpt><trkpt lat="44.63929051979493" lon="6.216684413180629"><ele>1615.0</ele><time>2026-04-26T09:10:44Z</time></trkpt><trkpt lat="44.63931502819094" lon="6.21676598514876"><ele>1615.0000000000002</ele><time>2026-04-26T09:10:47Z</time></trkpt><trkpt lat="44.63935881183358" lon="6.216840215039591"><ele>1615.0</ele><time>2026-04-26T09:10:50Z</time></trkpt><trkpt lat="44.63938214331319" lon="6.216957944776569"><ele>1615.6666666666667</ele><time>2026-04-26T09:10:53Z</time></trkpt><trkpt lat="44.6394101277171" lon="6.217075518686338"><ele>1616.3333333333335</ele><time>2026-04-26T09:10:56Z</time></trkpt><trkpt lat="44.639424569373844" lon="6.217184350174655"><ele>1617.0</ele><time>2026-04-26T09:10:59Z</time></trkpt><trkpt lat="44.63943666518836" lon="6.217273798463962"><ele>1617.6666666666665</ele><time>2026-04-26T09:11:01Z</time></trkpt><trkpt lat="44.63944446120549" lon="6.21739097102604"><ele>1618.3333333333333</ele><time>2026-04-26T09:11:04Z</time></trkpt><trkpt lat="44.63946631423947" lon="6.217507869031967"><ele>1619.0</ele><time>2026-04-26T09:11:07Z</time></trkpt><trkpt lat="44.63953284791544" lon="6.217548896087524"><ele>1618.9999999999998</ele><time>2026-04-26T09:11:10Z</time></trkpt><trkpt lat="44.639627404540875" lon="6.217599324344118"><ele>1619.0</ele><time>2026-04-26T09:11:13Z</time></trkpt><trkpt lat="44.63968212174925" lon="6.217668789910207"><ele>1619.0</ele><time>2026-04-26T09:11:15Z</time></trkpt><trkpt lat="44.63973095303939" lon="6.217752170430426"><ele>1619.0</ele><time>2026-04-26T09:11:17Z</time></trkpt><trkpt lat="44.63979311613998" lon="6.217805852138463"><ele>1618.9999999999998</ele><time>2026-04-26T09:11:19Z</time></trkpt><trkpt lat="44.63987063913346" lon="6.217861366780942"><ele>1619.0</ele><time>2026-04-26T09:11:21Z</time></trkpt><trkpt lat="44.639938805322394" lon="6.217908238221445"><ele>1618.9999999999998</ele><time>2026-04-26T09:11:23Z</time></trkpt><trkpt lat="44.63999351158735" lon="6.217974442461828"><ele>1619.0</ele><time>2026-04-26T09:11:25Z</time></trkpt><trkpt lat="44.640041902531664" lon="6.218073195980244"><ele>1619.0</ele><time>2026-04-26T09:11:28Z</time></trkpt><trkpt lat="44.6400845655311" lon="6.21817856617281"><ele>1619.0</ele><time>2026-04-26T09:11:30Z</time></trkpt><trkpt lat="44.640094900959106" lon="6.2183000509058095"><ele>1618.9999999999998</ele><time>2026-04-26T09:11:32Z</time></trkpt><trkpt lat="44.64009054163536" lon="6.21840829066553"><ele>1619.0</ele><time>2026-04-26T09:11:35Z</time></trkpt><trkpt lat="44.640084892972595" lon="6.218516713572133"><ele>1622.4285714285716</ele><time>2026-04-26T09:11:39Z</time></trkpt><trkpt lat="44.640041147674125" lon="6.218617931141559"><ele>1625.8571428571427</ele><time>2026-04-26T09:11:42Z</time></trkpt><trkpt lat="44.64002364199987" lon="6.218716939330128"><ele>1629.2857142857142</ele><time>2026-04-26T09:11:46Z</time></trkpt><trkpt lat="44.6400774323808" lon="6.218789254889229"><ele>1632.7142857142858</ele><time>2026-04-26T09:11:48Z</time></trkpt><trkpt lat="44.64011380337582" lon="6.218877116993886"><ele>1636.1428571428573</ele><time>2026-04-26T09:11:59Z</time></trkpt><trkpt lat="44.640130433631626" lon="6.2189677418848515"><ele>1639.5714285714284</ele><time>2026-04-26T09:12:17Z</time></trkpt><trkpt lat="44.6401741884651" lon="6.219043525358898"><ele>1643.0</ele><time>2026-04-26T09:12:26Z</time></trkpt><trkpt lat="44.64020418043286" lon="6.21912582639624"><ele>1645.2</ele><time>2026-04-26T09:12:34Z</time></trkpt><trkpt lat="44.64035477378708" lon="6.219196588124574"><ele>1647.4</ele><time>2026-04-26T09:13:01Z</time></trkpt><trkpt lat="44.64041345855499" lon="6.2191502322696675"><ele>1649.6000000000001</ele><time>2026-04-26T09:13:05Z</time></trkpt><trkpt lat="44.64049770120374" lon="6.219109971011553"><ele>1651.8000000000002</ele><time>2026-04-26T09:13:09Z</time></trkpt><trkpt lat="44.64056755608502" lon="6.219093723886859"><ele>1654.0</ele><time>2026-04-26T09:13:12Z</time></trkpt><trkpt lat="44.640639334726465" lon="6.219115143190664"><ele>1654.0</ele><time>2026-04-26T09:13:16Z</time></trkpt><trkpt lat="44.64069624062244" lon="6.219180223881379"><ele>1654.0</ele><time>2026-04-26T09:13:19Z</time></trkpt><trkpt lat="44.640757653406936" lon="6.219228268927238"><ele>1654.0</ele><time>2026-04-26T09:13:24Z</time></trkpt><trkpt lat="44.640799079620386" lon="6.21929695859987"><ele>1654.0</ele><time>2026-04-26T09:13:27Z</time></trkpt><trkpt lat="44.64084641226201" lon="6.219374722586044"><ele>1654.0</ele><time>2026-04-26T09:13:31Z</time></trkpt><trkpt lat="44.640873984702644" lon="6.219469911089293"><ele>1654.0</ele><time>2026-04-26T09:13:35Z</time></trkpt><trkpt lat="44.640925632862626" lon="6.2195272602556555"><ele>1654.0</ele><time>2026-04-26T09:13:38Z</time></trkpt><trkpt lat="44.640989353574554" lon="6.21960418558992"><ele>1654.0</ele><time>2026-04-26T09:13:42Z</time></trkpt><trkpt lat="44.64103975232423" lon="6.219676516254988"><ele>1654.0</ele><time>2026-04-26T09:13:46Z</time></trkpt><trkpt lat="44.64109451570963" lon="6.219722420440217"><ele>1654.0</ele><time>2026-04-26T09:13:49Z</time></trkpt><trkpt lat="44.641155109713395" lon="6.219787238906227"><ele>1654.0</ele><time>2026-04-26T09:13:52Z</time></trkpt><trkpt lat="44.64121430583104" lon="6.219817639634472"><ele>1654.0</ele><time>2026-04-26T09:13:55Z</time></trkpt><trkpt lat="44.64126867445599" lon="6.219877347171151"><ele>1654.0</ele><time>2026-04-26T09:13:58Z</time></trkpt><trkpt lat="44.64133364774909" lon="6.219936852824525"><ele>1654.0</ele><time>2026-04-26T09:14:02Z</time></trkpt><trkpt lat="44.64139987069398" lon="6.219987984387482"><ele>1656.6666666666667</ele><time>2026-04-26T09:14:05Z</time></trkpt><trkpt lat="44.64147267218928" lon="6.220032308438549"><ele>1659.3333333333335</ele><time>2026-04-26T09:14:08Z</time></trkpt><trkpt lat="44.641548909621974" lon="6.220074945563529"><ele>1662.0</ele><time>2026-04-26T09:14:11Z</time></trkpt><trkpt lat="44.64160756183537" lon="6.220142031819552"><ele>1664.6666666666665</ele><time>2026-04-26T09:14:14Z</time></trkpt><trkpt lat="44.64166905520415" lon="6.220226509383463"><ele>1667.3333333333333</ele><time>2026-04-26T09:14:17Z</time></trkpt><trkpt lat="44.64171073087941" lon="6.220306992918788"><ele>1670.0</ele><time>2026-04-26T09:14:20Z</time></trkpt><trkpt lat="44.64176036938722" lon="6.220362288506944"><ele>1670.0000000000002</ele><time>2026-04-26T09:14:23Z</time></trkpt><trkpt lat="44.641833223429124" lon="6.220382437282675"><ele>1670.0</ele><time>2026-04-26T09:14:26Z</time></trkpt><trkpt lat="44.64190608817342" lon="6.220381072851556"><ele>1670.0</ele><time>2026-04-26T09:14:29Z</time></trkpt><trkpt lat="44.64198263270597" lon="6.2203959911836515"><ele>1670.0</ele><time>2026-04-26T09:14:32Z</time></trkpt><trkpt lat="44.64204826609569" lon="6.220420734408676"><ele>1670.0</ele><time>2026-04-26T09:14:35Z</time></trkpt><trkpt lat="44.6421083805478" lon="6.2204800606397335"><ele>1670.0000000000002</ele><time>2026-04-26T09:14:38Z</time></trkpt><trkpt lat="44.642158906243054" lon="6.220549132825804"><ele>1670.0</ele><time>2026-04-26T09:14:41Z</time></trkpt><trkpt lat="44.64217335642978" lon="6.2206379462185515"><ele>1671.857142857143</ele><time>2026-04-26T09:14:44Z</time></trkpt><trkpt lat="44.642199094330365" lon="6.220743071723916"><ele>1673.7142857142858</ele><time>2026-04-26T09:14:48Z</time></trkpt><trkpt lat="44.64219956648471" lon="6.22084498775517"><ele>1675.5714285714284</ele><time>2026-04-26T09:14:52Z</time></trkpt><trkpt lat="44.6421904273199" lon="6.220949903369741"><ele>1677.4285714285716</ele><time>2026-04-26T09:14:56Z</time></trkpt><trkpt lat="44.64218967065032" lon="6.221059258996713"><ele>1679.2857142857142</ele><time>2026-04-26T09:15:00Z</time></trkpt><trkpt lat="44.64218815449244" lon="6.2211589566059775"><ele>1681.142857142857</ele><time>2026-04-26T09:15:04Z</time></trkpt><trkpt lat="44.64220782100521" lon="6.221258684226112"><ele>1683.0</ele><time>2026-04-26T09:15:09Z</time></trkpt><trkpt lat="44.642239887529804" lon="6.221383612154852"><ele>1682.9999999999998</ele><time>2026-04-26T09:15:34Z</time></trkpt><trkpt lat="44.64226182165894" lon="6.22146662426934"><ele>1683.0</ele><time>2026-04-26T09:15:43Z</time></trkpt><trkpt lat="44.642281570509695" lon="6.221556131956615"><ele>1683.0</ele><time>2026-04-26T09:15:54Z</time></trkpt><trkpt lat="44.642303319924174" lon="6.221647546855776"><ele>1683.0</ele><time>2026-04-26T09:16:14Z</time></trkpt><trkpt lat="44.64232150817321" lon="6.221749431961293"><ele>1683.0</ele><time>2026-04-26T09:16:18Z</time></trkpt><trkpt lat="44.642340485445004" lon="6.221852788831661"><ele>1682.9999999999998</ele><time>2026-04-26T09:16:23Z</time></trkpt><trkpt lat="44.64237489516806" lon="6.221947709327322"><ele>1683.0</ele><time>2026-04-26T09:16:28Z</time></trkpt><trkpt lat="44.642417292428036" lon="6.222040971221261"><ele>1685.8571428571427</ele><time>2026-04-26T09:16:32Z</time></trkpt><trkpt lat="44.64244702409542" lon="6.222129344115831"><ele>1688.7142857142858</ele><time>2026-04-26T09:16:36Z</time></trkpt><trkpt lat="44.642488175187985" lon="6.222211221868686"><ele>1691.5714285714284</ele><time>2026-04-26T09:16:40Z</time></trkpt><trkpt lat="44.64251714370899" lon="6.2222915307218045"><ele>1694.4285714285713</ele><time>2026-04-26T09:16:44Z</time></trkpt><trkpt lat="44.64256163225162" lon="6.222365164234992"><ele>1697.2857142857142</ele><time>2026-04-26T09:16:48Z</time></trkpt><trkpt lat="44.64258331727012" lon="6.222454415016463"><ele>1700.142857142857</ele><time>2026-04-26T09:16:52Z</time></trkpt><trkpt lat="44.64263264122939" lon="6.222515350261734"><ele>1703.0</ele><time>2026-04-26T09:16:56Z</time></trkpt><trkpt lat="44.642662389526066" lon="6.2226052003485455"><ele>1701.7142857142858</ele><time>2026-04-26T09:17:21Z</time></trkpt><trkpt lat="44.642682671397594" lon="6.222692731432682"><ele>1700.4285714285713</ele><time>2026-04-26T09:17:37Z</time></trkpt><trkpt lat="44.64272358743426" lon="6.222760436092807"><ele>1699.142857142857</ele><time>2026-04-26T09:18:02Z</time></trkpt><trkpt lat="44.642785201260075" lon="6.222799602465612"><ele>1697.857142857143</ele><time>2026-04-26T09:18:16Z</time></trkpt><trkpt lat="44.64284074522122" lon="6.222845036389505"><ele>1696.5714285714284</ele><time>2026-04-26T09:18:26Z</time></trkpt><trkpt lat="44.642921750384936" lon="6.222875390377619"><ele>1695.2857142857142</ele><time>2026-04-26T09:18:56Z</time></trkpt><trkpt lat="44.64300758107637" lon="6.222911138956647"><ele>1694.0</ele><time>2026-04-26T09:18:59Z</time></trkpt><trkpt lat="44.64307159413697" lon="6.222954340208388"><ele>1693.9999999999998</ele><time>2026-04-26T09:19:01Z</time></trkpt><trkpt lat="44.64314423258077" lon="6.223046365051722"><ele>1694.0</ele><time>2026-04-26T09:19:04Z</time></trkpt><trkpt lat="44.64322492595743" lon="6.223079240608932"><ele>1694.0</ele><time>2026-04-26T09:19:06Z</time></trkpt><trkpt lat="44.64329037793424" lon="6.223093232129818"><ele>1694.0</ele><time>2026-04-26T09:19:08Z</time></trkpt><trkpt lat="44.64336937632424" lon="6.223066805077966"><ele>1693.9999999999998</ele><time>2026-04-26T09:19:11Z</time></trkpt><trkpt lat="44.64337683213193" lon="6.22295907130658"><ele>1694.0</ele><time>2026-04-26T09:19:15Z</time></trkpt><trkpt lat="44.64331730764678" lon="6.222878573462918"><ele>1693.9999999999998</ele><time>2026-04-26T09:19:20Z</time></trkpt><trkpt lat="44.64324820956667" lon="6.222813247410788"><ele>1694.0</ele><time>2026-04-26T09:19:23Z</time></trkpt><trkpt lat="44.64319970762289" lon="6.2227183399697585"><ele>1694.0</ele><time>2026-04-26T09:19:25Z</time></trkpt><trkpt lat="44.64314682656353" lon="6.222620460063151"><ele>1694.0</ele><time>2026-04-26T09:19:28Z</time></trkpt><trkpt lat="44.64309943084246" lon="6.222536862797057"><ele>1693.9999999999998</ele><time>2026-04-26T09:19:30Z</time></trkpt><trkpt lat="44.6430557763642" lon="6.222465076592213"><ele>1694.0</ele><time>2026-04-26T09:19:32Z</time></trkpt><trkpt lat="44.643006964046116" lon="6.222389157872062"><ele>1695.2857142857142</ele><time>2026-04-26T09:19:36Z</time></trkpt><trkpt lat="44.64295552625488" lon="6.22230137095162"><ele>1696.5714285714284</ele><time>2026-04-26T09:19:39Z</time></trkpt><trkpt lat="44.64292135889906" lon="6.222212147761531"><ele>1697.857142857143</ele><time>2026-04-26T09:19:41Z</time></trkpt><trkpt lat="44.64287729519158" lon="6.222119166962421"><ele>1699.142857142857</ele><time>2026-04-26T09:19:43Z</time></trkpt><trkpt lat="44.64285787460126" lon="6.222032650927627"><ele>1700.4285714285713</ele><time>2026-04-26T09:19:45Z</time></trkpt><trkpt lat="44.642837473910724" lon="6.221947631752644"><ele>1701.7142857142858</ele><time>2026-04-26T09:19:47Z</time></trkpt><trkpt lat="44.64276642145828" lon="6.221893801776361"><ele>1703.0</ele><time>2026-04-26T09:19:49Z</time></trkpt><trkpt lat="44.64270926183637" lon="6.221809316594294"><ele>1702.9999999999998</ele><time>2026-04-26T09:19:51Z</time></trkpt><trkpt lat="44.64266064605357" lon="6.2217327046968425"><ele>1703.0</ele><time>2026-04-26T09:19:53Z</time></trkpt><trkpt lat="44.6426367755088" lon="6.2216093462638575"><ele>1703.0</ele><time>2026-04-26T09:19:56Z</time></trkpt><trkpt lat="44.642613032089514" lon="6.221496062243963"><ele>1703.0</ele><time>2026-04-26T09:19:59Z</time></trkpt><trkpt lat="44.64258160949011" lon="6.221386014682304"><ele>1702.9999999999998</ele><time>2026-04-26T09:20:02Z</time></trkpt><trkpt lat="44.642549179679364" lon="6.221300275217515"><ele>1703.0</ele><time>2026-04-26T09:20:04Z</time></trkpt><trkpt lat="44.642516498789334" lon="6.2211943493885515"><ele>1700.142857142857</ele><time>2026-04-26T09:20:07Z</time></trkpt><trkpt lat="44.64246994801131" lon="6.22110312958495"><ele>1697.2857142857142</ele><time>2026-04-26T09:20:10Z</time></trkpt><trkpt lat="44.64247557447719" lon="6.221001283177915"><ele>1694.4285714285713</ele><time>2026-04-26T09:20:13Z</time></trkpt><trkpt lat="44.64246670961765" lon="6.220888029421624"><ele>1691.5714285714284</ele><time>2026-04-26T09:20:17Z</time></trkpt><trkpt lat="44.64246878707494" lon="6.220787104518106"><ele>1688.7142857142858</ele><time>2026-04-26T09:20:21Z</time></trkpt><trkpt lat="44.642449594214334" lon="6.220696578572631"><ele>1685.8571428571427</ele><time>2026-04-26T09:20:29Z</time></trkpt><trkpt lat="44.642450623930635" lon="6.220601968568011"><ele>1683.0</ele><time>2026-04-26T09:20:35Z</time></trkpt><trkpt lat="44.64251347499649" lon="6.220587402742434"><ele>1682.9999999999998</ele><time>2026-04-26T09:20:45Z</time></trkpt><trkpt lat="44.64255898965908" lon="6.220654237085613"><ele>1683.0</ele><time>2026-04-26T09:20:50Z</time></trkpt><trkpt lat="44.64259921473491" lon="6.220738534693487"><ele>1683.0</ele><time>2026-04-26T09:20:56Z</time></trkpt><trkpt lat="44.64262490793718" lon="6.220830971286602"><ele>1683.0</ele><time>2026-04-26T09:20:59Z</time></trkpt><trkpt lat="44.642665305783844" lon="6.220921269722542"><ele>1683.0</ele><time>2026-04-26T09:21:03Z</time></trkpt><trkpt lat="44.64270196766702" lon="6.220998306617617"><ele>1682.9999999999998</ele><time>2026-04-26T09:21:08Z</time></trkpt><trkpt lat="44.64274624619771" lon="6.2210734173982365"><ele>1683.0</ele><time>2026-04-26T09:21:13Z</time></trkpt><trkpt lat="44.64279687419371" lon="6.2211454631186776"><ele>1677.5714285714284</ele><time>2026-04-26T09:21:18Z</time></trkpt><trkpt lat="44.64284320535349" lon="6.221210726028936"><ele>1672.142857142857</ele><time>2026-04-26T09:21:23Z</time></trkpt><trkpt lat="44.64289700888133" lon="6.22126303047418"><ele>1666.7142857142858</ele><time>2026-04-26T09:21:28Z</time></trkpt><trkpt lat="44.64297201205298" lon="6.221288901104936"><ele>1661.2857142857142</ele><time>2026-04-26T09:21:33Z</time></trkpt><trkpt lat="44.64304312135663" lon="6.221294609346419"><ele>1655.857142857143</ele><time>2026-04-26T09:21:37Z</time></trkpt><trkpt lat="44.64313419294957" lon="6.221310247822899"><ele>1650.4285714285713</ele><time>2026-04-26T09:21:41Z</time></trkpt><trkpt lat="44.64320072542662" lon="6.221318354615811"><ele>1645.0</ele><time>2026-04-26T09:21:43Z</time></trkpt><trkpt lat="44.6432772238277" lon="6.221355163883218"><ele>1645.0</ele><time>2026-04-26T09:21:45Z</time></trkpt><trkpt lat="44.64333882287234" lon="6.221393616304557"><ele>1645.0</ele><time>2026-04-26T09:21:47Z</time></trkpt><trkpt lat="44.64338943508391" lon="6.221449883723351"><ele>1645.0</ele><time>2026-04-26T09:21:49Z</time></trkpt><trkpt lat="44.64345862993449" lon="6.22149463774377"><ele>1645.0</ele><time>2026-04-26T09:21:51Z</time></trkpt><trkpt lat="44.64350555553965" lon="6.221416872955569"><ele>1645.0</ele><time>2026-04-26T09:21:53Z</time></trkpt><trkpt lat="44.64351870035795" lon="6.221324901446185"><ele>1645.0</ele><time>2026-04-26T09:21:56Z</time></trkpt><trkpt lat="44.64346871367596" lon="6.221255246157769"><ele>1645.0</ele><time>2026-04-26T09:21:59Z</time></trkpt><trkpt lat="44.643411490344114" lon="6.221196896391186"><ele>1645.0000000000002</ele><time>2026-04-26T09:22:01Z</time></trkpt><trkpt lat="44.64333884469976" lon="6.221109063901946"><ele>1645.0</ele><time>2026-04-26T09:22:03Z</time></trkpt><trkpt lat="44.6432763559685" lon="6.221008589260146"><ele>1645.0</ele><time>2026-04-26T09:22:05Z</time></trkpt><trkpt lat="44.64321827823903" lon="6.220914546673024"><ele>1645.0</ele><time>2026-04-26T09:22:08Z</time></trkpt><trkpt lat="44.643184521564166" lon="6.220834414447186"><ele>1645.0000000000002</ele><time>2026-04-26T09:22:11Z</time></trkpt><trkpt lat="44.64316730771837" lon="6.220740775602176"><ele>1645.0</ele><time>2026-04-26T09:22:16Z</time></trkpt><trkpt lat="44.643130333175044" lon="6.220649090870822"><ele>1641.857142857143</ele><time>2026-04-26T09:22:20Z</time></trkpt><trkpt lat="44.64310735788462" lon="6.220541651133822"><ele>1638.7142857142858</ele><time>2026-04-26T09:22:24Z</time></trkpt><trkpt lat="44.64309667968871" lon="6.220443634484024"><ele>1635.5714285714284</ele><time>2026-04-26T09:22:28Z</time></trkpt><trkpt lat="44.643090135387546" lon="6.22033944748699"><ele>1632.4285714285716</ele><time>2026-04-26T09:22:33Z</time></trkpt><trkpt lat="44.64308539938046" lon="6.220248526256162"><ele>1629.2857142857142</ele><time>2026-04-26T09:22:36Z</time></trkpt><trkpt lat="44.643081715322616" lon="6.220136023175986"><ele>1626.142857142857</ele><time>2026-04-26T09:22:39Z</time></trkpt><trkpt lat="44.64306561667451" lon="6.220027129188715"><ele>1623.0</ele><time>2026-04-26T09:22:41Z</time></trkpt><trkpt lat="44.643049117858205" lon="6.219921334689084"><ele>1623.0</ele><time>2026-04-26T09:22:43Z</time></trkpt><trkpt lat="44.64302806686494" lon="6.219827218189903"><ele>1623.0</ele><time>2026-04-26T09:22:45Z</time></trkpt><trkpt lat="44.643024463123396" lon="6.219719489580267"><ele>1623.0</ele><time>2026-04-26T09:22:48Z</time></trkpt><trkpt lat="44.6430841407507" lon="6.219670210875219"><ele>1623.0</ele><time>2026-04-26T09:22:53Z</time></trkpt><trkpt lat="44.64314535865016" lon="6.219709716093472"><ele>1623.0</ele><time>2026-04-26T09:23:00Z</time></trkpt><trkpt lat="44.64318439748594" lon="6.219792729430226"><ele>1623.0</ele><time>2026-04-26T09:23:09Z</time></trkpt><trkpt lat="44.64321590937169" lon="6.219889215466493"><ele>1623.0</ele><time>2026-04-26T09:23:13Z</time></trkpt><trkpt lat="44.64324802701502" lon="6.219973435363514"><ele>1623.0</ele><time>2026-04-26T09:23:16Z</time></trkpt><trkpt lat="44.643295291606854" lon="6.22005920369759"><ele>1623.0</ele><time>2026-04-26T09:23:20Z</time></trkpt><trkpt lat="44.64335480254483" lon="6.220123398465366"><ele>1623.0</ele><time>2026-04-26T09:23:25Z</time></trkpt><trkpt lat="44.64342581800466" lon="6.220162081095917"><ele>1623.0</ele><time>2026-04-26T09:23:30Z</time></trkpt><trkpt lat="44.643492716420205" lon="6.2201798210966315"><ele>1623.0</ele><time>2026-04-26T09:23:33Z</time></trkpt><trkpt lat="44.643565624032604" lon="6.220204395092407"><ele>1623.0</ele><time>2026-04-26T09:23:36Z</time></trkpt><trkpt lat="44.643643099332145" lon="6.220196602892589"><ele>1623.0</ele><time>2026-04-26T09:23:39Z</time></trkpt><trkpt lat="44.643722439522506" lon="6.220192229854223"><ele>1618.4285714285713</ele><time>2026-04-26T09:23:43Z</time></trkpt><trkpt lat="44.64379855058669" lon="6.220247587245903"><ele>1613.8571428571427</ele><time>2026-04-26T09:23:48Z</time></trkpt><trkpt lat="44.643863671991376" lon="6.220297149307452"><ele>1609.2857142857142</ele><time>2026-04-26T09:23:52Z</time></trkpt><trkpt lat="44.643924392306296" lon="6.220338650881828"><ele>1604.7142857142858</ele><time>2026-04-26T09:23:58Z</time></trkpt><trkpt lat="44.64398829784407" lon="6.220353344402392"><ele>1600.142857142857</ele><time>2026-04-26T09:24:03Z</time></trkpt><trkpt lat="44.64405388706804" lon="6.220332642778578"><ele>1595.5714285714287</ele><time>2026-04-26T09:24:07Z</time></trkpt><trkpt lat="44.644133342670166" lon="6.220317816878884"><ele>1591.0</ele><time>2026-04-26T09:24:10Z</time></trkpt><trkpt lat="44.64420797673403" lon="6.220334754500666"><ele>1591.0000000000002</ele><time>2026-04-26T09:24:29Z</time></trkpt><trkpt lat="44.64427400307579" lon="6.220340602269892"><ele>1591.0</ele><time>2026-04-26T09:24:31Z</time></trkpt><trkpt lat="44.644338042369455" lon="6.220321194370917"><ele>1591.0</ele><time>2026-04-26T09:24:33Z</time></trkpt><trkpt lat="44.64431310399055" lon="6.220112734574217"><ele>1591.0</ele><time>2026-04-26T09:25:29Z</time></trkpt><trkpt lat="44.64426696615117" lon="6.2200139670136"><ele>1591.0000000000002</ele><time>2026-04-26T09:25:32Z</time></trkpt><trkpt lat="44.64422889586745" lon="6.2199161697364245"><ele>1591.0</ele><time>2026-04-26T09:25:35Z</time></trkpt><trkpt lat="44.64418796868403" lon="6.219834511206761"><ele>1586.5000000000002</ele><time>2026-04-26T09:25:38Z</time></trkpt><trkpt lat="44.64415294186126" lon="6.219742427984259"><ele>1582.0</ele><time>2026-04-26T09:25:42Z</time></trkpt><trkpt lat="44.644099477736425" lon="6.219637987838942"><ele>1577.5</ele><time>2026-04-26T09:25:45Z</time></trkpt><trkpt lat="44.64403918044138" lon="6.219532648617624"><ele>1573.0</ele><time>2026-04-26T09:25:48Z</time></trkpt><trkpt lat="44.643983518397036" lon="6.219435023862626"><ele>1568.5000000000002</ele><time>2026-04-26T09:25:51Z</time></trkpt><trkpt lat="44.64393678797488" lon="6.219347771747381"><ele>1564.0</ele><time>2026-04-26T09:25:53Z</time></trkpt><trkpt lat="44.643867716325964" lon="6.219242336754672"><ele>1564.0</ele><time>2026-04-26T09:25:55Z</time></trkpt><trkpt lat="44.6438004133654" lon="6.219149095517887"><ele>1564.0</ele><time>2026-04-26T09:25:57Z</time></trkpt><trkpt lat="44.6437352354629" lon="6.219075952955957"><ele>1564.0</ele><time>2026-04-26T09:25:59Z</time></trkpt><trkpt lat="44.64367751417678" lon="6.219022067065331"><ele>1564.0</ele><time>2026-04-26T09:26:01Z</time></trkpt><trkpt lat="44.643576340213876" lon="6.218967601379281"><ele>1564.0</ele><time>2026-04-26T09:26:04Z</time></trkpt><trkpt lat="44.6434924698338" lon="6.218883336826976"><ele>1560.8000000000002</ele><time>2026-04-26T09:26:06Z</time></trkpt><trkpt lat="44.643396505384175" lon="6.218803173504264"><ele>1557.6000000000001</ele><time>2026-04-26T09:26:08Z</time></trkpt><trkpt lat="44.64330908077008" lon="6.218744474794975"><ele>1554.4</ele><time>2026-04-26T09:26:10Z</time></trkpt><trkpt lat="44.643230674520765" lon="6.218673194845921"><ele>1551.2</ele><time>2026-04-26T09:26:12Z</time></trkpt><trkpt lat="44.64314385897085" lon="6.218622731628819"><ele>1548.0</ele><time>2026-04-26T09:26:14Z</time></trkpt><trkpt lat="44.64305407333154" lon="6.218562088721207"><ele>1548.0</ele><time>2026-04-26T09:26:16Z</time></trkpt><trkpt lat="44.6429603250107" lon="6.218494224120617"><ele>1548.0</ele><time>2026-04-26T09:26:18Z</time></trkpt><trkpt lat="44.64290046009942" lon="6.21844582628916"><ele>1548.0</ele><time>2026-04-26T09:26:20Z</time></trkpt><trkpt lat="44.64281989046244" lon="6.218377978714234"><ele>1548.0</ele><time>2026-04-26T09:26:22Z</time></trkpt><trkpt lat="44.64273009022176" lon="6.218315311726139"><ele>1548.0</ele><time>2026-04-26T09:26:24Z</time></trkpt><trkpt lat="44.64263239064668" lon="6.2182596818163365"><ele>1545.6000000000001</ele><time>2026-04-26T09:26:26Z</time></trkpt><trkpt lat="44.64253185730406" lon="6.2182010763644096"><ele>1543.2</ele><time>2026-04-26T09:26:28Z</time></trkpt><trkpt lat="44.64245255988132" lon="6.218129970394041"><ele>1540.8</ele><time>2026-04-26T09:26:30Z</time></trkpt><trkpt lat="44.6423663810153" lon="6.218052594668831"><ele>1538.4</ele><time>2026-04-26T09:26:32Z</time></trkpt><trkpt lat="44.64228479205068" lon="6.217969925621183"><ele>1536.0</ele><time>2026-04-26T09:26:34Z</time></trkpt><trkpt lat="44.64220051955098" lon="6.217892376534019"><ele>1536.0</ele><time>2026-04-26T09:26:36Z</time></trkpt><trkpt lat="44.64211050642964" lon="6.217790825775993"><ele>1536.0</ele><time>2026-04-26T09:26:38Z</time></trkpt><trkpt lat="44.64204750088593" lon="6.217700293618598"><ele>1536.0</ele><time>2026-04-26T09:26:40Z</time></trkpt><trkpt lat="44.64199292710202" lon="6.217613653346726"><ele>1536.0</ele><time>2026-04-26T09:26:42Z</time></trkpt><trkpt lat="44.64195125979549" lon="6.217539347466102"><ele>1536.0</ele><time>2026-04-26T09:26:44Z</time></trkpt><trkpt lat="44.64191749062129" lon="6.217463913498521"><ele>1536.0</ele><time>2026-04-26T09:26:46Z</time></trkpt><trkpt lat="44.64187005208225" lon="6.217388636664346"><ele>1533.6666666666667</ele><time>2026-04-26T09:26:48Z</time></trkpt><trkpt lat="44.64185646475007" lon="6.217297632625777"><ele>1531.3333333333333</ele><time>2026-04-26T09:26:51Z</time></trkpt><trkpt lat="44.64183093504647" lon="6.217205830791639"><ele>1529.0</ele><time>2026-04-26T09:26:54Z</time></trkpt><trkpt lat="44.64175429113398" lon="6.217135596943567"><ele>1526.6666666666665</ele><time>2026-04-26T09:26:57Z</time></trkpt><trkpt lat="44.641690644951034" lon="6.217094848909187"><ele>1524.3333333333333</ele><time>2026-04-26T09:26:59Z</time></trkpt><trkpt lat="44.641623985538025" lon="6.217022284588661"><ele>1522.0</ele><time>2026-04-26T09:27:01Z</time></trkpt><trkpt lat="44.64152156947849" lon="6.216918802823337"><ele>1522.0</ele><time>2026-04-26T09:27:03Z</time></trkpt><trkpt lat="44.64146588954745" lon="6.2168273894377775"><ele>1522.0</ele><time>2026-04-26T09:27:05Z</time></trkpt><trkpt lat="44.64139860084529" lon="6.216718545575777"><ele>1522.0</ele><time>2026-04-26T09:27:07Z</time></trkpt><trkpt lat="44.641342706285506" lon="6.216609580263887"><ele>1522.0</ele><time>2026-04-26T09:27:09Z</time></trkpt><trkpt lat="44.64131387899553" lon="6.216524719649556"><ele>1522.0</ele><time>2026-04-26T09:27:11Z</time></trkpt><trkpt lat="44.64132525963494" lon="6.216424602320185"><ele>1522.0</ele><time>2026-04-26T09:27:14Z</time></trkpt><trkpt lat="44.64133440879722" lon="6.216334280975845"><ele>1518.8571428571427</ele><time>2026-04-26T09:27:18Z</time></trkpt><trkpt lat="44.64131243414948" lon="6.216245724527518"><ele>1515.7142857142858</ele><time>2026-04-26T09:27:22Z</time></trkpt><trkpt lat="44.641292262859565" lon="6.216134838332569"><ele>1512.5714285714284</ele><time>2026-04-26T09:27:26Z</time></trkpt><trkpt lat="44.641268968813876" lon="6.216050710586606"><ele>1509.4285714285713</ele><time>2026-04-26T09:27:49Z</time></trkpt><trkpt lat="44.64125421952261" lon="6.215927430786993"><ele>1506.2857142857142</ele><time>2026-04-26T09:27:52Z</time></trkpt><trkpt lat="44.64124576190347" lon="6.215824157195882"><ele>1503.142857142857</ele><time>2026-04-26T09:27:55Z</time></trkpt><trkpt lat="44.6412553630683" lon="6.215723641182334"><ele>1500.0</ele><time>2026-04-26T09:27:59Z</time></trkpt><trkpt lat="44.6412485730692" lon="6.21559843209823"><ele>1497.7142857142858</ele><time>2026-04-26T09:28:02Z</time></trkpt><trkpt lat="44.6412329738081" lon="6.215510414408526"><ele>1495.4285714285713</ele><time>2026-04-26T09:28:04Z</time></trkpt><trkpt lat="44.64121246612944" lon="6.2154018731935095"><ele>1493.142857142857</ele><time>2026-04-26T09:28:06Z</time></trkpt><trkpt lat="44.64121365943103" lon="6.215307549643049"><ele>1490.857142857143</ele><time>2026-04-26T09:28:08Z</time></trkpt><trkpt lat="44.641210001117365" lon="6.215218243232398"><ele>1488.5714285714284</ele><time>2026-04-26T09:28:10Z</time></trkpt><trkpt lat="44.64119153702561" lon="6.215119694478543"><ele>1486.2857142857142</ele><time>2026-04-26T09:28:14Z</time></trkpt><trkpt lat="44.64113359077574" lon="6.215034317919151"><ele>1484.0</ele><time>2026-04-26T09:28:17Z</time></trkpt><trkpt lat="44.64111418583607" lon="6.214929084121246"><ele>1486.3333333333335</ele><time>2026-04-26T09:28:20Z</time></trkpt><trkpt lat="44.64110661692308" lon="6.21483884130407"><ele>1488.6666666666667</ele><time>2026-04-26T09:28:22Z</time></trkpt><trkpt lat="44.641116215801155" lon="6.214718788912109"><ele>1491.0</ele><time>2026-04-26T09:28:25Z</time></trkpt><trkpt lat="44.64112408484755" lon="6.214608191442605"><ele>1493.3333333333333</ele><time>2026-04-26T09:28:27Z</time></trkpt><trkpt lat="44.6411143019051" lon="6.214501903959405"><ele>1495.6666666666665</ele><time>2026-04-26T09:28:29Z</time></trkpt><trkpt lat="44.64109321389751" lon="6.214413641611641"><ele>1498.0</ele><time>2026-04-26T09:28:31Z</time></trkpt><trkpt lat="44.64106373811622" lon="6.214300059646723"><ele>1498.0</ele><time>2026-04-26T09:28:33Z</time></trkpt><trkpt lat="44.64106490099147" lon="6.214190226391716"><ele>1498.0</ele><time>2026-04-26T09:28:35Z</time></trkpt><trkpt lat="44.6410602989383" lon="6.214059886835119"><ele>1498.0</ele><time>2026-04-26T09:28:37Z</time></trkpt><trkpt lat="44.641034216029" lon="6.213924227331953"><ele>1498.0</ele><time>2026-04-26T09:28:39Z</time></trkpt><trkpt lat="44.640989548666965" lon="6.213790078034132"><ele>1498.0</ele><time>2026-04-26T09:28:41Z</time></trkpt><trkpt lat="44.64093736230146" lon="6.2136448293952435"><ele>1493.0</ele><time>2026-04-26T09:28:43Z</time></trkpt><trkpt lat="44.64087666513938" lon="6.213511148802728"><ele>1488.0</ele><time>2026-04-26T09:28:45Z</time></trkpt><trkpt lat="44.64081095687055" lon="6.213389254333964"><ele>1483.0</ele><time>2026-04-26T09:28:47Z</time></trkpt><trkpt lat="44.64074585094284" lon="6.213237120715679"><ele>1478.0</ele><time>2026-04-26T09:28:49Z</time></trkpt><trkpt lat="44.64071458760891" lon="6.213157060282863"><ele>1473.0</ele><time>2026-04-26T09:28:50Z</time></trkpt><trkpt lat="44.64065412747454" lon="6.21299985796782"><ele>1471.2</ele><time>2026-04-26T09:28:52Z</time></trkpt><trkpt lat="44.640623517866814" lon="6.212917945017241"><ele>1469.4</ele><time>2026-04-26T09:28:53Z</time></trkpt><trkpt lat="44.64057479591877" lon="6.212780227383527"><ele>1467.6000000000001</ele><time>2026-04-26T09:28:55Z</time></trkpt><trkpt lat="44.640517935871955" lon="6.212653503303373"><ele>1465.8000000000002</ele><time>2026-04-26T09:28:57Z</time></trkpt><trkpt lat="44.64046842898667" lon="6.212525742104562"><ele>1464.0</ele><time>2026-04-26T09:28:59Z</time></trkpt><trkpt lat="44.64042839157299" lon="6.212407755608617"><ele>1464.0</ele><time>2026-04-26T09:29:01Z</time></trkpt><trkpt lat="44.6403989341081" lon="6.212304213933056"><ele>1464.0</ele><time>2026-04-26T09:29:06Z</time></trkpt><trkpt lat="44.64035528539411" lon="6.21222062855108"><ele>1464.0</ele><time>2026-04-26T09:29:09Z</time></trkpt><trkpt lat="44.64031930061063" lon="6.2121428923504025"><ele>1464.0</ele><time>2026-04-26T09:29:11Z</time></trkpt><trkpt lat="44.64027122758299" lon="6.212039963015811"><ele>1464.0</ele><time>2026-04-26T09:29:14Z</time></trkpt><trkpt lat="44.64022242865417" lon="6.211958491150305"><ele>1464.0</ele><time>2026-04-26T09:29:16Z</time></trkpt><trkpt lat="44.640170254647025" lon="6.211880330195167"><ele>1465.0</ele><time>2026-04-26T09:29:18Z</time></trkpt><trkpt lat="44.64011298872984" lon="6.211771873596514"><ele>1466.0</ele><time>2026-04-26T09:29:20Z</time></trkpt><trkpt lat="44.64005492328368" lon="6.211665174710872"><ele>1467.0</ele><time>2026-04-26T09:29:22Z</time></trkpt><trkpt lat="44.63998022010132" lon="6.211571315055268"><ele>1468.0</ele><time>2026-04-26T09:29:24Z</time></trkpt><trkpt lat="44.63990022012839" lon="6.2114705546274145"><ele>1469.0</ele><time>2026-04-26T09:29:26Z</time></trkpt><trkpt lat="44.639823555287705" lon="6.211379325259816"><ele>1467.0</ele><time>2026-04-26T09:29:28Z</time></trkpt><trkpt lat="44.63974860257276" lon="6.211296981816203"><ele>1465.0</ele><time>2026-04-26T09:29:30Z</time></trkpt><trkpt lat="44.639677322539434" lon="6.211199812041327"><ele>1463.0</ele><time>2026-04-26T09:29:32Z</time></trkpt><trkpt lat="44.6396216469085" lon="6.211109065557324"><ele>1461.0</ele><time>2026-04-26T09:29:34Z</time></trkpt><trkpt lat="44.63957875534856" lon="6.211009514751716"><ele>1459.0</ele><time>2026-04-26T09:29:36Z</time></trkpt><trkpt lat="44.63955207384903" lon="6.2109178072374185"><ele>1457.0</ele><time>2026-04-26T09:29:38Z</time></trkpt><trkpt lat="44.63951164815728" lon="6.21079010823279"><ele>1457.0</ele><time>2026-04-26T09:29:41Z</time></trkpt><trkpt lat="44.63948236203908" lon="6.210687774386297"><ele>1457.0</ele><time>2026-04-26T09:29:43Z</time></trkpt><trkpt lat="44.63945767366206" lon="6.210578326344071"><ele>1457.0</ele><time>2026-04-26T09:29:45Z</time></trkpt><trkpt lat="44.63943805630495" lon="6.210478133739615"><ele>1457.0</ele><time>2026-04-26T09:29:47Z</time></trkpt><trkpt lat="44.63941307274478" lon="6.210369286747716"><ele>1457.0</ele><time>2026-04-26T09:29:49Z</time></trkpt><trkpt lat="44.639398958353915" lon="6.210257461444445"><ele>1457.0</ele><time>2026-04-26T09:29:51Z</time></trkpt><trkpt lat="44.639372536750656" lon="6.210159412922565"><ele>1458.8</ele><time>2026-04-26T09:29:53Z</time></trkpt><trkpt lat="44.63934087011047" lon="6.210023979633668"><ele>1460.6</ele><time>2026-04-26T09:29:55Z</time></trkpt><trkpt lat="44.63930643205905" lon="6.209874324838862"><ele>1462.3999999999999</ele><time>2026-04-26T09:29:57Z</time></trkpt><trkpt lat="44.639302708080905" lon="6.209729087640826"><ele>1464.1999999999998</ele><time>2026-04-26T09:29:59Z</time></trkpt><trkpt lat="44.63930541512015" lon="6.2095782857414"><ele>1466.0</ele><time>2026-04-26T09:30:01Z</time></trkpt><trkpt lat="44.6393025767498" lon="6.2094422992575184"><ele>1466.0</ele><time>2026-04-26T09:30:03Z</time></trkpt><trkpt lat="44.63931159149681" lon="6.209320122293732"><ele>1466.0</ele><time>2026-04-26T09:30:05Z</time></trkpt><trkpt lat="44.63931146559717" lon="6.209184993459423"><ele>1466.0</ele><time>2026-04-26T09:30:07Z</time></trkpt><trkpt lat="44.639313481295396" lon="6.209037933677586"><ele>1466.0</ele><time>2026-04-26T09:30:09Z</time></trkpt><trkpt lat="44.639323103660146" lon="6.2088936129156505"><ele>1466.0</ele><time>2026-04-26T09:30:11Z</time></trkpt><trkpt lat="44.63932938592623" lon="6.208739510512897"><ele>1465.5</ele><time>2026-04-26T09:30:13Z</time></trkpt><trkpt lat="44.639341951414515" lon="6.208604054259967"><ele>1465.0</ele><time>2026-04-26T09:30:15Z</time></trkpt><trkpt lat="44.63935976954812" lon="6.20846189006756"><ele>1464.5</ele><time>2026-04-26T09:30:17Z</time></trkpt><trkpt lat="44.63937778018973" lon="6.208342190848415"><ele>1464.0</ele><time>2026-04-26T09:30:19Z</time></trkpt><trkpt lat="44.63938876982939" lon="6.208237702289574"><ele>1463.5</ele><time>2026-04-26T09:30:21Z</time></trkpt><trkpt lat="44.63939177858229" lon="6.208144982545998"><ele>1463.0</ele><time>2026-04-26T09:30:23Z</time></trkpt><trkpt lat="44.63940825033197" lon="6.208056727066723"><ele>1461.4285714285713</ele><time>2026-04-26T09:30:25Z</time></trkpt><trkpt lat="44.63941220249402" lon="6.207947569292015"><ele>1459.857142857143</ele><time>2026-04-26T09:30:28Z</time></trkpt><trkpt lat="44.63942193772036" lon="6.207845039625919"><ele>1458.2857142857142</ele><time>2026-04-26T09:30:33Z</time></trkpt><trkpt lat="44.639448734239586" lon="6.207762736158003"><ele>1456.7142857142858</ele><time>2026-04-26T09:30:35Z</time></trkpt><trkpt lat="44.63946899578411" lon="6.207674403842141"><ele>1455.142857142857</ele><time>2026-04-26T09:30:37Z</time></trkpt><trkpt lat="44.639489248538936" lon="6.207565102023021"><ele>1453.5714285714284</ele><time>2026-04-26T09:30:39Z</time></trkpt><trkpt lat="44.639522100244534" lon="6.207488368127325"><ele>1452.0</ele><time>2026-04-26T09:30:41Z</time></trkpt><trkpt lat="44.6395439736744" lon="6.207390320988091"><ele>1448.0</ele><time>2026-04-26T09:30:43Z</time></trkpt><trkpt lat="44.639553910066006" lon="6.207286909982259"><ele>1444.0</ele><time>2026-04-26T09:30:45Z</time></trkpt><trkpt lat="44.63958453049529" lon="6.207174552796302"><ele>1440.0</ele><time>2026-04-26T09:30:47Z</time></trkpt><trkpt lat="44.639619669274204" lon="6.207084200076274"><ele>1436.0</ele><time>2026-04-26T09:30:49Z</time></trkpt><trkpt lat="44.639632652504986" lon="6.206945550268606"><ele>1432.0</ele><time>2026-04-26T09:30:51Z</time></trkpt><trkpt lat="44.639624760998984" lon="6.206799816091218"><ele>1428.0</ele><time>2026-04-26T09:30:53Z</time></trkpt><trkpt lat="44.63961646079851" lon="6.206640117301081"><ele>1428.0</ele><time>2026-04-26T09:30:55Z</time></trkpt><trkpt lat="44.639593804749374" lon="6.206523598793623"><ele>1428.0</ele><time>2026-04-26T09:30:57Z</time></trkpt><trkpt lat="44.63958806272978" lon="6.206319907025168"><ele>1428.0</ele><time>2026-04-26T09:31:00Z</time></trkpt><trkpt lat="44.639596276450746" lon="6.206201693324767"><ele>1428.0</ele><time>2026-04-26T09:31:01Z</time></trkpt><trkpt lat="44.63959125151302" lon="6.206091509743941"><ele>1428.0</ele><time>2026-04-26T09:31:02Z</time></trkpt><trkpt lat="44.63957315806307" lon="6.205984149970789"><ele>1426.4</ele><time>2026-04-26T09:31:03Z</time></trkpt><trkpt lat="44.63956968029948" lon="6.205872807461105"><ele>1424.8000000000002</ele><time>2026-04-26T09:31:04Z</time></trkpt><trkpt lat="44.63958540811829" lon="6.205771009879114"><ele>1423.2</ele><time>2026-04-26T09:31:05Z</time></trkpt><trkpt lat="44.639614159724225" lon="6.205565596656578"><ele>1421.6</ele><time>2026-04-26T09:31:07Z</time></trkpt><trkpt lat="44.63962432689498" lon="6.205444611821888"><ele>1420.0</ele><time>2026-04-26T09:31:08Z</time></trkpt><trkpt lat="44.63961228989124" lon="6.205315526001209"><ele>1420.3333333333333</ele><time>2026-04-26T09:31:09Z</time></trkpt><trkpt lat="44.63955610228893" lon="6.2052031048676355"><ele>1420.6666666666665</ele><time>2026-04-26T09:31:11Z</time></trkpt><trkpt lat="44.63952812817234" lon="6.205119173587351"><ele>1421.0</ele><time>2026-04-26T09:31:12Z</time></trkpt><trkpt lat="44.63950127818065" lon="6.2050322203706525"><ele>1421.3333333333333</ele><time>2026-04-26T09:31:13Z</time></trkpt><trkpt lat="44.63945728904574" lon="6.204877933965913"><ele>1421.6666666666667</ele><time>2026-04-26T09:31:15Z</time></trkpt><trkpt lat="44.63945949659413" lon="6.204780108178029"><ele>1422.0</ele><time>2026-04-26T09:31:16Z</time></trkpt><trkpt lat="44.63942137066418" lon="6.204707035460303"><ele>1422.0</ele><time>2026-04-26T09:31:17Z</time></trkpt><trkpt lat="44.63934583473683" lon="6.20457592553078"><ele>1422.0</ele><time>2026-04-26T09:31:19Z</time></trkpt><trkpt lat="44.63926965225118" lon="6.204452462041438"><ele>1422.0</ele><time>2026-04-26T09:31:21Z</time></trkpt><trkpt lat="44.63919024279938" lon="6.204330300808987"><ele>1422.0</ele><time>2026-04-26T09:31:23Z</time></trkpt><trkpt lat="44.63910321861209" lon="6.20422610155341"><ele>1422.0</ele><time>2026-04-26T09:31:25Z</time></trkpt><trkpt lat="44.63902335753032" lon="6.204105465080186"><ele>1422.0</ele><time>2026-04-26T09:31:27Z</time></trkpt><trkpt lat="44.63894731560461" lon="6.203998490887175"><ele>1422.0</ele><time>2026-04-26T09:31:29Z</time></trkpt><trkpt lat="44.63886905787756" lon="6.203899408205245"><ele>1422.0</ele><time>2026-04-26T09:31:31Z</time></trkpt><trkpt lat="44.63881380480149" lon="6.203775140225294"><ele>1422.0</ele><time>2026-04-26T09:31:33Z</time></trkpt><trkpt lat="44.63873366534241" lon="6.203669896603465"><ele>1421.6</ele><time>2026-04-26T09:31:35Z</time></trkpt><trkpt lat="44.638677303963156" lon="6.2035453545349535"><ele>1421.1999999999998</ele><time>2026-04-26T09:31:37Z</time></trkpt><trkpt lat="44.63861675611598" lon="6.203427263081428"><ele>1420.8</ele><time>2026-04-26T09:31:39Z</time></trkpt><trkpt lat="44.638556048585684" lon="6.203299174948377"><ele>1420.4</ele><time>2026-04-26T09:31:41Z</time></trkpt><trkpt lat="44.638500292467725" lon="6.203161607312885"><ele>1420.0</ele><time>2026-04-26T09:31:43Z</time></trkpt><trkpt lat="44.63844139112688" lon="6.20302164484804"><ele>1418.6</ele><time>2026-04-26T09:31:45Z</time></trkpt><trkpt lat="44.6384000738302" lon="6.202886161189908"><ele>1417.2</ele><time>2026-04-26T09:31:47Z</time></trkpt><trkpt lat="44.638383887379774" lon="6.202723618715274"><ele>1415.8000000000002</ele><time>2026-04-26T09:31:49Z</time></trkpt><trkpt lat="44.638365791886386" lon="6.202579293249442"><ele>1414.4</ele><time>2026-04-26T09:31:51Z</time></trkpt><trkpt lat="44.63832871408429" lon="6.202443585552689"><ele>1413.0</ele><time>2026-04-26T09:31:53Z</time></trkpt><trkpt lat="44.63827392165762" lon="6.202300462073896"><ele>1412.8000000000002</ele><time>2026-04-26T09:31:55Z</time></trkpt><trkpt lat="44.63823870564288" lon="6.202154652815104"><ele>1412.6</ele><time>2026-04-26T09:31:57Z</time></trkpt><trkpt lat="44.63821121481467" lon="6.202024368651129"><ele>1412.4</ele><time>2026-04-26T09:31:59Z</time></trkpt><trkpt lat="44.638272750124585" lon="6.201930692685356"><ele>1412.1999999999998</ele><time>2026-04-26T09:32:01Z</time></trkpt><trkpt lat="44.63829820609859" lon="6.201821127456223"><ele>1412.0</ele><time>2026-04-26T09:32:03Z</time></trkpt><trkpt lat="44.638328273377034" lon="6.201702367296109"><ele>1412.0</ele><time>2026-04-26T09:32:05Z</time></trkpt><trkpt lat="44.638323644148755" lon="6.201561754258563"><ele>1412.0</ele><time>2026-04-26T09:32:07Z</time></trkpt><trkpt lat="44.63829691720593" lon="6.201427745120528"><ele>1412.0</ele><time>2026-04-26T09:32:09Z</time></trkpt><trkpt lat="44.63825537447887" lon="6.201289152010368"><ele>1412.0</ele><time>2026-04-26T09:32:11Z</time></trkpt><trkpt lat="44.638204060433075" lon="6.201154627934721"><ele>1412.0</ele><time>2026-04-26T09:32:13Z</time></trkpt><trkpt lat="44.638152549931" lon="6.201020164791214"><ele>1411.8</ele><time>2026-04-26T09:32:15Z</time></trkpt><trkpt lat="44.63809857811393" lon="6.200884426171734"><ele>1411.6</ele><time>2026-04-26T09:32:17Z</time></trkpt><trkpt lat="44.63803163028233" lon="6.200772006492255"><ele>1411.3999999999999</ele><time>2026-04-26T09:32:19Z</time></trkpt><trkpt lat="44.63794989982558" lon="6.2006867915102655"><ele>1411.1999999999998</ele><time>2026-04-26T09:32:21Z</time></trkpt><trkpt lat="44.63787694288964" lon="6.2005963330481215"><ele>1411.0</ele><time>2026-04-26T09:32:23Z</time></trkpt><trkpt lat="44.63782359450366" lon="6.200481661159486"><ele>1410.3333333333333</ele><time>2026-04-26T09:32:25Z</time></trkpt><trkpt lat="44.63778569490305" lon="6.200359189165324"><ele>1409.6666666666665</ele><time>2026-04-26T09:32:27Z</time></trkpt><trkpt lat="44.63776365443674" lon="6.200247913636863"><ele>1409.0</ele><time>2026-04-26T09:32:29Z</time></trkpt><trkpt lat="44.63776484817756" lon="6.200128666680211"><ele>1408.3333333333333</ele><time>2026-04-26T09:32:31Z</time></trkpt><trkpt lat="44.6377372630891" lon="6.200013087651955"><ele>1407.6666666666667</ele><time>2026-04-26T09:32:33Z</time></trkpt><trkpt lat="44.63773416136693" lon="6.199891709236546"><ele>1407.0</ele><time>2026-04-26T09:32:36Z</time></trkpt><trkpt lat="44.63773529597878" lon="6.199799829224526"><ele>1406.3333333333333</ele><time>2026-04-26T09:32:38Z</time></trkpt><trkpt lat="44.63772920538306" lon="6.1996695958748305"><ele>1405.6666666666667</ele><time>2026-04-26T09:32:41Z</time></trkpt><trkpt lat="44.637750725525486" lon="6.199571302677416"><ele>1405.0</ele><time>2026-04-26T09:32:43Z</time></trkpt><trkpt lat="44.63782534257361" lon="6.19956479575926"><ele>1404.3333333333335</ele><time>2026-04-26T09:32:45Z</time></trkpt><trkpt lat="44.63791935581815" lon="6.1995671577856415"><ele>1403.6666666666667</ele><time>2026-04-26T09:32:48Z</time></trkpt><trkpt lat="44.63798934668295" lon="6.1995187541514944"><ele>1403.0</ele><time>2026-04-26T09:32:50Z</time></trkpt><trkpt lat="44.638064775280064" lon="6.199509588930201"><ele>1404.6666666666667</ele><time>2026-04-26T09:32:52Z</time></trkpt><trkpt lat="44.638125417255836" lon="6.199447582931102"><ele>1406.3333333333335</ele><time>2026-04-26T09:32:54Z</time></trkpt><trkpt lat="44.638186303858475" lon="6.199394520738596"><ele>1408.0</ele><time>2026-04-26T09:32:56Z</time></trkpt><trkpt lat="44.63824632833969" lon="6.19934426527563"><ele>1409.6666666666667</ele><time>2026-04-26T09:32:58Z</time></trkpt><trkpt lat="44.63829393744166" lon="6.19927211534694"><ele>1411.3333333333333</ele><time>2026-04-26T09:33:00Z</time></trkpt><trkpt lat="44.63833776872251" lon="6.199177327828649"><ele>1413.0</ele><time>2026-04-26T09:33:02Z</time></trkpt><trkpt lat="44.63836770878111" lon="6.199041508559105"><ele>1413.0</ele><time>2026-04-26T09:33:04Z</time></trkpt><trkpt lat="44.63839294098008" lon="6.198878809906702"><ele>1413.0</ele><time>2026-04-26T09:33:06Z</time></trkpt><trkpt lat="44.63838708056618" lon="6.198692949684548"><ele>1413.0</ele><time>2026-04-26T09:33:08Z</time></trkpt><trkpt lat="44.638371760250564" lon="6.198595014151221"><ele>1413.0</ele><time>2026-04-26T09:33:09Z</time></trkpt><trkpt lat="44.638366437854245" lon="6.198502393503529"><ele>1413.0</ele><time>2026-04-26T09:33:10Z</time></trkpt><trkpt lat="44.63837544631264" lon="6.198319503897087"><ele>1413.0</ele><time>2026-04-26T09:33:12Z</time></trkpt><trkpt lat="44.638372159565044" lon="6.198225247669185"><ele>1413.0</ele><time>2026-04-26T09:33:13Z</time></trkpt><trkpt lat="44.6383692074781" lon="6.198129230561517"><ele>1413.0</ele><time>2026-04-26T09:33:14Z</time></trkpt><trkpt lat="44.638348056386114" lon="6.198008538149352"><ele>1413.0</ele><time>2026-04-26T09:33:16Z</time></trkpt><trkpt lat="44.638343652786865" lon="6.197835948609473"><ele>1413.0</ele><time>2026-04-26T09:33:19Z</time></trkpt><trkpt lat="44.63833000878606" lon="6.197679838762521"><ele>1412.2</ele><time>2026-04-26T09:33:21Z</time></trkpt><trkpt lat="44.638330501639814" lon="6.197545149849573"><ele>1411.4</ele><time>2026-04-26T09:33:23Z</time></trkpt><trkpt lat="44.638301654119516" lon="6.197377277702205"><ele>1410.6000000000001</ele><time>2026-04-26T09:33:25Z</time></trkpt><trkpt lat="44.63827130638571" lon="6.197282617039071"><ele>1409.8000000000002</ele><time>2026-04-26T09:33:26Z</time></trkpt><trkpt lat="44.63824815846007" lon="6.1971822089213076"><ele>1409.0</ele><time>2026-04-26T09:33:27Z</time></trkpt><trkpt lat="44.63824094502584" lon="6.197067129223553"><ele>1406.6</ele><time>2026-04-26T09:33:28Z</time></trkpt><trkpt lat="44.638219484655075" lon="6.1969650193992285"><ele>1404.2</ele><time>2026-04-26T09:33:29Z</time></trkpt><trkpt lat="44.63819766370425" lon="6.196854968178207"><ele>1401.8</ele><time>2026-04-26T09:33:30Z</time></trkpt><trkpt lat="44.63817726533218" lon="6.196745671159796"><ele>1399.3999999999999</ele><time>2026-04-26T09:33:31Z</time></trkpt><trkpt lat="44.63815161306927" lon="6.196592607920018"><ele>1397.0</ele><time>2026-04-26T09:33:33Z</time></trkpt><trkpt lat="44.63812719783133" lon="6.196440056715986"><ele>1395.8</ele><time>2026-04-26T09:33:35Z</time></trkpt><trkpt lat="44.638102763943586" lon="6.196280908425527"><ele>1394.6</ele><time>2026-04-26T09:33:37Z</time></trkpt><trkpt lat="44.638081365691114" lon="6.196142406858605"><ele>1393.3999999999999</ele><time>2026-04-26T09:33:39Z</time></trkpt><trkpt lat="44.63806058688146" lon="6.196007914502128"><ele>1392.1999999999998</ele><time>2026-04-26T09:33:41Z</time></trkpt><trkpt lat="44.63804348352878" lon="6.195897211881891"><ele>1391.0</ele><time>2026-04-26T09:33:43Z</time></trkpt><trkpt lat="44.638017903705034" lon="6.195776297865246"><ele>1390.1666666666667</ele><time>2026-04-26T09:33:46Z</time></trkpt><trkpt lat="44.63799696154443" lon="6.195648908652058"><ele>1389.3333333333335</ele><time>2026-04-26T09:33:48Z</time></trkpt><trkpt lat="44.63798077407569" lon="6.195525717501651"><ele>1388.5</ele><time>2026-04-26T09:33:50Z</time></trkpt><trkpt lat="44.637964221311925" lon="6.195436490241055"><ele>1387.6666666666667</ele><time>2026-04-26T09:33:51Z</time></trkpt><trkpt lat="44.63793368095649" lon="6.195347340585307"><ele>1386.8333333333333</ele><time>2026-04-26T09:33:52Z</time></trkpt><trkpt lat="44.63792697046565" lon="6.195250265629201"><ele>1386.0</ele><time>2026-04-26T09:33:53Z</time></trkpt><trkpt lat="44.63791314334998" lon="6.1951374487960225"><ele>1386.0</ele><time>2026-04-26T09:33:54Z</time></trkpt><trkpt lat="44.6379007793896" lon="6.195033883933317"><ele>1386.0</ele><time>2026-04-26T09:33:55Z</time></trkpt><trkpt lat="44.6378914196531" lon="6.194938381785509"><ele>1386.0</ele><time>2026-04-26T09:33:56Z</time></trkpt><trkpt lat="44.637886207361255" lon="6.194839350215071"><ele>1386.0</ele><time>2026-04-26T09:33:57Z</time></trkpt><trkpt lat="44.63788292161828" lon="6.1947426634628915"><ele>1386.0</ele><time>2026-04-26T09:33:58Z</time></trkpt><trkpt lat="44.63789058877522" lon="6.194650097448655"><ele>1386.0</ele><time>2026-04-26T09:33:59Z</time></trkpt><trkpt lat="44.63790112521505" lon="6.1945603480692295"><ele>1386.0</ele><time>2026-04-26T09:34:00Z</time></trkpt><trkpt lat="44.63791587648042" lon="6.194470057468134"><ele>1385.1999999999998</ele><time>2026-04-26T09:34:01Z</time></trkpt><trkpt lat="44.63794512730854" lon="6.194315500366135"><ele>1384.3999999999999</ele><time>2026-04-26T09:34:03Z</time></trkpt><trkpt lat="44.63792908308424" lon="6.194161180340822"><ele>1383.6</ele><time>2026-04-26T09:34:05Z</time></trkpt><trkpt lat="44.63789318200607" lon="6.194014147382449"><ele>1382.8</ele><time>2026-04-26T09:34:07Z</time></trkpt><trkpt lat="44.637856730217045" lon="6.193874193132866"><ele>1382.0</ele><time>2026-04-26T09:34:09Z</time></trkpt><trkpt lat="44.63783729493819" lon="6.193740125452109"><ele>1381.3999999999999</ele><time>2026-04-26T09:34:11Z</time></trkpt><trkpt lat="44.63782715469772" lon="6.193605495001256"><ele>1380.8</ele><time>2026-04-26T09:34:13Z</time></trkpt><trkpt lat="44.63779967328661" lon="6.193477826447178"><ele>1380.2</ele><time>2026-04-26T09:34:15Z</time></trkpt><trkpt lat="44.63776244341585" lon="6.1933658752190235"><ele>1379.6</ele><time>2026-04-26T09:34:17Z</time></trkpt><trkpt lat="44.637698257084054" lon="6.193245604554"><ele>1379.0</ele><time>2026-04-26T09:34:19Z</time></trkpt><trkpt lat="44.63764495113341" lon="6.193120035208906"><ele>1378.0</ele><time>2026-04-26T09:34:21Z</time></trkpt><trkpt lat="44.637602397363246" lon="6.19297544888952"><ele>1377.0</ele><time>2026-04-26T09:34:23Z</time></trkpt><trkpt lat="44.637534237846005" lon="6.192851686363651"><ele>1376.0</ele><time>2026-04-26T09:34:25Z</time></trkpt><trkpt lat="44.63750778911728" lon="6.192767236465279"><ele>1375.0</ele><time>2026-04-26T09:34:26Z</time></trkpt><trkpt lat="44.63746067864493" lon="6.192708305816595"><ele>1374.0</ele><time>2026-04-26T09:34:27Z</time></trkpt><trkpt lat="44.63739474080555" lon="6.19256921805858"><ele>1374.0</ele><time>2026-04-26T09:34:29Z</time></trkpt><trkpt lat="44.637353652855396" lon="6.192493511852159"><ele>1374.0</ele><time>2026-04-26T09:34:30Z</time></trkpt><trkpt lat="44.637326695763754" lon="6.192398017903785"><ele>1374.0</ele><time>2026-04-26T09:34:31Z</time></trkpt><trkpt lat="44.63727811362581" lon="6.192336192593698"><ele>1374.0</ele><time>2026-04-26T09:34:32Z</time></trkpt><trkpt lat="44.637245759004294" lon="6.192243890081662"><ele>1374.0</ele><time>2026-04-26T09:34:33Z</time></trkpt><trkpt lat="44.637188392653314" lon="6.192142077906932"><ele>1374.0</ele><time>2026-04-26T09:34:35Z</time></trkpt><trkpt lat="44.637109272435765" lon="6.192008241291742"><ele>1372.75</ele><time>2026-04-26T09:34:37Z</time></trkpt><trkpt lat="44.637033170667756" lon="6.191881009414261"><ele>1371.5</ele><time>2026-04-26T09:34:39Z</time></trkpt><trkpt lat="44.63695325374369" lon="6.191748169383075"><ele>1370.25</ele><time>2026-04-26T09:34:41Z</time></trkpt><trkpt lat="44.636887804758175" lon="6.191626502488971"><ele>1369.0</ele><time>2026-04-26T09:34:43Z</time></trkpt><trkpt lat="44.63682438298909" lon="6.191493777424814"><ele>1367.8000000000002</ele><time>2026-04-26T09:34:45Z</time></trkpt><trkpt lat="44.63679999418127" lon="6.19133085020065"><ele>1366.6000000000001</ele><time>2026-04-26T09:34:47Z</time></trkpt><trkpt lat="44.6367828480437" lon="6.191245478850588"><ele>1365.4</ele><time>2026-04-26T09:34:48Z</time></trkpt><trkpt lat="44.636745369870404" lon="6.1910720177014245"><ele>1364.2</ele><time>2026-04-26T09:34:50Z</time></trkpt><trkpt lat="44.63672327322366" lon="6.19098044653356"><ele>1363.0</ele><time>2026-04-26T09:34:51Z</time></trkpt><trkpt lat="44.63669735394608" lon="6.190887743819148"><ele>1363.0</ele><time>2026-04-26T09:34:52Z</time></trkpt><trkpt lat="44.63666634585771" lon="6.190783924710339"><ele>1363.0</ele><time>2026-04-26T09:34:54Z</time></trkpt><trkpt lat="44.63660163368723" lon="6.190639630814087"><ele>1363.0</ele><time>2026-04-26T09:34:56Z</time></trkpt><trkpt lat="44.63651731253188" lon="6.190548476430935"><ele>1363.0</ele><time>2026-04-26T09:34:58Z</time></trkpt><trkpt lat="44.63644737641196" lon="6.190443738055587"><ele>1363.0</ele><time>2026-04-26T09:35:00Z</time></trkpt><trkpt lat="44.636388361152854" lon="6.19032316777562"><ele>1362.4</ele><time>2026-04-26T09:35:02Z</time></trkpt><trkpt lat="44.63634622271841" lon="6.190196316480555"><ele>1361.8000000000002</ele><time>2026-04-26T09:35:04Z</time></trkpt><trkpt lat="44.63631123530899" lon="6.19006416697368"><ele>1361.2</ele><time>2026-04-26T09:35:06Z</time></trkpt><trkpt lat="44.63626617139564" lon="6.1899396828913495"><ele>1360.6</ele><time>2026-04-26T09:35:08Z</time></trkpt><trkpt lat="44.63621153911046" lon="6.18980915749233"><ele>1360.0</ele><time>2026-04-26T09:35:10Z</time></trkpt><trkpt lat="44.63614008113616" lon="6.189683967578944"><ele>1360.4</ele><time>2026-04-26T09:35:12Z</time></trkpt><trkpt lat="44.63604913656953" lon="6.189573894788377"><ele>1360.8</ele><time>2026-04-26T09:35:14Z</time></trkpt><trkpt lat="44.63596240477138" lon="6.189477345683478"><ele>1361.1999999999998</ele><time>2026-04-26T09:35:16Z</time></trkpt><trkpt lat="44.63589076400804" lon="6.189383320564746"><ele>1361.6</ele><time>2026-04-26T09:35:18Z</time></trkpt><trkpt lat="44.63583447685453" lon="6.189286860108919"><ele>1362.0</ele><time>2026-04-26T09:35:20Z</time></trkpt><trkpt lat="44.63577735840628" lon="6.189183369839605"><ele>1362.0</ele><time>2026-04-26T09:35:22Z</time></trkpt><trkpt lat="44.63571712348271" lon="6.189074232948313"><ele>1362.0</ele><time>2026-04-26T09:35:24Z</time></trkpt><trkpt lat="44.635659456994375" lon="6.188964707468656"><ele>1362.0</ele><time>2026-04-26T09:35:26Z</time></trkpt><trkpt lat="44.63560108012949" lon="6.188841962704781"><ele>1362.0</ele><time>2026-04-26T09:35:28Z</time></trkpt><trkpt lat="44.63554641794495" lon="6.188724048937359"><ele>1362.0</ele><time>2026-04-26T09:35:30Z</time></trkpt><trkpt lat="44.6354888424296" lon="6.1886189910355585"><ele>1360.8333333333333</ele><time>2026-04-26T09:35:32Z</time></trkpt><trkpt lat="44.63546030282118" lon="6.1885201534176"><ele>1359.6666666666667</ele><time>2026-04-26T09:35:34Z</time></trkpt><trkpt lat="44.63542551068096" lon="6.188410868140398"><ele>1358.5</ele><time>2026-04-26T09:35:36Z</time></trkpt><trkpt lat="44.635381073952324" lon="6.188280141285653"><ele>1357.3333333333335</ele><time>2026-04-26T09:35:38Z</time></trkpt><trkpt lat="44.635354286401494" lon="6.1881667257216835"><ele>1356.1666666666667</ele><time>2026-04-26T09:35:41Z</time></trkpt><trkpt lat="44.635318628171525" lon="6.18808448665332"><ele>1355.0</ele><time>2026-04-26T09:35:44Z</time></trkpt><trkpt lat="44.635267681216014" lon="6.187983019516043"><ele>1355.0000000000002</ele><time>2026-04-26T09:35:47Z</time></trkpt><trkpt lat="44.63522910852659" lon="6.187902124815293"><ele>1355.0</ele><time>2026-04-26T09:35:49Z</time></trkpt><trkpt lat="44.63518265519719" lon="6.187821473692033"><ele>1355.0</ele><time>2026-04-26T09:35:51Z</time></trkpt><trkpt lat="44.63515623866051" lon="6.187729264727285"><ele>1355.0</ele><time>2026-04-26T09:35:53Z</time></trkpt><trkpt lat="44.63512901284751" lon="6.187642482372086"><ele>1355.0</ele><time>2026-04-26T09:35:55Z</time></trkpt><trkpt lat="44.635109497122855" lon="6.187556598295128"><ele>1355.0000000000002</ele><time>2026-04-26T09:35:57Z</time></trkpt><trkpt lat="44.635074215188105" lon="6.187443137315101"><ele>1355.0</ele><time>2026-04-26T09:36:00Z</time></trkpt><trkpt lat="44.6350636897532" lon="6.1873394139376945"><ele>1354.4285714285716</ele><time>2026-04-26T09:36:02Z</time></trkpt><trkpt lat="44.63503566282812" lon="6.187250553495409"><ele>1353.857142857143</ele><time>2026-04-26T09:36:04Z</time></trkpt><trkpt lat="44.63499865622211" lon="6.187151802767708"><ele>1353.2857142857142</ele><time>2026-04-26T09:36:06Z</time></trkpt><trkpt lat="44.63495895793014" lon="6.187064561960538"><ele>1352.7142857142858</ele><time>2026-04-26T09:36:08Z</time></trkpt><trkpt lat="44.634908151409036" lon="6.1869984981262744"><ele>1352.142857142857</ele><time>2026-04-26T09:36:10Z</time></trkpt><trkpt lat="44.63487884243853" lon="6.186910243986599"><ele>1351.5714285714287</ele><time>2026-04-26T09:36:12Z</time></trkpt><trkpt lat="44.63481885125503" lon="6.18683545538776"><ele>1351.0</ele><time>2026-04-26T09:36:14Z</time></trkpt><trkpt lat="44.634774911311254" lon="6.186731187334046"><ele>1351.0</ele><time>2026-04-26T09:36:16Z</time></trkpt><trkpt lat="44.63473714869877" lon="6.186626114692612"><ele>1351.0</ele><time>2026-04-26T09:36:18Z</time></trkpt><trkpt lat="44.63467711264236" lon="6.186525918775807"><ele>1351.0</ele><time>2026-04-26T09:36:20Z</time></trkpt><trkpt lat="44.63463134327262" lon="6.186417188851057"><ele>1351.0</ele><time>2026-04-26T09:36:22Z</time></trkpt><trkpt lat="44.63458441154646" lon="6.18629654957693"><ele>1351.0</ele><time>2026-04-26T09:36:24Z</time></trkpt><trkpt lat="44.63455579596415" lon="6.186186968978219"><ele>1351.0</ele><time>2026-04-26T09:36:26Z</time></trkpt><trkpt lat="44.63454025662812" lon="6.186073911859237"><ele>1350.6</ele><time>2026-04-26T09:36:28Z</time></trkpt><trkpt lat="44.63448492821469" lon="6.18600842065948"><ele>1350.1999999999998</ele><time>2026-04-26T09:36:30Z</time></trkpt><trkpt lat="44.63439655644316" lon="6.1860035173602705"><ele>1349.8000000000002</ele><time>2026-04-26T09:36:32Z</time></trkpt><trkpt lat="44.63430727354565" lon="6.186076393435174"><ele>1349.4</ele><time>2026-04-26T09:36:34Z</time></trkpt><trkpt lat="44.6342008739362" lon="6.1861356868646"><ele>1349.0</ele><time>2026-04-26T09:36:36Z</time></trkpt><trkpt lat="44.63409476105725" lon="6.186140488381386"><ele>1349.0</ele><time>2026-04-26T09:36:38Z</time></trkpt><trkpt lat="44.634003332798244" lon="6.186125315759929"><ele>1349.0</ele><time>2026-04-26T09:36:40Z</time></trkpt><trkpt lat="44.63392143778176" lon="6.18607297519274"><ele>1349.0</ele><time>2026-04-26T09:36:42Z</time></trkpt><trkpt lat="44.63383607802368" lon="6.186008713575006"><ele>1349.0</ele><time>2026-04-26T09:36:44Z</time></trkpt><trkpt lat="44.63375081240764" lon="6.185934482923701"><ele>1349.0</ele><time>2026-04-26T09:36:46Z</time></trkpt><trkpt lat="44.6336670475673" lon="6.185836510379642"><ele>1348.0</ele><time>2026-04-26T09:36:48Z</time></trkpt><trkpt lat="44.63358203501021" lon="6.185712559071347"><ele>1347.0</ele><time>2026-04-26T09:36:50Z</time></trkpt><trkpt lat="44.6334938021868" lon="6.185594159980085"><ele>1346.0</ele><time>2026-04-26T09:36:52Z</time></trkpt><trkpt lat="44.63340724754068" lon="6.185479611341343"><ele>1345.0</ele><time>2026-04-26T09:36:54Z</time></trkpt><trkpt lat="44.63332292058802" lon="6.1853711784675"><ele>1345.0</ele><time>2026-04-26T09:36:56Z</time></trkpt><trkpt lat="44.633235323997766" lon="6.185256666344687"><ele>1345.0</ele><time>2026-04-26T09:36:58Z</time></trkpt><trkpt lat="44.63315217943786" lon="6.185144875194905"><ele>1345.0</ele><time>2026-04-26T09:37:00Z</time></trkpt><trkpt lat="44.63306178993512" lon="6.185043605331802"><ele>1345.0</ele><time>2026-04-26T09:37:02Z</time></trkpt><trkpt lat="44.633005106683676" lon="6.185002988884683"><ele>1345.0</ele><time>2026-04-26T09:37:03Z</time></trkpt><trkpt lat="44.63289476804474" lon="6.184979505404388"><ele>1345.0</ele><time>2026-04-26T09:37:05Z</time></trkpt><trkpt lat="44.632812223068726" lon="6.184869444786789"><ele>1345.0</ele><time>2026-04-26T09:37:07Z</time></trkpt><trkpt lat="44.63272825820982" lon="6.184769394447672"><ele>1345.0</ele><time>2026-04-26T09:37:09Z</time></trkpt><trkpt lat="44.632646449213404" lon="6.184665452044166"><ele>1345.0</ele><time>2026-04-26T09:37:11Z</time></trkpt><trkpt lat="44.63256440949566" lon="6.184568264425602"><ele>1345.0</ele><time>2026-04-26T09:37:13Z</time></trkpt><trkpt lat="44.63250012567718" lon="6.184431587785717"><ele>1345.2</ele><time>2026-04-26T09:37:15Z</time></trkpt><trkpt lat="44.63242729423411" lon="6.184304386552684"><ele>1345.4</ele><time>2026-04-26T09:37:17Z</time></trkpt><trkpt lat="44.63233469321288" lon="6.184203148935418"><ele>1345.6</ele><time>2026-04-26T09:37:19Z</time></trkpt><trkpt lat="44.63224981577735" lon="6.184112318246815"><ele>1345.8</ele><time>2026-04-26T09:37:21Z</time></trkpt><trkpt lat="44.6321724774219" lon="6.184026644277374"><ele>1346.0</ele><time>2026-04-26T09:37:23Z</time></trkpt><trkpt lat="44.632092786439514" lon="6.1839370614447855"><ele>1345.4</ele><time>2026-04-26T09:37:25Z</time></trkpt><trkpt lat="44.632036066656696" lon="6.183803539712437"><ele>1344.8</ele><time>2026-04-26T09:37:27Z</time></trkpt><trkpt lat="44.6319669871461" lon="6.183681868751678"><ele>1344.2</ele><time>2026-04-26T09:37:29Z</time></trkpt><trkpt lat="44.63189294058265" lon="6.183558542025952"><ele>1343.6000000000001</ele><time>2026-04-26T09:37:31Z</time></trkpt><trkpt lat="44.63182187625937" lon="6.183442593413886"><ele>1343.0</ele><time>2026-04-26T09:37:33Z</time></trkpt><trkpt lat="44.63175800213353" lon="6.183318033342855"><ele>1343.75</ele><time>2026-04-26T09:37:35Z</time></trkpt><trkpt lat="44.631698092403035" lon="6.183183350572336"><ele>1344.5</ele><time>2026-04-26T09:37:37Z</time></trkpt><trkpt lat="44.63164197088691" lon="6.183051407745953"><ele>1345.25</ele><time>2026-04-26T09:37:39Z</time></trkpt><trkpt lat="44.6315733513503" lon="6.18292427879696"><ele>1346.0</ele><time>2026-04-26T09:37:41Z</time></trkpt><trkpt lat="44.631516100335595" lon="6.1827809702281895"><ele>1346.0</ele><time>2026-04-26T09:37:43Z</time></trkpt><trkpt lat="44.63148111783447" lon="6.182631732232553"><ele>1346.0</ele><time>2026-04-26T09:37:45Z</time></trkpt><trkpt lat="44.631454319502225" lon="6.182549745507543"><ele>1346.0</ele><time>2026-04-26T09:37:46Z</time></trkpt><trkpt lat="44.63140868463288" lon="6.182406776322401"><ele>1346.0</ele><time>2026-04-26T09:37:48Z</time></trkpt><trkpt lat="44.631349974431295" lon="6.18226644009062"><ele>1346.0</ele><time>2026-04-26T09:37:50Z</time></trkpt><trkpt lat="44.631318386403485" lon="6.182094265566051"><ele>1345.4</ele><time>2026-04-26T09:37:52Z</time></trkpt><trkpt lat="44.63127380416795" lon="6.181965885718342"><ele>1344.8</ele><time>2026-04-26T09:37:54Z</time></trkpt><trkpt lat="44.63122021584395" lon="6.181838749266665"><ele>1344.2</ele><time>2026-04-26T09:37:56Z</time></trkpt><trkpt lat="44.6311402784389" lon="6.181724683921002"><ele>1343.6000000000001</ele><time>2026-04-26T09:37:58Z</time></trkpt><trkpt lat="44.63104018336443" lon="6.181697456429877"><ele>1343.0</ele><time>2026-04-26T09:38:00Z</time></trkpt><trkpt lat="44.63096839103059" lon="6.181693296935106"><ele>1342.8333333333335</ele><time>2026-04-26T09:38:02Z</time></trkpt><trkpt lat="44.63089937636835" lon="6.1816964197928606"><ele>1342.6666666666667</ele><time>2026-04-26T09:38:04Z</time></trkpt><trkpt lat="44.630821612078165" lon="6.181675344043725"><ele>1342.5</ele><time>2026-04-26T09:38:06Z</time></trkpt><trkpt lat="44.63075315001076" lon="6.181611535527905"><ele>1342.3333333333333</ele><time>2026-04-26T09:38:08Z</time></trkpt><trkpt lat="44.630691617551314" lon="6.181542603988004"><ele>1342.1666666666665</ele><time>2026-04-26T09:38:10Z</time></trkpt><trkpt lat="44.63063619205387" lon="6.181437506068403"><ele>1342.0</ele><time>2026-04-26T09:38:12Z</time></trkpt><trkpt lat="44.630588276797724" lon="6.181291688306713"><ele>1341.0</ele><time>2026-04-26T09:38:14Z</time></trkpt><trkpt lat="44.63053061836504" lon="6.181116667709704"><ele>1340.0</ele><time>2026-04-26T09:38:16Z</time></trkpt><trkpt lat="44.630439655872365" lon="6.180993307245704"><ele>1339.0</ele><time>2026-04-26T09:38:18Z</time></trkpt><trkpt lat="44.63039630617861" lon="6.180928179875594"><ele>1338.0</ele><time>2026-04-26T09:38:19Z</time></trkpt><trkpt lat="44.63030677998418" lon="6.18083154540402"><ele>1337.0</ele><time>2026-04-26T09:38:21Z</time></trkpt><trkpt lat="44.630237821887775" lon="6.180732891321022"><ele>1337.0</ele><time>2026-04-26T09:38:23Z</time></trkpt><trkpt lat="44.63015479076325" lon="6.180666391474489"><ele>1337.0</ele><time>2026-04-26T09:38:25Z</time></trkpt><trkpt lat="44.63007887992363" lon="6.180551851483848"><ele>1337.0</ele><time>2026-04-26T09:38:27Z</time></trkpt><trkpt lat="44.62998813440333" lon="6.180482928207762"><ele>1337.0</ele><time>2026-04-26T09:38:29Z</time></trkpt><trkpt lat="44.62990721375917" lon="6.180405449159723"><ele>1337.0</ele><time>2026-04-26T09:38:31Z</time></trkpt><trkpt lat="44.629830152492765" lon="6.180336452195305"><ele>1337.0</ele><time>2026-04-26T09:38:33Z</time></trkpt><trkpt lat="44.62974466233971" lon="6.180275676608032"><ele>1337.0</ele><time>2026-04-26T09:38:35Z</time></trkpt><trkpt lat="44.62965230394968" lon="6.180211039506068"><ele>1337.0</ele><time>2026-04-26T09:38:37Z</time></trkpt><trkpt lat="44.62956271948327" lon="6.1801193169180015"><ele>1337.0</ele><time>2026-04-26T09:38:39Z</time></trkpt><trkpt lat="44.629476596991" lon="6.18001348764078"><ele>1337.0</ele><time>2026-04-26T09:38:41Z</time></trkpt><trkpt lat="44.62943697104369" lon="6.1799310222599555"><ele>1337.0</ele><time>2026-04-26T09:38:42Z</time></trkpt><trkpt lat="44.62938158459477" lon="6.179850414166173"><ele>1337.0</ele><time>2026-04-26T09:38:44Z</time></trkpt><trkpt lat="44.62930590905464" lon="6.179736203758685"><ele>1337.0</ele><time>2026-04-26T09:38:46Z</time></trkpt><trkpt lat="44.62921823011757" lon="6.179644791794587"><ele>1337.0</ele><time>2026-04-26T09:38:48Z</time></trkpt><trkpt lat="44.629123160106246" lon="6.179543914267608"><ele>1337.0</ele><time>2026-04-26T09:38:50Z</time></trkpt><trkpt lat="44.629071687065775" lon="6.179484762434099"><ele>1337.0</ele><time>2026-04-26T09:38:51Z</time></trkpt><trkpt lat="44.62902723383862" lon="6.17940527595437"><ele>1337.0</ele><time>2026-04-26T09:38:52Z</time></trkpt><trkpt lat="44.62897524354916" lon="6.17934000831791"><ele>1337.0</ele><time>2026-04-26T09:38:53Z</time></trkpt><trkpt lat="44.62892085523741" lon="6.179268949790756"><ele>1337.0</ele><time>2026-04-26T09:38:54Z</time></trkpt><trkpt lat="44.62887084341241" lon="6.179201787781969"><ele>1337.0</ele><time>2026-04-26T09:38:55Z</time></trkpt><trkpt lat="44.62882667040011" lon="6.17913810147403"><ele>1337.0</ele><time>2026-04-26T09:38:56Z</time></trkpt><trkpt lat="44.62874382410544" lon="6.179012791817641"><ele>1337.0</ele><time>2026-04-26T09:38:58Z</time></trkpt><trkpt lat="44.628700858273156" lon="6.178941524064498"><ele>1337.0</ele><time>2026-04-26T09:38:59Z</time></trkpt><trkpt lat="44.62865631481721" lon="6.178859111066286"><ele>1337.0</ele><time>2026-04-26T09:39:00Z</time></trkpt><trkpt lat="44.62859714962311" lon="6.1787867418555775"><ele>1337.0</ele><time>2026-04-26T09:39:01Z</time></trkpt><trkpt lat="44.62856260064361" lon="6.178697002198435"><ele>1337.0</ele><time>2026-04-26T09:39:02Z</time></trkpt><trkpt lat="44.62851321256817" lon="6.178615014180408"><ele>1337.0</ele><time>2026-04-26T09:39:03Z</time></trkpt><trkpt lat="44.62846704365964" lon="6.178539029840817"><ele>1337.0</ele><time>2026-04-26T09:39:04Z</time></trkpt><trkpt lat="44.628420278048104" lon="6.178459667806007"><ele>1336.1666666666667</ele><time>2026-04-26T09:39:05Z</time></trkpt><trkpt lat="44.628364974518476" lon="6.1783891512041045"><ele>1335.3333333333335</ele><time>2026-04-26T09:39:06Z</time></trkpt><trkpt lat="44.62830931558186" lon="6.178323073668413"><ele>1334.5</ele><time>2026-04-26T09:39:07Z</time></trkpt><trkpt lat="44.62825658279271" lon="6.178261421075286"><ele>1333.6666666666667</ele><time>2026-04-26T09:39:08Z</time></trkpt><trkpt lat="44.62820379423602" lon="6.178200980733502"><ele>1332.8333333333333</ele><time>2026-04-26T09:39:09Z</time></trkpt><trkpt lat="44.628162016572176" lon="6.178122661696134"><ele>1332.0</ele><time>2026-04-26T09:39:10Z</time></trkpt><trkpt lat="44.628086186664255" lon="6.178029388637345"><ele>1332.0</ele><time>2026-04-26T09:39:12Z</time></trkpt><trkpt lat="44.628033993133336" lon="6.177955799802022"><ele>1332.0</ele><time>2026-04-26T09:39:14Z</time></trkpt><trkpt lat="44.627994808380144" lon="6.17784513366647"><ele>1332.0</ele><time>2026-04-26T09:39:16Z</time></trkpt><trkpt lat="44.62796908360433" lon="6.177708038864065"><ele>1332.0</ele><time>2026-04-26T09:39:18Z</time></trkpt><trkpt lat="44.62793523332219" lon="6.177580982188389"><ele>1332.0</ele><time>2026-04-26T09:39:20Z</time></trkpt><trkpt lat="44.62790614495466" lon="6.17743228641892"><ele>1331.6666666666667</ele><time>2026-04-26T09:39:22Z</time></trkpt><trkpt lat="44.62785077160686" lon="6.177284887903869"><ele>1331.3333333333333</ele><time>2026-04-26T09:39:24Z</time></trkpt><trkpt lat="44.6278143174064" lon="6.177212271022954"><ele>1331.0</ele><time>2026-04-26T09:39:25Z</time></trkpt><trkpt lat="44.62774910959067" lon="6.177122820229106"><ele>1330.6666666666665</ele><time>2026-04-26T09:39:27Z</time></trkpt><trkpt lat="44.62769405924015" lon="6.177070187010902"><ele>1330.3333333333333</ele><time>2026-04-26T09:39:29Z</time></trkpt><trkpt lat="44.62760718461679" lon="6.177059221663831"><ele>1330.0</ele><time>2026-04-26T09:39:31Z</time></trkpt><trkpt lat="44.627491078334316" lon="6.177117327475329"><ele>1328.4</ele><time>2026-04-26T09:39:33Z</time></trkpt><trkpt lat="44.62737988563849" lon="6.1771878361598604"><ele>1326.8</ele><time>2026-04-26T09:39:35Z</time></trkpt><trkpt lat="44.62728907239111" lon="6.177236853109464"><ele>1325.1999999999998</ele><time>2026-04-26T09:39:37Z</time></trkpt><trkpt lat="44.62726699829746" lon="6.177323412459103"><ele>1323.6</ele><time>2026-04-26T09:39:38Z</time></trkpt><trkpt lat="44.62722010937537" lon="6.17746757180419"><ele>1322.0</ele><time>2026-04-26T09:39:40Z</time></trkpt><trkpt lat="44.627194715942714" lon="6.177610349588984"><ele>1321.6</ele><time>2026-04-26T09:39:42Z</time></trkpt><trkpt lat="44.62716494810927" lon="6.177782454284536"><ele>1321.1999999999998</ele><time>2026-04-26T09:39:44Z</time></trkpt><trkpt lat="44.62714590514123" lon="6.177883406749658"><ele>1320.8</ele><time>2026-04-26T09:39:45Z</time></trkpt><trkpt lat="44.627119184063815" lon="6.177971557841155"><ele>1320.4</ele><time>2026-04-26T09:39:46Z</time></trkpt><trkpt lat="44.62709185380754" lon="6.178081813723392"><ele>1320.0</ele><time>2026-04-26T09:39:48Z</time></trkpt><trkpt lat="44.62702197079895" lon="6.178209160180702"><ele>1319.2</ele><time>2026-04-26T09:39:51Z</time></trkpt><trkpt lat="44.627009118426926" lon="6.178370587305002"><ele>1318.4</ele><time>2026-04-26T09:39:53Z</time></trkpt><trkpt lat="44.626977577938376" lon="6.178471338718873"><ele>1317.6</ele><time>2026-04-26T09:39:55Z</time></trkpt><trkpt lat="44.626813581600544" lon="6.178433068431813"><ele>1316.8</ele><time>2026-04-26T09:39:57Z</time></trkpt><trkpt lat="44.62674994191064" lon="6.178414694829658"><ele>1316.0</ele><time>2026-04-26T09:39:58Z</time></trkpt><trkpt lat="44.626682761788395" lon="6.178412404674594"><ele>1314.7142857142858</ele><time>2026-04-26T09:39:59Z</time></trkpt><trkpt lat="44.62661738439884" lon="6.178411773245659"><ele>1313.4285714285716</ele><time>2026-04-26T09:40:00Z</time></trkpt><trkpt lat="44.626552054636846" lon="6.178400004799602"><ele>1312.142857142857</ele><time>2026-04-26T09:40:01Z</time></trkpt><trkpt lat="44.6264854476428" lon="6.17838274164325"><ele>1310.857142857143</ele><time>2026-04-26T09:40:02Z</time></trkpt><trkpt lat="44.62641593695031" lon="6.178377215390361"><ele>1309.5714285714287</ele><time>2026-04-26T09:40:03Z</time></trkpt><trkpt lat="44.62634588372595" lon="6.178382656221043"><ele>1308.2857142857142</ele><time>2026-04-26T09:40:04Z</time></trkpt><trkpt lat="44.626274849071216" lon="6.178378413516685"><ele>1307.0</ele><time>2026-04-26T09:40:05Z</time></trkpt><trkpt lat="44.62620455600166" lon="6.178376608476151"><ele>1306.1666666666667</ele><time>2026-04-26T09:40:06Z</time></trkpt><trkpt lat="44.62613140853249" lon="6.178387967736066"><ele>1305.3333333333335</ele><time>2026-04-26T09:40:07Z</time></trkpt><trkpt lat="44.6260586980132" lon="6.178400357284105"><ele>1304.5</ele><time>2026-04-26T09:40:08Z</time></trkpt><trkpt lat="44.625987155677734" lon="6.17840191968449"><ele>1303.6666666666667</ele><time>2026-04-26T09:40:09Z</time></trkpt><trkpt lat="44.625923994670835" lon="6.178414301971765"><ele>1302.8333333333333</ele><time>2026-04-26T09:40:10Z</time></trkpt><trkpt lat="44.625838068318465" lon="6.1784679636317215"><ele>1302.0</ele><time>2026-04-26T09:40:12Z</time></trkpt><trkpt lat="44.62578754964771" lon="6.178645225576398"><ele>1302.0</ele><time>2026-04-26T09:40:15Z</time></trkpt><trkpt lat="44.625742839315464" lon="6.178783709037819"><ele>1302.0</ele><time>2026-04-26T09:40:17Z</time></trkpt><trkpt lat="44.62568006785597" lon="6.178931988071114"><ele>1302.0</ele><time>2026-04-26T09:40:19Z</time></trkpt><trkpt lat="44.62565275313693" lon="6.179012494551257"><ele>1302.0</ele><time>2026-04-26T09:40:20Z</time></trkpt><trkpt lat="44.62559746190482" lon="6.179168387123382"><ele>1302.0</ele><time>2026-04-26T09:40:22Z</time></trkpt><trkpt lat="44.625542075810415" lon="6.179321200344392"><ele>1301.5</ele><time>2026-04-26T09:40:24Z</time></trkpt><trkpt lat="44.62550345615825" lon="6.179425998645526"><ele>1301.0</ele><time>2026-04-26T09:40:26Z</time></trkpt><trkpt lat="44.625465973206396" lon="6.179514453761537"><ele>1300.5</ele><time>2026-04-26T09:40:28Z</time></trkpt><trkpt lat="44.625437360419234" lon="6.179594497424346"><ele>1300.0</ele><time>2026-04-26T09:40:31Z</time></trkpt><trkpt lat="44.625299901154705" lon="6.179537864513513"><ele>1299.5</ele><time>2026-04-26T09:40:49Z</time></trkpt><trkpt lat="44.62522086624343" lon="6.179557312488121"><ele>1299.0</ele><time>2026-04-26T09:40:53Z</time></trkpt><trkpt lat="44.62522126092196" lon="6.179654483196535"><ele>1293.0</ele><time>2026-04-26T09:40:57Z</time></trkpt><trkpt lat="44.62534387497418" lon="6.179504812632919"><ele>1299.0</ele><time>2026-04-26T09:41:00Z</time></trkpt><trkpt lat="44.62529223400569" lon="6.179653736019198"><ele>1293.0</ele><time>2026-04-26T09:41:06Z</time></trkpt></trkseg></trk></gpx>